LA METEO DE GRANDFRESNOY - OISE - (60) - ALT.75 m
Donnes mto: Actuelle dimanche, 22/07/2018 20:13
Date Horaire Temp. E. Hum. E. P.atmo. Pluie Vent Direction Direction Ensoleilleme Horaire Temp Ev.Tr. UV Ray;solaire P. de rose Temp au vent Rafales Rception
22/07/2018 20:13 26,5 C 50 % 1015,1 hPa 0,0 mm 0,0 km/h (0 Bft) O 272 0 min 0 min 0,000 mm 0,0 UV-I 35 W/m 15,2 C 26,5 C 0,0 km/h (0 Bft) 96,15 %
22/07/2018 20:12 26,6 C 48 % 1015,1 hPa 0,0 mm 0,8 km/h (0 Bft) O 272 0 min 0 min 0,000 mm 0,0 UV-I 37 W/m 14,7 C 26,6 C 1,8 km/h (1 Bft) 100,00 %
22/07/2018 20:11 26,7 C 48 % 1015,1 hPa 0,0 mm 2,4 km/h (1 Bft) O 272 0 min 0 min 0,000 mm 0,0 UV-I 37 W/m 14,8 C 26,7 C 5,3 km/h (1 Bft) 100,00 %
22/07/2018 20:09 26,8 C 46 % 1015,0 hPa 0,0 mm 2,7 km/h (1 Bft) O 272 0 min 0 min 0,000 mm 0,0 UV-I 39 W/m 14,2 C 26,8 C 5,3 km/h (1 Bft) 95,65 %
22/07/2018 20:08 26,9 C 47 % 1015,0 hPa 0,0 mm 3,5 km/h (1 Bft) O 271 0 min 0 min 0,000 mm 0,0 UV-I 49 W/m 14,6 C 26,9 C 5,3 km/h (1 Bft) 96,00 %
22/07/2018 20:07 26,9 C 46 % 1015,1 hPa 0,0 mm 0,8 km/h (0 Bft) O 270 0 min 0 min 0,000 mm 0,0 UV-I 58 W/m 14,3 C 26,9 C 3,5 km/h (1 Bft) 100,00 %
22/07/2018 20:06 26,9 C 45 % 1015,0 hPa 0,0 mm 4,6 km/h (1 Bft) O 270 0 min 0 min 0,000 mm 0,0 UV-I 64 W/m 13,9 C 26,9 C 12,4 km/h (2 Bft) 100,00 %
22/07/2018 20:05 26,9 C 45 % 1015,0 hPa 0,0 mm 0,7 km/h (0 Bft) O 261 0 min 0 min 0,000 mm 0,0 UV-I 108 W/m 13,9 C 26,9 C 1,8 km/h (1 Bft) 100,00 %
22/07/2018 20:04 26,9 C 45 % 1015,1 hPa 0,0 mm 3,4 km/h (1 Bft) O 261 0 min 0 min 0,000 mm 0,0 UV-I 111 W/m 13,9 C 26,9 C 5,3 km/h (1 Bft) 100,00 %
22/07/2018 20:03 27,0 C 46 % 1015,0 hPa 0,0 mm 3,0 km/h (1 Bft) O 261 0 min 0 min 0,000 mm 0,0 UV-I 116 W/m 14,4 C 27,0 C 3,5 km/h (1 Bft) 100,00 %
22/07/2018 20:02 27,1 C 46 % 1015,1 hPa 0,0 mm 2,9 km/h (1 Bft) O 261 0 min 0 min 0,000 mm 0,0 UV-I 119 W/m 14,5 C 27,1 C 3,5 km/h (1 Bft) 100,00 %
22/07/2018 20:01 27,1 C 45 % 1015,0 hPa 0,0 mm 2,2 km/h (1 Bft) O 261 0 min 0 min 0,000 mm 0,0 UV-I 122 W/m 14,1 C 27,1 C 3,5 km/h (1 Bft) 96,30 %
22/07/2018 20:00 27,2 C 46 % 1015,1 hPa 0,0 mm 3,3 km/h (1 Bft) O 261 0 min 0 min 0,178 mm 0,0 UV-I 126 W/m 14,6 C 27,2 C 5,3 km/h (1 Bft) 100,00 %
22/07/2018 19:59 27,2 C 46 % 1015,0 hPa 0,0 mm 3,6 km/h (1 Bft) O 261 0 min 0 min 0,000 mm 0,0 UV-I 129 W/m 14,6 C 27,2 C 5,3 km/h (1 Bft) 96,15 %
22/07/2018 19:58 27,2 C 46 % 1015,1 hPa 0,0 mm 3,5 km/h (1 Bft) O 261 0 min 0 min 0,000 mm 0,0 UV-I 132 W/m 14,6 C 27,2 C 5,3 km/h (1 Bft) 100,00 %
22/07/2018 19:57 27,3 C 46 % 1015,0 hPa 0,0 mm 2,4 km/h (1 Bft) O 260 0 min 0 min 0,000 mm 0,0 UV-I 136 W/m 14,6 C 27,3 C 3,5 km/h (1 Bft) 92,86 %
22/07/2018 19:56 27,3 C 45 % 1015,0 hPa 0,0 mm 4,4 km/h (1 Bft) O-SO 258 0 min 0 min 0,000 mm 0,0 UV-I 140 W/m 14,3 C 27,3 C 5,3 km/h (1 Bft) 100,00 %
22/07/2018 19:55 27,3 C 45 % 1015,0 hPa 0,0 mm 5,2 km/h (1 Bft) O-SO 257 0 min 0 min 0,000 mm 0,0 UV-I 142 W/m 14,3 C 27,3 C 7,1 km/h (2 Bft) 95,65 %
22/07/2018 19:54 27,3 C 45 % 1015,0 hPa 0,0 mm 5,2 km/h (1 Bft) O-SO 244 1 min 0 min 0,000 mm 0,0 UV-I 145 W/m 14,3 C 27,3 C 7,1 km/h (2 Bft) 100,00 %
22/07/2018 19:53 27,3 C 45 % 1015,0 hPa 0,0 mm 3,2 km/h (1 Bft) O-SO 252 1 min 0 min 0,000 mm 0,0 UV-I 148 W/m 14,3 C 27,3 C 7,1 km/h (2 Bft) 96,15 %
22/07/2018 19:52 27,3 C 45 % 1015,0 hPa 0,0 mm 5,5 km/h (2 Bft) O-SO 252 1 min 0 min 0,000 mm 0,0 UV-I 149 W/m 14,3 C 27,3 C 8,9 km/h (2 Bft) 91,30 %
22/07/2018 19:51 27,3 C 44 % 1015,0 hPa 0,0 mm 2,6 km/h (1 Bft) O-SO 252 0 min 0 min 0,000 mm 0,0 UV-I 149 W/m 14,0 C 27,3 C 5,3 km/h (1 Bft) 100,00 %
22/07/2018 19:50 27,3 C 44 % 1015,0 hPa 0,0 mm 3,9 km/h (1 Bft) O-SO 252 0 min 0 min 0,000 mm 0,0 UV-I 149 W/m 14,0 C 27,3 C 5,3 km/h (1 Bft) 95,83 %
22/07/2018 19:49 27,3 C 45 % 1015,0 hPa 0,0 mm 2,5 km/h (1 Bft) O-SO 252 0 min 0 min 0,000 mm 0,0 UV-I 149 W/m 14,3 C 27,3 C 5,3 km/h (1 Bft) 100,00 %
22/07/2018 19:48 27,4 C 44 % 1015,0 hPa 0,0 mm 2,0 km/h (1 Bft) O-SO 252 0 min 0 min 0,000 mm 0,0 UV-I 149 W/m 14,0 C 27,4 C 5,3 km/h (1 Bft) 95,83 %
22/07/2018 19:47 27,4 C 44 % 1015,0 hPa 0,0 mm 5,5 km/h (2 Bft) O-SO 252 0 min 0 min 0,000 mm 0,0 UV-I 148 W/m 14,0 C 27,4 C 7,1 km/h (2 Bft) 95,83 %
22/07/2018 19:46 27,4 C 42 % 1015,0 hPa 0,0 mm 4,3 km/h (1 Bft) O-SO 253 0 min 0 min 0,000 mm 0,0 UV-I 145 W/m 13,3 C 27,4 C 5,3 km/h (1 Bft) 92,00 %
22/07/2018 19:45 27,4 C 44 % 1015,0 hPa 0,0 mm 4,6 km/h (1 Bft) O-SO 253 0 min 0 min 0,000 mm 0,0 UV-I 143 W/m 14,0 C 27,4 C 7,1 km/h (2 Bft) 100,00 %
22/07/2018 19:44 27,4 C 43 % 1015,0 hPa 0,0 mm 4,4 km/h (1 Bft) SO 236 0 min 0 min 0,000 mm 0,0 UV-I 140 W/m 13,7 C 27,4 C 7,1 km/h (2 Bft) 96,00 %
22/07/2018 19:43 27,4 C 44 % 1015,0 hPa 0,0 mm 3,2 km/h (1 Bft) SO 227 0 min 0 min 0,000 mm 0,0 UV-I 139 W/m 14,0 C 27,4 C 7,1 km/h (2 Bft) 96,30 %
22/07/2018 19:42 27,4 C 43 % 1015,0 hPa 0,0 mm 3,6 km/h (1 Bft) O-SO 257 0 min 0 min 0,000 mm 0,0 UV-I 144 W/m 13,7 C 27,4 C 5,3 km/h (1 Bft) 100,00 %
22/07/2018 19:41 27,4 C 44 % 1015,0 hPa 0,0 mm 4,3 km/h (1 Bft) O 259 0 min 0 min 0,000 mm 0,0 UV-I 155 W/m 14,0 C 27,4 C 7,1 km/h (2 Bft) 91,67 %
22/07/2018 19:40 27,5 C 44 % 1015,0 hPa 0,0 mm 3,5 km/h (1 Bft) O 264 0 min 0 min 0,000 mm 0,0 UV-I 164 W/m 14,1 C 27,5 C 5,3 km/h (1 Bft) 97,22 %
22/07/2018 19:39 27,6 C 43 % 1015,0 hPa 0,0 mm 4,4 km/h (1 Bft) O 265 1 min 0 min 0,000 mm 0,0 UV-I 167 W/m 13,9 C 27,6 C 7,1 km/h (2 Bft) 100,00 %
22/07/2018 19:38 27,6 C 43 % 1015,0 hPa 0,0 mm 3,7 km/h (1 Bft) O-SO 243 0 min 0 min 0,000 mm 0,0 UV-I 166 W/m 13,9 C 27,6 C 5,3 km/h (1 Bft) 97,14 %
22/07/2018 19:37 27,6 C 43 % 1015,0 hPa 0,0 mm 3,1 km/h (1 Bft) O-SO 243 0 min 0 min 0,000 mm 0,0 UV-I 166 W/m 13,9 C 27,6 C 5,3 km/h (1 Bft) 100,00 %
22/07/2018 19:36 27,6 C 43 % 1015,0 hPa 0,0 mm 5,2 km/h (1 Bft) O-SO 243 1 min 0 min 0,000 mm 0,0 UV-I 171 W/m 13,9 C 27,6 C 7,1 km/h (2 Bft) 100,00 %
22/07/2018 19:35 27,6 C 42 % 1015,0 hPa 0,0 mm 2,5 km/h (1 Bft) O 263 2 min 0 min 0,000 mm 0,0 UV-I 181 W/m 13,5 C 27,6 C 5,3 km/h (1 Bft) 93,88 %
22/07/2018 19:33 27,7 C 42 % 1014,9 hPa 0,0 mm 3,8 km/h (1 Bft) O-SO 240 1 min 0 min 0,000 mm 0,3 UV-I 190 W/m 13,6 C 27,7 C 5,3 km/h (1 Bft) 100,00 %
22/07/2018 19:32 27,7 C 42 % 1015,0 hPa 0,0 mm 4,5 km/h (1 Bft) O-SO 240 1 min 0 min 0,000 mm 0,5 UV-I 194 W/m 13,6 C 27,7 C 5,3 km/h (1 Bft) 92,00 %
22/07/2018 19:31 27,7 C 42 % 1015,0 hPa 0,0 mm 5,0 km/h (1 Bft) O-SO 240 1 min 0 min 0,000 mm 0,5 UV-I 198 W/m 13,6 C 27,7 C 5,3 km/h (1 Bft) 100,00 %
22/07/2018 19:30 27,7 C 41 % 1015,0 hPa 0,0 mm 4,3 km/h (1 Bft) O-SO 240 1 min 0 min 0,000 mm 0,5 UV-I 202 W/m 13,2 C 27,7 C 5,3 km/h (1 Bft) 95,83 %
22/07/2018 19:29 27,7 C 43 % 1015,0 hPa 0,0 mm 5,7 km/h (2 Bft) O-SO 239 1 min 0 min 0,000 mm 0,5 UV-I 204 W/m 14,0 C 27,7 C 7,1 km/h (2 Bft) 100,00 %
22/07/2018 19:28 27,7 C 42 % 1015,0 hPa 0,0 mm 5,8 km/h (2 Bft) O-SO 240 1 min 0 min 0,000 mm 0,5 UV-I 206 W/m 13,6 C 27,7 C 10,6 km/h (2 Bft) 95,65 %
22/07/2018 19:27 27,7 C 42 % 1014,9 hPa 0,0 mm 6,2 km/h (2 Bft) O-SO 248 1 min 0 min 0,000 mm 0,5 UV-I 207 W/m 13,6 C 27,7 C 7,1 km/h (2 Bft) 96,00 %
22/07/2018 19:26 27,7 C 42 % 1014,9 hPa 0,0 mm 5,4 km/h (2 Bft) O-SO 252 1 min 0 min 0,000 mm 0,5 UV-I 208 W/m 13,6 C 27,7 C 8,9 km/h (2 Bft) 100,00 %
22/07/2018 19:25 27,7 C 41 % 1014,9 hPa 0,0 mm 4,8 km/h (1 Bft) SO 227 1 min 0 min 0,000 mm 0,5 UV-I 211 W/m 13,2 C 27,7 C 8,9 km/h (2 Bft) 96,00 %
22/07/2018 19:24 27,7 C 42 % 1014,9 hPa 0,0 mm 4,9 km/h (1 Bft) O-SO 248 1 min 0 min 0,000 mm 0,5 UV-I 213 W/m 13,6 C 27,7 C 7,1 km/h (2 Bft) 100,00 %
22/07/2018 19:23 27,7 C 42 % 1014,9 hPa 0,0 mm 4,2 km/h (1 Bft) O-SO 240 1 min 0 min 0,000 mm 0,5 UV-I 216 W/m 13,6 C 27,7 C 7,1 km/h (2 Bft) 96,15 %
22/07/2018 19:22 27,7 C 42 % 1014,9 hPa 0,0 mm 5,0 km/h (1 Bft) SO 225 1 min 0 min 0,000 mm 0,5 UV-I 220 W/m 13,6 C 27,7 C 7,1 km/h (2 Bft) 100,00 %
22/07/2018 19:21 27,7 C 41 % 1014,9 hPa 0,0 mm 6,3 km/h (2 Bft) O-SO 248 1 min 0 min 0,000 mm 0,5 UV-I 221 W/m 13,2 C 27,7 C 7,1 km/h (2 Bft) 96,30 %
22/07/2018 19:20 27,7 C 42 % 1014,9 hPa 0,0 mm 4,4 km/h (1 Bft) O-SO 246 1 min 0 min 0,000 mm 0,5 UV-I 224 W/m 13,6 C 27,7 C 7,1 km/h (2 Bft) 100,00 %
22/07/2018 19:19 27,7 C 44 % 1014,9 hPa 0,0 mm 3,0 km/h (1 Bft) O-SO 250 1 min 0 min 0,000 mm 0,6 UV-I 228 W/m 14,3 C 27,7 C 5,3 km/h (1 Bft) 100,00 %
22/07/2018 19:18 27,7 C 41 % 1014,9 hPa 0,0 mm 0,7 km/h (0 Bft) O-SO 250 1 min 0 min 0,000 mm 0,6 UV-I 233 W/m 13,2 C 27,7 C 3,5 km/h (1 Bft) 100,00 %
22/07/2018 19:17 27,7 C 40 % 1014,9 hPa 0,0 mm 2,8 km/h (1 Bft) O-SO 248 1 min 0 min 0,000 mm 0,6 UV-I 238 W/m 12,9 C 27,7 C 3,5 km/h (1 Bft) 100,00 %
22/07/2018 19:16 27,8 C 42 % 1014,9 hPa 0,0 mm 4,7 km/h (1 Bft) O-SO 248 1 min 0 min 0,000 mm 0,6 UV-I 240 W/m 13,7 C 27,8 C 5,3 km/h (1 Bft) 100,00 %
22/07/2018 19:15 27,8 C 42 % 1014,9 hPa 0,0 mm 1,1 km/h (1 Bft) O-SO 248 1 min 0 min 0,000 mm 0,6 UV-I 243 W/m 13,7 C 27,8 C 1,8 km/h (1 Bft) 100,00 %
22/07/2018 19:14 27,9 C 41 % 1014,9 hPa 0,0 mm 2,2 km/h (1 Bft) O-SO 255 1 min 0 min 0,000 mm 0,6 UV-I 248 W/m 13,4 C 27,9 C 3,5 km/h (1 Bft) 100,00 %
22/07/2018 19:13 27,9 C 42 % 1014,9 hPa 0,0 mm 3,5 km/h (1 Bft) O-SO 254 1 min 0 min 0,000 mm 0,6 UV-I 252 W/m 13,8 C 27,9 C 5,3 km/h (1 Bft) 100,00 %
22/07/2018 19:12 27,9 C 40 % 1014,9 hPa 0,0 mm 2,2 km/h (1 Bft) O-SO 254 1 min 0 min 0,000 mm 0,6 UV-I 255 W/m 13,0 C 27,9 C 3,5 km/h (1 Bft) 95,83 %
22/07/2018 19:11 27,8 C 39 % 1014,9 hPa 0,0 mm 2,0 km/h (1 Bft) O-SO 254 1 min 0 min 0,000 mm 0,6 UV-I 259 W/m 12,6 C 27,8 C 3,5 km/h (1 Bft) 100,00 %
22/07/2018 19:10 27,8 C 40 % 1014,9 hPa 0,0 mm 3,9 km/h (1 Bft) O-SO 254 1 min 0 min 0,000 mm 0,6 UV-I 262 W/m 12,9 C 27,8 C 5,3 km/h (1 Bft) 100,00 %
22/07/2018 19:09 27,8 C 41 % 1014,9 hPa 0,0 mm 4,9 km/h (1 Bft) O 276 1 min 0 min 0,000 mm 0,7 UV-I 266 W/m 13,3 C 27,8 C 7,1 km/h (2 Bft) 100,00 %
22/07/2018 19:08 27,7 C 42 % 1014,9 hPa 0,0 mm 2,7 km/h (1 Bft) O 268 1 min 0 min 0,000 mm 0,7 UV-I 270 W/m 13,6 C 27,7 C 5,3 km/h (1 Bft) 96,15 %
22/07/2018 19:07 27,8 C 40 % 1014,9 hPa 0,0 mm 3,8 km/h (1 Bft) O-SO 251 1 min 0 min 0,000 mm 0,7 UV-I 274 W/m 12,9 C 27,8 C 7,1 km/h (2 Bft) 100,00 %
22/07/2018 19:06 27,8 C 40 % 1014,9 hPa 0,0 mm 2,5 km/h (1 Bft) O-NO 289 1 min 0 min 0,000 mm 0,7 UV-I 275 W/m 12,9 C 27,8 C 5,3 km/h (1 Bft) 100,00 %
22/07/2018 19:05 27,8 C 39 % 1014,9 hPa 0,0 mm 0,0 km/h (0 Bft) N 5 1 min 0 min 0,000 mm 0,7 UV-I 279 W/m 12,6 C 27,8 C 0,0 km/h (0 Bft) 100,00 %
22/07/2018 19:04 27,8 C 38 % 1014,9 hPa 0,0 mm 0,0 km/h (0 Bft) N 5 2 min 0 min 0,000 mm 0,7 UV-I 284 W/m 12,2 C 27,8 C 1,8 km/h (1 Bft) 98,15 %
22/07/2018 19:02 27,7 C 38 % 1014,9 hPa 0,0 mm 0,9 km/h (0 Bft) N 5 1 min 0 min 0,000 mm 0,7 UV-I 292 W/m 12,1 C 27,7 C 3,5 km/h (1 Bft) 100,00 %
22/07/2018 19:01 27,7 C 39 % 1015,0 hPa 0,0 mm 1,5 km/h (1 Bft) N 5 1 min 0 min 0,000 mm 0,7 UV-I 295 W/m 12,5 C 27,7 C 3,5 km/h (1 Bft) 100,00 %
22/07/2018 19:00 27,6 C 39 % 1014,9 hPa 0,0 mm 0,1 km/h (0 Bft) N-NE 33 1 min 0 min 0,279 mm 0,8 UV-I 300 W/m 12,4 C 27,6 C 1,8 km/h (1 Bft) 100,00 %
22/07/2018 18:59 27,7 C 40 % 1014,9 hPa 0,0 mm 0,5 km/h (0 Bft) N-NE 33 1 min 0 min 0,000 mm 0,8 UV-I 303 W/m 12,9 C 27,7 C 1,8 km/h (1 Bft) 100,00 %
22/07/2018 18:58 27,7 C 38 % 1015,0 hPa 0,0 mm 0,2 km/h (0 Bft) N-NE 33 1 min 0 min 0,000 mm 0,8 UV-I 307 W/m 12,1 C 27,7 C 1,8 km/h (1 Bft) 100,00 %
22/07/2018 18:57 27,8 C 39 % 1014,9 hPa 0,0 mm 0,9 km/h (0 Bft) N-NE 33 1 min 0 min 0,000 mm 0,8 UV-I 309 W/m 12,6 C 27,8 C 1,8 km/h (1 Bft) 100,00 %
22/07/2018 18:56 27,8 C 40 % 1015,0 hPa 0,0 mm 2,7 km/h (1 Bft) N-NE 33 1 min 0 min 0,000 mm 0,8 UV-I 314 W/m 12,9 C 27,8 C 5,3 km/h (1 Bft) 100,00 %
22/07/2018 18:55 27,8 C 40 % 1015,0 hPa 0,0 mm 2,1 km/h (1 Bft) N-NE 33 1 min 0 min 0,000 mm 0,8 UV-I 318 W/m 12,9 C 27,8 C 5,3 km/h (1 Bft) 100,00 %
22/07/2018 18:54 27,8 C 39 % 1015,0 hPa 0,0 mm 3,3 km/h (1 Bft) N-NE 33 1 min 0 min 0,000 mm 0,8 UV-I 323 W/m 12,6 C 27,8 C 3,5 km/h (1 Bft) 100,00 %
22/07/2018 18:53 27,8 C 39 % 1014,9 hPa 0,0 mm 3,0 km/h (1 Bft) N-NE 26 1 min 0 min 0,000 mm 0,8 UV-I 326 W/m 12,6 C 27,8 C 5,3 km/h (1 Bft) 100,00 %
22/07/2018 18:52 27,8 C 41 % 1014,9 hPa 0,0 mm 5,1 km/h (1 Bft) NE 46 1 min 0 min 0,000 mm 0,8 UV-I 329 W/m 13,3 C 27,8 C 7,1 km/h (2 Bft) 100,00 %
22/07/2018 18:51 27,8 C 40 % 1015,0 hPa 0,0 mm 4,5 km/h (1 Bft) N-NE 19 1 min 0 min 0,000 mm 0,9 UV-I 331 W/m 12,9 C 27,8 C 8,9 km/h (2 Bft) 100,00 %
22/07/2018 18:50 27,9 C 40 % 1014,9 hPa 0,0 mm 2,6 km/h (1 Bft) E 90 1 min 0 min 0,000 mm 0,9 UV-I 337 W/m 13,0 C 27,9 C 5,3 km/h (1 Bft) 100,00 %
22/07/2018 18:49 27,9 C 40 % 1015,0 hPa 0,0 mm 1,2 km/h (1 Bft) NO 323 1 min 0 min 0,000 mm 0,9 UV-I 341 W/m 13,0 C 27,9 C 3,5 km/h (1 Bft) 100,00 %
22/07/2018 18:48 27,9 C 44 % 1014,9 hPa 0,0 mm 2,5 km/h (1 Bft) NO 319 1 min 0 min 0,000 mm 0,9 UV-I 344 W/m 14,5 C 27,9 C 3,5 km/h (1 Bft) 100,00 %
22/07/2018 18:47 27,8 C 40 % 1015,0 hPa 0,0 mm 1,7 km/h (1 Bft) NE 34 1 min 0 min 0,000 mm 0,9 UV-I 347 W/m 12,9 C 27,8 C 3,5 km/h (1 Bft) 96,00 %
22/07/2018 18:46 27,8 C 41 % 1015,0 hPa 0,0 mm 0,7 km/h (0 Bft) NE 34 1 min 0 min 0,000 mm 0,9 UV-I 349 W/m 13,3 C 27,8 C 1,8 km/h (1 Bft) 100,00 %
22/07/2018 18:45 27,9 C 40 % 1015,0 hPa 0,0 mm 0,6 km/h (0 Bft) NE 48 2 min 0 min 0,000 mm 0,9 UV-I 352 W/m 13,0 C 27,9 C 1,8 km/h (1 Bft) 100,00 %
22/07/2018 18:43 27,9 C 40 % 1015,0 hPa 0,0 mm 2,5 km/h (1 Bft) NE 48 1 min 0 min 0,000 mm 0,9 UV-I 357 W/m 13,0 C 27,9 C 3,5 km/h (1 Bft) 100,00 %
22/07/2018 18:42 28,0 C 38 % 1015,0 hPa 0,0 mm 3,6 km/h (1 Bft) N-NE 29 1 min 0 min 0,000 mm 0,9 UV-I 358 W/m 12,3 C 28,0 C 5,3 km/h (1 Bft) 100,00 %
22/07/2018 18:41 28,1 C 40 % 1015,1 hPa 0,0 mm 3,7 km/h (1 Bft) N-NE 29 1 min 0 min 0,000 mm 1,0 UV-I 361 W/m 13,2 C 28,1 C 5,3 km/h (1 Bft) 100,00 %
22/07/2018 18:40 28,0 C 41 % 1015,1 hPa 0,0 mm 2,8 km/h (1 Bft) O-NO 300 1 min 0 min 0,000 mm 1,0 UV-I 363 W/m 13,5 C 28,0 C 3,5 km/h (1 Bft) 97,56 %
22/07/2018 18:39 27,9 C 40 % 1015,1 hPa 0,0 mm 1,3 km/h (1 Bft) O-NO 300 1 min 0 min 0,000 mm 1,0 UV-I 366 W/m 13,0 C 27,9 C 3,5 km/h (1 Bft) 100,00 %
22/07/2018 18:38 27,9 C 40 % 1015,1 hPa 0,0 mm 0,2 km/h (0 Bft) O-NO 300 1 min 0 min 0,000 mm 1,0 UV-I 367 W/m 13,0 C 27,9 C 1,8 km/h (1 Bft) 100,00 %
22/07/2018 18:37 27,8 C 39 % 1015,1 hPa 0,0 mm 3,4 km/h (1 Bft) O-NO 300 1 min 0 min 0,000 mm 1,0 UV-I 372 W/m 12,6 C 27,8 C 5,3 km/h (1 Bft) 96,77 %
22/07/2018 18:36 27,7 C 40 % 1015,1 hPa 0,0 mm 0,9 km/h (0 Bft) NO 304 1 min 0 min 0,000 mm 1,0 UV-I 375 W/m 12,9 C 27,7 C 1,8 km/h (1 Bft) 100,00 %
22/07/2018 18:35 27,7 C 42 % 1015,1 hPa 0,0 mm 3,6 km/h (1 Bft) NO 304 1 min 0 min 0,000 mm 1,0 UV-I 376 W/m 13,6 C 27,7 C 5,3 km/h (1 Bft) 100,00 %
22/07/2018 18:34 27,7 C 44 % 1015,0 hPa 0,0 mm 1,1 km/h (1 Bft) NO 306 1 min 0 min 0,000 mm 1,1 UV-I 365 W/m 14,3 C 27,7 C 5,3 km/h (1 Bft) 100,00 %
22/07/2018 18:33 27,8 C 41 % 1015,1 hPa 0,0 mm 0,6 km/h (0 Bft) S-SE 162 1 min 0 min 0,000 mm 1,1 UV-I 340 W/m 13,3 C 27,8 C 1,8 km/h (1 Bft) 100,00 %
22/07/2018 18:32 27,9 C 42 % 1015,1 hPa 0,0 mm 1,5 km/h (1 Bft) S-SE 162 1 min 0 min 0,000 mm 1,1 UV-I 277 W/m 13,8 C 27,9 C 1,8 km/h (1 Bft) 100,00 %
22/07/2018 18:31 27,9 C 42 % 1015,1 hPa 0,0 mm 0,7 km/h (0 Bft) S-SE 162 0 min 0 min 0,000 mm 1,0 UV-I 194 W/m 13,8 C 27,9 C 1,8 km/h (1 Bft) 91,67 %
22/07/2018 18:30 28,0 C 41 % 1015,1 hPa 0,0 mm 1,0 km/h (0 Bft) S-SE 162 0 min 0 min 0,000 mm 1,0 UV-I 190 W/m 13,5 C 28,0 C 3,5 km/h (1 Bft) 95,83 %
22/07/2018 18:29 28,0 C 40 % 1015,1 hPa 0,0 mm 0,5 km/h (0 Bft) E-SE 119 1 min 0 min 0,000 mm 0,9 UV-I 313 W/m 13,1 C 28,0 C 1,8 km/h (1 Bft) 95,65 %
22/07/2018 18:28 28,0 C 39 % 1015,1 hPa 0,0 mm 3,1 km/h (1 Bft) E-SE 119 1 min 0 min 0,000 mm 1,0 UV-I 333 W/m 12,7 C 28,0 C 5,3 km/h (1 Bft) 100,00 %
22/07/2018 18:27 27,9 C 41 % 1015,1 hPa 0,0 mm 4,7 km/h (1 Bft) S-SO 198 1 min 0 min 0,000 mm 1,0 UV-I 386 W/m 13,4 C 27,9 C 7,1 km/h (2 Bft) 95,83 %
22/07/2018 18:26 27,8 C 40 % 1015,2 hPa 0,0 mm 5,8 km/h (2 Bft) O-SO 247 1 min 0 min 0,000 mm 1,1 UV-I 407 W/m 12,9 C 27,8 C 8,9 km/h (2 Bft) 96,00 %
22/07/2018 18:25 27,7 C 40 % 1015,2 hPa 0,0 mm 4,4 km/h (1 Bft) SO 227 1 min 0 min 0,000 mm 1,2 UV-I 413 W/m 12,9 C 27,7 C 5,3 km/h (1 Bft) 100,00 %
22/07/2018 18:24 27,7 C 42 % 1015,2 hPa 0,0 mm 4,4 km/h (1 Bft) SO 225 1 min 0 min 0,000 mm 1,2 UV-I 416 W/m 13,6 C 27,7 C 7,1 km/h (2 Bft) 95,83 %
22/07/2018 18:23 27,7 C 42 % 1015,2 hPa 0,0 mm 6,0 km/h (2 Bft) SO 220 1 min 0 min 0,000 mm 1,2 UV-I 420 W/m 13,6 C 27,7 C 8,9 km/h (2 Bft) 100,00 %
22/07/2018 18:22 27,7 C 41 % 1015,2 hPa 0,0 mm 4,9 km/h (1 Bft) S-SO 192 1 min 0 min 0,000 mm 1,2 UV-I 408 W/m 13,2 C 27,7 C 8,9 km/h (2 Bft) 100,00 %
22/07/2018 18:21 27,7 C 40 % 1015,2 hPa 0,0 mm 7,2 km/h (2 Bft) S 181 1 min 0 min 0,000 mm 1,1 UV-I 368 W/m 12,9 C 27,6 C 10,6 km/h (2 Bft) 100,00 %
22/07/2018 18:20 27,7 C 41 % 1015,2 hPa 0,0 mm 8,1 km/h (2 Bft) SO 215 1 min 0 min 0,000 mm 1,1 UV-I 334 W/m 13,2 C 27,4 C 12,4 km/h (2 Bft) 100,00 %
22/07/2018 18:19 27,8 C 40 % 1015,2 hPa 0,0 mm 7,8 km/h (2 Bft) S 190 1 min 0 min 0,000 mm 1,1 UV-I 362 W/m 12,9 C 27,6 C 14,2 km/h (3 Bft) 100,00 %
22/07/2018 18:18 27,8 C 40 % 1015,2 hPa 0,0 mm 5,5 km/h (2 Bft) S 190 1 min 0 min 0,000 mm 1,1 UV-I 425 W/m 12,9 C 27,8 C 7,1 km/h (2 Bft) 96,00 %
22/07/2018 18:17 27,9 C 42 % 1015,2 hPa 0,0 mm 5,3 km/h (1 Bft) S-SO 197 1 min 0 min 0,000 mm 1,2 UV-I 430 W/m 13,8 C 27,9 C 8,9 km/h (2 Bft) 100,00 %
22/07/2018 18:16 27,9 C 40 % 1015,2 hPa 0,0 mm 6,5 km/h (2 Bft) S-SO 207 1 min 0 min 0,000 mm 1,3 UV-I 424 W/m 13,0 C 27,9 C 8,9 km/h (2 Bft) 100,00 %
22/07/2018 18:15 27,9 C 41 % 1015,2 hPa 0,0 mm 4,7 km/h (1 Bft) O 265 1 min 0 min 0,000 mm 1,3 UV-I 378 W/m 13,4 C 27,9 C 7,1 km/h (2 Bft) 96,55 %
22/07/2018 18:14 28,0 C 40 % 1015,2 hPa 0,0 mm 6,4 km/h (2 Bft) O-SO 238 1 min 0 min 0,000 mm 1,2 UV-I 293 W/m 13,1 C 28,0 C 8,9 km/h (2 Bft) 100,00 %
22/07/2018 18:13 28,0 C 39 % 1015,2 hPa 0,0 mm 2,8 km/h (1 Bft) O-SO 246 1 min 0 min 0,000 mm 1,1 UV-I 296 W/m 12,7 C 28,0 C 5,3 km/h (1 Bft) 100,00 %
22/07/2018 18:12 28,1 C 40 % 1015,2 hPa 0,0 mm 4,1 km/h (1 Bft) O 269 1 min 0 min 0,000 mm 1,2 UV-I 365 W/m 13,2 C 28,1 C 7,1 km/h (2 Bft) 100,00 %
22/07/2018 18:11 28,0 C 40 % 1015,2 hPa 0,0 mm 3,8 km/h (1 Bft) O 271 1 min 0 min 0,000 mm 1,2 UV-I 415 W/m 13,1 C 28,0 C 7,1 km/h (2 Bft) 100,00 %
22/07/2018 18:10 27,9 C 42 % 1015,3 hPa 0,0 mm 4,8 km/h (1 Bft) O-NO 289 1 min 0 min 0,000 mm 1,3 UV-I 439 W/m 13,8 C 27,9 C 10,6 km/h (2 Bft) 100,00 %
22/07/2018 18:09 27,9 C 42 % 1015,2 hPa 0,0 mm 7,1 km/h (2 Bft) NO 322 1 min 0 min 0,000 mm 1,4 UV-I 457 W/m 13,8 C 27,8 C 10,6 km/h (2 Bft) 100,00 %
22/07/2018 18:08 27,8 C 41 % 1015,2 hPa 0,0 mm 5,2 km/h (1 Bft) O-NO 299 1 min 0 min 0,000 mm 1,4 UV-I 451 W/m 13,3 C 27,8 C 7,1 km/h (2 Bft) 100,00 %
22/07/2018 18:07 27,8 C 41 % 1015,2 hPa 0,0 mm 2,5 km/h (1 Bft) O-SO 244 1 min 0 min 0,000 mm 1,3 UV-I 397 W/m 13,3 C 27,8 C 5,3 km/h (1 Bft) 100,00 %
22/07/2018 18:06 27,8 C 39 % 1015,2 hPa 0,0 mm 2,0 km/h (1 Bft) O-SO 240 1 min 0 min 0,000 mm 1,2 UV-I 380 W/m 12,6 C 27,8 C 3,5 km/h (1 Bft) 100,00 %
22/07/2018 18:05 27,8 C 41 % 1015,2 hPa 0,0 mm 1,6 km/h (1 Bft) O-SO 240 1 min 0 min 0,000 mm 1,2 UV-I 396 W/m 13,3 C 27,8 C 3,5 km/h (1 Bft) 100,00 %
22/07/2018 18:04 27,8 C 40 % 1015,2 hPa 0,0 mm 3,9 km/h (1 Bft) O-SO 239 1 min 0 min 0,000 mm 1,2 UV-I 448 W/m 12,9 C 27,8 C 7,1 km/h (2 Bft) 100,00 %
22/07/2018 18:03 27,8 C 40 % 1015,2 hPa 0,0 mm 2,6 km/h (1 Bft) O-SO 244 1 min 0 min 0,000 mm 1,3 UV-I 326 W/m 12,9 C 27,8 C 5,3 km/h (1 Bft) 95,83 %
22/07/2018 18:02 27,8 C 40 % 1015,3 hPa 0,0 mm 5,0 km/h (1 Bft) O-SO 247 0 min 0 min 0,000 mm 1,3 UV-I 286 W/m 12,9 C 27,8 C 8,9 km/h (2 Bft) 96,43 %
22/07/2018 18:01 27,8 C 43 % 1015,2 hPa 0,0 mm 9,6 km/h (2 Bft) O-SO 244 0 min 0 min 0,000 mm 1,3 UV-I 259 W/m 14,1 C 27,3 C 14,2 km/h (3 Bft) 100,00 %
22/07/2018 18:00 27,8 C 42 % 1015,3 hPa 0,0 mm 6,7 km/h (2 Bft) SO 234 1 min 0 min 0,381 mm 1,5 UV-I 374 W/m 13,7 C 27,8 C 8,9 km/h (2 Bft) 93,55 %
22/07/2018 17:59 27,7 C 40 % 1015,3 hPa 0,0 mm 6,4 km/h (2 Bft) O-SO 254 1 min 0 min 0,000 mm 1,6 UV-I 492 W/m 12,9 C 27,7 C 12,4 km/h (2 Bft) 100,00 %
22/07/2018 17:58 27,6 C 40 % 1015,3 hPa 0,0 mm 4,6 km/h (1 Bft) O-SO 246 1 min 0 min 0,000 mm 1,6 UV-I 493 W/m 12,8 C 27,6 C 7,1 km/h (2 Bft) 100,00 %
22/07/2018 17:57 27,6 C 43 % 1015,3 hPa 0,0 mm 0,8 km/h (0 Bft) SO 236 1 min 0 min 0,000 mm 1,6 UV-I 496 W/m 13,9 C 27,6 C 3,5 km/h (1 Bft) 100,00 %
22/07/2018 17:56 27,6 C 42 % 1015,2 hPa 0,0 mm 2,9 km/h (1 Bft) O-SO 237 1 min 0 min 0,000 mm 1,6 UV-I 497 W/m 13,5 C 27,6 C 5,3 km/h (1 Bft) 97,37 %
22/07/2018 17:55 27,5 C 41 % 1015,2 hPa 0,0 mm 1,9 km/h (1 Bft) NO 313 1 min 0 min 0,000 mm 1,6 UV-I 502 W/m 13,1 C 27,5 C 3,5 km/h (1 Bft) 93,33 %
22/07/2018 17:54 27,4 C 39 % 1015,3 hPa 0,0 mm 1,5 km/h (1 Bft) NO 314 1 min 0 min 0,000 mm 1,6 UV-I 505 W/m 12,2 C 27,4 C 3,5 km/h (1 Bft) 96,43 %
22/07/2018 17:53 27,4 C 43 % 1015,3 hPa 0,0 mm 1,1 km/h (1 Bft) NO 314 1 min 0 min 0,000 mm 1,6 UV-I 499 W/m 13,7 C 27,4 C 3,5 km/h (1 Bft) 100,00 %
22/07/2018 17:52 27,4 C 43 % 1015,3 hPa 0,0 mm 1,5 km/h (1 Bft) NO 314 1 min 0 min 0,000 mm 1,6 UV-I 502 W/m 13,7 C 27,4 C 3,5 km/h (1 Bft) 100,00 %
22/07/2018 17:51 27,4 C 41 % 1015,3 hPa 0,0 mm 2,8 km/h (1 Bft) N 355 0 min 0 min 0,000 mm 1,6 UV-I 238 W/m 13,0 C 27,4 C 7,1 km/h (2 Bft) 96,30 %
22/07/2018 17:50 27,4 C 41 % 1015,3 hPa 0,0 mm 2,5 km/h (1 Bft) N-NO 331 0 min 0 min 0,000 mm 1,3 UV-I 226 W/m 13,0 C 27,4 C 3,5 km/h (1 Bft) 96,00 %
22/07/2018 17:49 27,6 C 40 % 1015,3 hPa 0,0 mm 3,5 km/h (1 Bft) N-NE 28 1 min 0 min 0,000 mm 1,3 UV-I 519 W/m 12,8 C 27,6 C 5,3 km/h (1 Bft) 100,00 %
22/07/2018 17:48 27,6 C 39 % 1015,3 hPa 0,0 mm 3,1 km/h (1 Bft) N-NE 22 1 min 0 min 0,000 mm 1,3 UV-I 519 W/m 12,4 C 27,6 C 5,3 km/h (1 Bft) 96,15 %
22/07/2018 17:47 27,7 C 40 % 1015,3 hPa 0,0 mm 3,6 km/h (1 Bft) N-NE 22 2 min 0 min 0,000 mm 1,7 UV-I 519 W/m 12,9 C 27,7 C 5,3 km/h (1 Bft) 94,44 %
22/07/2018 17:45 27,8 C 45 % 1015,3 hPa 0,0 mm 3,8 km/h (1 Bft) N-NE 22 1 min 0 min 0,000 mm 1,7 UV-I 525 W/m 14,8 C 27,8 C 5,3 km/h (1 Bft) 96,00 %
22/07/2018 17:44 27,7 C 42 % 1015,3 hPa 0,0 mm 3,9 km/h (1 Bft) NO 319 1 min 0 min 0,000 mm 1,8 UV-I 529 W/m 13,6 C 27,7 C 7,1 km/h (2 Bft) 95,65 %
22/07/2018 17:43 27,6 C 44 % 1015,3 hPa 0,0 mm 1,3 km/h (1 Bft) O-NO 301 1 min 0 min 0,000 mm 1,8 UV-I 542 W/m 14,2 C 27,6 C 7,1 km/h (2 Bft) 100,00 %
22/07/2018 17:42 27,5 C 40 % 1015,4 hPa 0,0 mm 1,1 km/h (1 Bft) O-SO 248 1 min 0 min 0,000 mm 1,8 UV-I 542 W/m 12,7 C 27,5 C 3,5 km/h (1 Bft) 95,83 %
22/07/2018 17:41 27,4 C 43 % 1015,4 hPa 0,0 mm 1,0 km/h (0 Bft) O-SO 248 1 min 0 min 0,000 mm 1,8 UV-I 536 W/m 13,7 C 27,4 C 3,5 km/h (1 Bft) 95,83 %
22/07/2018 17:40 27,4 C 40 % 1015,3 hPa 0,0 mm 1,8 km/h (1 Bft) O-SO 247 1 min 0 min 0,000 mm 1,8 UV-I 538 W/m 12,6 C 27,4 C 3,5 km/h (1 Bft) 100,00 %
22/07/2018 17:39 27,4 C 40 % 1015,3 hPa 0,0 mm 0,2 km/h (0 Bft) O 266 1 min 0 min 0,000 mm 1,4 UV-I 483 W/m 12,6 C 27,4 C 1,8 km/h (1 Bft) 95,65 %
22/07/2018 17:38 27,5 C 40 % 1015,3 hPa 0,0 mm 0,3 km/h (0 Bft) O 273 1 min 0 min 0,000 mm 1,5 UV-I 475 W/m 12,7 C 27,5 C 1,8 km/h (1 Bft) 100,00 %
22/07/2018 17:37 27,5 C 42 % 1015,3 hPa 0,0 mm 1,8 km/h (1 Bft) O 273 1 min 0 min 0,000 mm 1,8 UV-I 498 W/m 13,4 C 27,5 C 3,5 km/h (1 Bft) 95,83 %
22/07/2018 17:36 27,4 C 42 % 1015,3 hPa 0,0 mm 1,3 km/h (1 Bft) O 273 0 min 0 min 0,000 mm 1,9 UV-I 306 W/m 13,3 C 27,4 C 3,5 km/h (1 Bft) 93,10 %
22/07/2018 17:35 27,4 C 43 % 1015,3 hPa 0,0 mm 2,6 km/h (1 Bft) O 273 0 min 0 min 0,000 mm 1,9 UV-I 109 W/m 13,7 C 27,4 C 5,3 km/h (1 Bft) 100,00 %
22/07/2018 17:34 27,5 C 43 % 1015,4 hPa 0,0 mm 1,4 km/h (1 Bft) O 273 0 min 0 min 0,000 mm 1,6 UV-I 109 W/m 13,8 C 27,5 C 3,5 km/h (1 Bft) 96,77 %
22/07/2018 17:33 27,7 C 42 % 1015,3 hPa 0,0 mm 3,0 km/h (1 Bft) O 273 0 min 0 min 0,000 mm 1,4 UV-I 105 W/m 13,6 C 27,7 C 3,5 km/h (1 Bft) 100,00 %
22/07/2018 17:32 27,8 C 43 % 1015,3 hPa 0,0 mm 3,2 km/h (1 Bft) O 266 0 min 0 min 0,000 mm 1,4 UV-I 108 W/m 14,1 C 27,8 C 5,3 km/h (1 Bft) 95,83 %
22/07/2018 17:31 27,9 C 40 % 1015,3 hPa 0,0 mm 3,5 km/h (1 Bft) O 263 0 min 0 min 0,000 mm 1,5 UV-I 252 W/m 13,0 C 27,9 C 5,3 km/h (1 Bft) 100,00 %
22/07/2018 17:30 27,9 C 39 % 1015,3 hPa 0,0 mm 3,5 km/h (1 Bft) O-NO 300 1 min 0 min 0,000 mm 1,8 UV-I 513 W/m 12,6 C 27,9 C 5,3 km/h (1 Bft) 91,67 %
22/07/2018 17:29 27,9 C 38 % 1015,3 hPa 0,0 mm 0,1 km/h (0 Bft) N 355 1 min 0 min 0,000 mm 2,0 UV-I 553 W/m 12,2 C 27,9 C 1,8 km/h (1 Bft) 95,65 %
22/07/2018 17:28 27,9 C 40 % 1015,4 hPa 0,0 mm 1,8 km/h (1 Bft) N 355 1 min 0 min 0,000 mm 2,0 UV-I 542 W/m 13,0 C 27,9 C 3,5 km/h (1 Bft) 96,30 %
22/07/2018 17:27 28,0 C 39 % 1015,3 hPa 0,0 mm 2,7 km/h (1 Bft) N 355 1 min 0 min 0,000 mm 2,0 UV-I 553 W/m 12,7 C 28,0 C 3,5 km/h (1 Bft) 95,65 %
22/07/2018 17:26 28,1 C 38 % 1015,4 hPa 0,0 mm 4,7 km/h (1 Bft) E-NE 69 1 min 0 min 0,000 mm 2,1 UV-I 571 W/m 12,4 C 28,1 C 7,1 km/h (2 Bft) 95,83 %
22/07/2018 17:25 28,1 C 38 % 1015,3 hPa 0,0 mm 4,6 km/h (1 Bft) NE 41 1 min 0 min 0,000 mm 2,2 UV-I 580 W/m 12,4 C 28,1 C 5,3 km/h (1 Bft) 91,30 %
22/07/2018 17:24 28,2 C 39 % 1015,4 hPa 0,0 mm 3,8 km/h (1 Bft) NE 38 1 min 0 min 0,000 mm 2,2 UV-I 604 W/m 12,9 C 28,2 C 5,3 km/h (1 Bft) 100,00 %
22/07/2018 17:23 28,2 C 38 % 1015,4 hPa 0,0 mm 2,1 km/h (1 Bft) NE 40 1 min 0 min 0,000 mm 2,2 UV-I 611 W/m 12,5 C 28,2 C 3,5 km/h (1 Bft) 95,83 %
22/07/2018 17:22 28,2 C 39 % 1015,4 hPa 0,0 mm 0,3 km/h (0 Bft) O-NO 288 1 min 0 min 0,000 mm 2,2 UV-I 623 W/m 12,9 C 28,2 C 1,8 km/h (1 Bft) 100,00 %
22/07/2018 17:21 28,3 C 40 % 1015,4 hPa 0,0 mm 0,1 km/h (0 Bft) O-NO 288 1 min 0 min 0,000 mm 2,3 UV-I 635 W/m 13,4 C 28,3 C 1,8 km/h (1 Bft) 92,00 %
22/07/2018 17:20 28,3 C 40 % 1015,4 hPa 0,0 mm 0,5 km/h (0 Bft) O-NO 288 1 min 0 min 0,000 mm 2,3 UV-I 635 W/m 13,4 C 28,3 C 1,8 km/h (1 Bft) 100,00 %
22/07/2018 17:19 28,4 C 40 % 1015,4 hPa 0,0 mm 1,1 km/h (1 Bft) O-NO 288 1 min 0 min 0,000 mm 2,3 UV-I 637 W/m 13,5 C 28,4 C 3,5 km/h (1 Bft) 96,00 %
22/07/2018 17:18 28,4 C 40 % 1015,4 hPa 0,0 mm 2,6 km/h (1 Bft) O-NO 288 1 min 0 min 0,000 mm 2,3 UV-I 644 W/m 13,5 C 28,4 C 3,5 km/h (1 Bft) 94,44 %
22/07/2018 17:17 28,5 C 38 % 1015,5 hPa 0,0 mm 2,4 km/h (1 Bft) O-NO 288 1 min 0 min 0,000 mm 2,3 UV-I 649 W/m 12,8 C 28,5 C 5,3 km/h (1 Bft) 92,59 %
22/07/2018 17:16 28,6 C 40 % 1015,5 hPa 0,0 mm 1,8 km/h (1 Bft) O-NO 288 1 min 0 min 0,000 mm 2,3 UV-I 650 W/m 13,7 C 28,6 C 3,5 km/h (1 Bft) 96,43 %
22/07/2018 17:15 28,6 C 42 % 1015,5 hPa 0,0 mm 2,8 km/h (1 Bft) N 355 1 min 0 min 0,000 mm 2,3 UV-I 651 W/m 14,4 C 28,6 C 5,3 km/h (1 Bft) 100,00 %
22/07/2018 17:14 28,6 C 44 % 1015,5 hPa 0,0 mm 1,8 km/h (1 Bft) N 5 1 min 0 min 0,000 mm 2,4 UV-I 655 W/m 15,1 C 28,6 C 3,5 km/h (1 Bft) 96,30 %
22/07/2018 17:13 28,6 C 40 % 1015,5 hPa 0,0 mm 1,8 km/h (1 Bft) N-NE 31 1 min 0 min 0,000 mm 2,4 UV-I 660 W/m 13,7 C 28,6 C 5,3 km/h (1 Bft) 100,00 %
22/07/2018 17:12 28,7 C 39 % 1015,5 hPa 0,0 mm 6,7 km/h (2 Bft) N 360 1 min 0 min 0,000 mm 2,4 UV-I 663 W/m 13,4 C 28,7 C 8,9 km/h (2 Bft) 96,55 %
22/07/2018 17:11 28,7 C 40 % 1015,5 hPa 0,0 mm 4,7 km/h (1 Bft) N 5 2 min 0 min 0,000 mm 2,5 UV-I 667 W/m 13,7 C 28,7 C 10,6 km/h (2 Bft) 97,67 %
22/07/2018 17:09 28,7 C 38 % 1015,5 hPa 0,0 mm 3,3 km/h (1 Bft) O 261 1 min 0 min 0,000 mm 2,5 UV-I 668 W/m 13,0 C 28,7 C 5,3 km/h (1 Bft) 95,83 %
22/07/2018 17:08 28,7 C 40 % 1015,5 hPa 0,0 mm 6,7 km/h (2 Bft) O 264 1 min 0 min 0,000 mm 2,5 UV-I 665 W/m 13,7 C 28,7 C 8,9 km/h (2 Bft) 96,55 %
22/07/2018 17:07 28,6 C 42 % 1015,5 hPa 0,0 mm 3,3 km/h (1 Bft) NO 315 1 min 0 min 0,000 mm 2,5 UV-I 664 W/m 14,4 C 28,6 C 8,9 km/h (2 Bft) 91,67 %
22/07/2018 17:06 28,6 C 40 % 1015,5 hPa 0,0 mm 3,7 km/h (1 Bft) O-SO 254 1 min 0 min 0,000 mm 2,5 UV-I 664 W/m 13,7 C 28,6 C 7,1 km/h (2 Bft) 100,00 %
22/07/2018 17:05 28,4 C 41 % 1015,5 hPa 0,0 mm 7,3 km/h (2 Bft) O-SO 251 1 min 0 min 0,000 mm 2,5 UV-I 668 W/m 13,9 C 28,3 C 14,2 km/h (3 Bft) 100,00 %
22/07/2018 17:04 28,4 C 40 % 1015,5 hPa 0,0 mm 1,6 km/h (1 Bft) O-SO 249 1 min 0 min 0,000 mm 2,6 UV-I 671 W/m 13,5 C 28,4 C 5,3 km/h (1 Bft) 100,00 %
22/07/2018 17:03 28,4 C 40 % 1015,5 hPa 0,0 mm 3,9 km/h (1 Bft) NE 40 1 min 0 min 0,000 mm 2,6 UV-I 666 W/m 13,5 C 28,4 C 8,9 km/h (2 Bft) 95,83 %
22/07/2018 17:02 28,4 C 43 % 1015,5 hPa 0,0 mm 5,5 km/h (2 Bft) N-NO 327 1 min 0 min 0,000 mm 2,5 UV-I 670 W/m 14,6 C 28,4 C 10,6 km/h (2 Bft) 100,00 %
22/07/2018 17:01 28,4 C 41 % 1015,5 hPa 0,0 mm 2,8 km/h (1 Bft) O 280 1 min 0 min 0,000 mm 2,6 UV-I 675 W/m 13,9 C 28,4 C 7,1 km/h (2 Bft) 95,65 %
22/07/2018 17:00 28,4 C 43 % 1015,5 hPa 0,0 mm 8,5 km/h (2 Bft) O 272 1 min 0 min 0,508 mm 2,6 UV-I 678 W/m 14,6 C 28,1 C 14,2 km/h (3 Bft) 100,00 %
22/07/2018 16:59 28,3 C 44 % 1015,5 hPa 0,0 mm 4,4 km/h (1 Bft) NO 311 1 min 0 min 0,000 mm 2,7 UV-I 683 W/m 14,9 C 28,3 C 7,1 km/h (2 Bft) 100,00 %
22/07/2018 16:58 28,3 C 45 % 1015,5 hPa 0,0 mm 5,0 km/h (1 Bft) N-NO 343 2 min 0 min 0,000 mm 2,7 UV-I 685 W/m 15,2 C 28,3 C 21,2 km/h (4 Bft) 100,00 %
22/07/2018 16:56 28,2 C 42 % 1015,6 hPa 0,0 mm 5,4 km/h (2 Bft) O-SO 246 2 min 0 min 0,000 mm 2,7 UV-I 694 W/m 14,0 C 28,2 C 7,1 km/h (2 Bft) 100,00 %
22/07/2018 16:54 28,1 C 42 % 1015,5 hPa 0,0 mm 8,7 km/h (2 Bft) SO 233 1 min 0 min 0,000 mm 2,7 UV-I 698 W/m 14,0 C 27,8 C 14,2 km/h (3 Bft) 100,00 %
22/07/2018 16:53 28,1 C 44 % 1015,6 hPa 0,0 mm 2,2 km/h (1 Bft) O-SO 244 2 min 0 min 0,000 mm 2,8 UV-I 707 W/m 14,7 C 28,1 C 5,3 km/h (1 Bft) 100,00 %
22/07/2018 16:51 28,2 C 41 % 1015,5 hPa 0,0 mm 5,0 km/h (1 Bft) SE 143 1 min 0 min 0,000 mm 2,6 UV-I 714 W/m 13,7 C 28,2 C 7,1 km/h (2 Bft) 96,00 %
22/07/2018 16:50 28,2 C 40 % 1015,6 hPa 0,0 mm 1,8 km/h (1 Bft) S 178 2 min 0 min 0,000 mm 2,7 UV-I 714 W/m 13,3 C 28,2 C 3,5 km/h (1 Bft) 100,00 %
22/07/2018 16:48 28,4 C 42 % 1015,5 hPa 0,0 mm 1,7 km/h (1 Bft) S 178 1 min 0 min 0,000 mm 2,9 UV-I 727 W/m 14,2 C 28,4 C 3,5 km/h (1 Bft) 100,00 %
22/07/2018 16:47 28,4 C 40 % 1015,6 hPa 0,0 mm 2,2 km/h (1 Bft) S 188 1 min 0 min 0,000 mm 3,0 UV-I 733 W/m 13,5 C 28,4 C 3,5 km/h (1 Bft) 100,00 %
22/07/2018 16:46 28,4 C 41 % 1015,6 hPa 0,0 mm 2,5 km/h (1 Bft) S 188 1 min 0 min 0,000 mm 3,0 UV-I 732 W/m 13,9 C 28,4 C 3,5 km/h (1 Bft) 100,00 %
22/07/2018 16:45 28,6 C 39 % 1015,6 hPa 0,0 mm 3,4 km/h (1 Bft) O-SO 245 1 min 0 min 0,000 mm 3,0 UV-I 733 W/m 13,3 C 28,6 C 5,3 km/h (1 Bft) 100,00 %
22/07/2018 16:44 28,6 C 39 % 1015,6 hPa 0,0 mm 5,4 km/h (2 Bft) O-SO 258 1 min 0 min 0,000 mm 3,0 UV-I 722 W/m 13,3 C 28,6 C 8,9 km/h (2 Bft) 100,00 %
22/07/2018 16:43 28,5 C 41 % 1015,6 hPa 0,0 mm 7,8 km/h (2 Bft) O-SO 257 1 min 0 min 0,000 mm 3,0 UV-I 719 W/m 13,9 C 28,3 C 12,4 km/h (2 Bft) 100,00 %
22/07/2018 16:42 28,4 C 43 % 1015,6 hPa 0,0 mm 7,5 km/h (2 Bft) O-SO 252 2 min 0 min 0,000 mm 3,1 UV-I 726 W/m 14,6 C 28,2 C 12,4 km/h (2 Bft) 100,00 %
22/07/2018 16:40 28,2 C 42 % 1015,6 hPa 0,0 mm 4,1 km/h (1 Bft) O-SO 252 1 min 0 min 0,000 mm 3,1 UV-I 727 W/m 14,0 C 28,2 C 5,3 km/h (1 Bft) 100,00 %
22/07/2018 16:39 28,3 C 39 % 1015,5 hPa 0,0 mm 3,1 km/h (1 Bft) O-SO 252 1 min 0 min 0,000 mm 3,1 UV-I 719 W/m 13,0 C 28,3 C 5,3 km/h (1 Bft) 100,00 %
22/07/2018 16:38 28,3 C 38 % 1015,6 hPa 0,0 mm 0,4 km/h (0 Bft) O-SO 258 1 min 0 min 0,000 mm 3,1 UV-I 710 W/m 12,6 C 28,3 C 3,5 km/h (1 Bft) 100,00 %
22/07/2018 16:37 28,4 C 40 % 1015,6 hPa 0,0 mm 3,5 km/h (1 Bft) O-SO 258 1 min 0 min 0,000 mm 3,1 UV-I 708 W/m 13,5 C 28,4 C 5,3 km/h (1 Bft) 100,00 %
22/07/2018 16:36 28,4 C 43 % 1015,6 hPa 0,0 mm 5,1 km/h (1 Bft) O-SO 257 1 min 0 min 0,000 mm 3,1 UV-I 705 W/m 14,6 C 28,4 C 7,1 km/h (2 Bft) 100,00 %
22/07/2018 16:35 28,4 C 42 % 1015,6 hPa 0,0 mm 6,0 km/h (2 Bft) O-SO 254 1 min 0 min 0,000 mm 3,1 UV-I 705 W/m 14,2 C 28,4 C 10,6 km/h (2 Bft) 100,00 %
22/07/2018 16:34 28,3 C 41 % 1015,6 hPa 0,0 mm 6,5 km/h (2 Bft) O 276 2 min 0 min 0,000 mm 3,2 UV-I 709 W/m 13,8 C 28,3 C 8,9 km/h (2 Bft) 100,00 %
22/07/2018 16:32 28,2 C 42 % 1015,6 hPa 0,0 mm 8,7 km/h (2 Bft) O-SO 244 1 min 0 min 0,000 mm 3,2 UV-I 712 W/m 14,0 C 27,9 C 12,4 km/h (2 Bft) 100,00 %
22/07/2018 16:31 28,2 C 40 % 1015,6 hPa 0,0 mm 6,0 km/h (2 Bft) O 273 1 min 0 min 0,000 mm 3,2 UV-I 711 W/m 13,3 C 28,2 C 10,6 km/h (2 Bft) 100,00 %
22/07/2018 16:30 28,1 C 43 % 1015,6 hPa 0,0 mm 6,6 km/h (2 Bft) O 276 1 min 0 min 0,000 mm 3,2 UV-I 710 W/m 14,3 C 28,1 C 10,6 km/h (2 Bft) 100,00 %
22/07/2018 16:29 27,9 C 45 % 1015,6 hPa 0,0 mm 3,8 km/h (1 Bft) O 273 1 min 0 min 0,000 mm 3,2 UV-I 708 W/m 14,8 C 27,9 C 7,1 km/h (2 Bft) 100,00 %
22/07/2018 16:28 27,9 C 41 % 1015,7 hPa 0,0 mm 4,2 km/h (1 Bft) O-SO 244 1 min 0 min 0,000 mm 3,2 UV-I 707 W/m 13,4 C 27,9 C 8,9 km/h (2 Bft) 100,00 %
22/07/2018 16:27 27,9 C 45 % 1015,6 hPa 0,0 mm 1,2 km/h (1 Bft) NO 309 1 min 0 min 0,000 mm 3,2 UV-I 708 W/m 14,8 C 27,9 C 3,5 km/h (1 Bft) 100,00 %
22/07/2018 16:26 27,8 C 42 % 1015,7 hPa 0,0 mm 0,7 km/h (0 Bft) N 9 1 min 0 min 0,000 mm 3,3 UV-I 710 W/m 13,7 C 27,8 C 1,8 km/h (1 Bft) 100,00 %
22/07/2018 16:25 27,7 C 43 % 1015,6 hPa 0,0 mm 3,0 km/h (1 Bft) N 9 1 min 0 min 0,000 mm 3,3 UV-I 714 W/m 14,0 C 27,7 C 3,5 km/h (1 Bft) 100,00 %
22/07/2018 16:24 27,7 C 42 % 1015,7 hPa 0,0 mm 5,2 km/h (1 Bft) N 9 1 min 0 min 0,000 mm 3,3 UV-I 715 W/m 13,6 C 27,7 C 7,1 km/h (2 Bft) 100,00 %
22/07/2018 16:23 27,7 C 41 % 1015,7 hPa 0,0 mm 1,6 km/h (1 Bft) NE 37 1 min 0 min 0,000 mm 3,3 UV-I 720 W/m 13,2 C 27,7 C 7,1 km/h (2 Bft) 95,83 %
22/07/2018 16:22 27,8 C 41 % 1015,7 hPa 0,0 mm 3,4 km/h (1 Bft) E 86 1 min 0 min 0,000 mm 3,3 UV-I 724 W/m 13,3 C 27,8 C 5,3 km/h (1 Bft) 100,00 %
22/07/2018 16:21 27,8 C 41 % 1015,7 hPa 0,0 mm 5,8 km/h (2 Bft) E 89 1 min 0 min 0,000 mm 3,3 UV-I 723 W/m 13,3 C 27,8 C 8,9 km/h (2 Bft) 95,83 %
22/07/2018 16:20 27,9 C 41 % 1015,7 hPa 0,0 mm 5,2 km/h (1 Bft) NE 49 1 min 0 min 0,000 mm 3,4 UV-I 726 W/m 13,4 C 27,9 C 7,1 km/h (2 Bft) 100,00 %
22/07/2018 16:19 28,0 C 41 % 1015,6 hPa 0,0 mm 5,8 km/h (2 Bft) NE 55 1 min 0 min 0,000 mm 3,4 UV-I 728 W/m 13,5 C 28,0 C 7,1 km/h (2 Bft) 100,00 %
22/07/2018 16:18 28,1 C 40 % 1015,7 hPa 0,0 mm 6,9 km/h (2 Bft) N-NE 13 1 min 0 min 0,000 mm 3,4 UV-I 733 W/m 13,2 C 28,0 C 14,2 km/h (3 Bft) 100,00 %
22/07/2018 16:17 28,1 C 41 % 1015,7 hPa 0,0 mm 9,9 km/h (2 Bft) N 9 2 min 0 min 0,000 mm 3,4 UV-I 737 W/m 13,6 C 27,6 C 17,7 km/h (3 Bft) 100,00 %
22/07/2018 16:15 28,0 C 43 % 1015,6 hPa 0,0 mm 3,8 km/h (1 Bft) N-NE 13 1 min 0 min 0,000 mm 3,5 UV-I 743 W/m 14,2 C 28,0 C 7,1 km/h (2 Bft) 100,00 %
22/07/2018 16:14 28,1 C 44 % 1015,7 hPa 0,0 mm 5,4 km/h (2 Bft) N-NO 327 2 min 0 min 0,000 mm 3,5 UV-I 749 W/m 14,7 C 28,1 C 8,9 km/h (2 Bft) 98,18 %
22/07/2018 16:12 28,1 C 42 % 1015,7 hPa 0,0 mm 4,1 km/h (1 Bft) N 11 1 min 0 min 0,000 mm 3,5 UV-I 666 W/m 14,0 C 28,1 C 7,1 km/h (2 Bft) 100,00 %
22/07/2018 16:11 28,2 C 42 % 1015,7 hPa 0,0 mm 8,4 km/h (2 Bft) O 276 1 min 0 min 0,000 mm 3,2 UV-I 641 W/m 14,0 C 27,9 C 14,2 km/h (3 Bft) 100,00 %
22/07/2018 16:10 28,2 C 41 % 1015,8 hPa 0,0 mm 7,1 km/h (2 Bft) N-NE 23 1 min 0 min 0,000 mm 3,4 UV-I 709 W/m 13,7 C 28,1 C 8,9 km/h (2 Bft) 95,83 %
22/07/2018 16:09 28,2 C 45 % 1015,7 hPa 0,0 mm 7,7 km/h (2 Bft) N-NE 13 1 min 0 min 0,000 mm 3,5 UV-I 730 W/m 15,1 C 28,0 C 14,2 km/h (3 Bft) 96,15 %
22/07/2018 16:08 28,2 C 44 % 1015,7 hPa 0,0 mm 5,4 km/h (2 Bft) N 350 1 min 0 min 0,000 mm 3,6 UV-I 750 W/m 14,8 C 28,2 C 8,9 km/h (2 Bft) 95,83 %
22/07/2018 16:07 28,1 C 42 % 1015,7 hPa 0,0 mm 2,8 km/h (1 Bft) N-NO 335 2 min 0 min 0,000 mm 3,6 UV-I 751 W/m 14,0 C 28,1 C 7,1 km/h (2 Bft) 100,00 %
22/07/2018 16:05 28,0 C 41 % 1015,7 hPa 0,0 mm 1,7 km/h (1 Bft) NO 306 1 min 0 min 0,000 mm 3,7 UV-I 747 W/m 13,5 C 28,0 C 3,5 km/h (1 Bft) 100,00 %
22/07/2018 16:04 28,0 C 45 % 1015,8 hPa 0,0 mm 4,5 km/h (1 Bft) N 360 1 min 0 min 0,000 mm 3,7 UV-I 744 W/m 14,9 C 28,0 C 7,1 km/h (2 Bft) 100,00 %
22/07/2018 16:03 27,8 C 44 % 1015,8 hPa 0,0 mm 4,1 km/h (1 Bft) N-NE 23 1 min 0 min 0,000 mm 3,7 UV-I 742 W/m 14,4 C 27,8 C 7,1 km/h (2 Bft) 100,00 %
22/07/2018 16:02 27,7 C 41 % 1015,7 hPa 0,0 mm 2,1 km/h (1 Bft) N 5 1 min 0 min 0,000 mm 3,7 UV-I 740 W/m 13,2 C 27,7 C 5,3 km/h (1 Bft) 100,00 %
22/07/2018 16:01 27,7 C 43 % 1015,7 hPa 0,0 mm 0,5 km/h (0 Bft) N-NE 30 2 min 0 min 0,533 mm 3,7 UV-I 730 W/m 14,0 C 27,7 C 3,5 km/h (1 Bft) 97,96 %
22/07/2018 15:59 27,8 C 41 % 1015,7 hPa 0,0 mm 2,4 km/h (1 Bft) N-NE 30 1 min 0 min 0,000 mm 3,8 UV-I 721 W/m 13,3 C 27,8 C 3,5 km/h (1 Bft) 93,33 %
22/07/2018 15:58 27,8 C 43 % 1015,7 hPa 0,0 mm 1,3 km/h (1 Bft) N-NE 31 1 min 0 min 0,000 mm 3,8 UV-I 715 W/m 14,1 C 27,8 C 3,5 km/h (1 Bft) 100,00 %
22/07/2018 15:57 27,8 C 40 % 1015,7 hPa 0,0 mm 4,3 km/h (1 Bft) E 86 1 min 0 min 0,000 mm 3,9 UV-I 710 W/m 12,9 C 27,8 C 10,6 km/h (2 Bft) 100,00 %
22/07/2018 15:56 27,9 C 40 % 1015,7 hPa 0,0 mm 4,1 km/h (1 Bft) E-SE 110 1 min 0 min 0,000 mm 3,9 UV-I 702 W/m 13,0 C 27,9 C 5,3 km/h (1 Bft) 95,65 %
22/07/2018 15:55 27,9 C 42 % 1015,7 hPa 0,0 mm 6,1 km/h (2 Bft) E-NE 59 1 min 0 min 0,000 mm 3,9 UV-I 695 W/m 13,8 C 27,9 C 10,6 km/h (2 Bft) 100,00 %
22/07/2018 15:54 27,9 C 43 % 1015,7 hPa 0,0 mm 2,3 km/h (1 Bft) E-NE 61 1 min 0 min 0,000 mm 3,9 UV-I 687 W/m 14,1 C 27,9 C 5,3 km/h (1 Bft) 100,00 %
22/07/2018 15:53 27,7 C 45 % 1015,7 hPa 0,0 mm 0,2 km/h (0 Bft) N-NO 327 1 min 0 min 0,000 mm 3,9 UV-I 678 W/m 14,7 C 27,7 C 1,8 km/h (1 Bft) 95,83 %
22/07/2018 15:52 27,6 C 42 % 1015,7 hPa 0,0 mm 0,3 km/h (0 Bft) N-NO 327 1 min 0 min 0,000 mm 3,9 UV-I 673 W/m 13,5 C 27,6 C 1,8 km/h (1 Bft) 100,00 %
22/07/2018 15:51 27,6 C 45 % 1015,6 hPa 0,0 mm 1,1 km/h (1 Bft) N-NO 329 1 min 0 min 0,000 mm 3,9 UV-I 666 W/m 14,6 C 27,6 C 3,5 km/h (1 Bft) 96,15 %
22/07/2018 15:50 27,5 C 40 % 1015,7 hPa 0,0 mm 2,1 km/h (1 Bft) N 5 1 min 0 min 0,000 mm 3,9 UV-I 660 W/m 12,7 C 27,5 C 5,3 km/h (1 Bft) 100,00 %
22/07/2018 15:49 27,6 C 39 % 1015,7 hPa 0,0 mm 3,5 km/h (1 Bft) N-NE 19 1 min 0 min 0,000 mm 3,9 UV-I 657 W/m 12,4 C 27,6 C 7,1 km/h (2 Bft) 100,00 %
22/07/2018 15:48 27,7 C 41 % 1015,7 hPa 0,0 mm 0,5 km/h (0 Bft) O 278 1 min 0 min 0,000 mm 4,0 UV-I 659 W/m 13,2 C 27,7 C 1,8 km/h (1 Bft) 95,65 %
22/07/2018 15:47 27,6 C 42 % 1015,7 hPa 0,0 mm 2,6 km/h (1 Bft) O 278 1 min 0 min 0,000 mm 4,0 UV-I 663 W/m 13,5 C 27,6 C 7,1 km/h (2 Bft) 100,00 %
22/07/2018 15:46 27,6 C 46 % 1015,7 hPa 0,0 mm 1,4 km/h (1 Bft) E-NE 64 1 min 0 min 0,000 mm 4,0 UV-I 666 W/m 14,9 C 27,6 C 3,5 km/h (1 Bft) 100,00 %
22/07/2018 15:45 27,6 C 42 % 1015,7 hPa 0,0 mm 0,4 km/h (0 Bft) E-NE 62 1 min 0 min 0,000 mm 4,1 UV-I 672 W/m 13,5 C 27,6 C 1,8 km/h (1 Bft) 100,00 %
22/07/2018 15:44 27,6 C 40 % 1015,7 hPa 0,0 mm 3,3 km/h (1 Bft) E-NE 63 1 min 0 min 0,000 mm 4,1 UV-I 676 W/m 12,8 C 27,6 C 7,1 km/h (2 Bft) 100,00 %
22/07/2018 15:43 27,7 C 42 % 1015,8 hPa 0,0 mm 8,7 km/h (2 Bft) NE 53 1 min 0 min 0,000 mm 4,1 UV-I 679 W/m 13,6 C 27,3 C 12,4 km/h (2 Bft) 100,00 %
22/07/2018 15:42 27,6 C 41 % 1015,8 hPa 0,0 mm 5,4 km/h (2 Bft) N-NE 32 1 min 0 min 0,000 mm 4,1 UV-I 680 W/m 13,1 C 27,6 C 10,6 km/h (2 Bft) 100,00 %
22/07/2018 15:41 27,6 C 40 % 1015,8 hPa 0,0 mm 5,0 km/h (1 Bft) NE 50 2 min 0 min 0,000 mm 4,1 UV-I 688 W/m 12,8 C 27,6 C 8,9 km/h (2 Bft) 100,00 %
22/07/2018 15:39 27,7 C 40 % 1015,8 hPa 0,0 mm 2,7 km/h (1 Bft) N 9 1 min 0 min 0,000 mm 4,1 UV-I 698 W/m 12,9 C 27,7 C 7,1 km/h (2 Bft) 100,00 %
22/07/2018 15:38 27,8 C 40 % 1015,8 hPa 0,0 mm 6,0 km/h (2 Bft) E-NE 73 2 min 0 min 0,000 mm 4,1 UV-I 708 W/m 12,9 C 27,8 C 14,2 km/h (3 Bft) 98,15 %
22/07/2018 15:36 27,9 C 44 % 1015,8 hPa 0,0 mm 6,4 km/h (2 Bft) N 9 1 min 0 min 0,000 mm 4,2 UV-I 727 W/m 14,5 C 27,9 C 8,9 km/h (2 Bft) 100,00 %
22/07/2018 15:35 27,9 C 42 % 1015,8 hPa 0,0 mm 5,5 km/h (2 Bft) N 5 1 min 0 min 0,000 mm 4,2 UV-I 739 W/m 13,8 C 27,9 C 8,9 km/h (2 Bft) 100,00 %
22/07/2018 15:34 27,9 C 42 % 1015,8 hPa 0,0 mm 8,1 km/h (2 Bft) N-NE 19 1 min 0 min 0,000 mm 4,3 UV-I 750 W/m 13,8 C 27,6 C 12,4 km/h (2 Bft) 100,00 %
22/07/2018 15:33 27,9 C 44 % 1015,8 hPa 0,0 mm 5,8 km/h (2 Bft) N-NE 12 1 min 0 min 0,000 mm 4,3 UV-I 763 W/m 14,5 C 27,9 C 8,9 km/h (2 Bft) 100,00 %
22/07/2018 15:32 27,8 C 42 % 1015,9 hPa 0,0 mm 8,3 km/h (2 Bft) N-NE 13 1 min 0 min 0,000 mm 4,3 UV-I 776 W/m 13,7 C 27,5 C 14,2 km/h (3 Bft) 96,30 %
22/07/2018 15:31 27,7 C 43 % 1015,8 hPa 0,0 mm 8,6 km/h (2 Bft) SO 229 1 min 0 min 0,000 mm 4,4 UV-I 789 W/m 14,0 C 27,3 C 12,4 km/h (2 Bft) 96,55 %
22/07/2018 15:30 27,5 C 43 % 1015,8 hPa 0,0 mm 3,1 km/h (1 Bft) N 360 1 min 0 min 0,000 mm 4,3 UV-I 799 W/m 13,8 C 27,5 C 8,9 km/h (2 Bft) 100,00 %
22/07/2018 15:29 27,4 C 42 % 1015,8 hPa 0,0 mm 1,8 km/h (1 Bft) NO 321 1 min 0 min 0,000 mm 4,4 UV-I 807 W/m 13,3 C 27,4 C 3,5 km/h (1 Bft) 100,00 %
22/07/2018 15:28 27,4 C 44 % 1015,8 hPa 0,0 mm 3,0 km/h (1 Bft) N-NE 26 1 min 0 min 0,000 mm 4,3 UV-I 809 W/m 14,0 C 27,4 C 3,5 km/h (1 Bft) 100,00 %
22/07/2018 15:27 27,4 C 44 % 1015,9 hPa 0,0 mm 5,1 km/h (1 Bft) N-NE 28 1 min 0 min 0,000 mm 4,4 UV-I 814 W/m 14,0 C 27,4 C 8,9 km/h (2 Bft) 100,00 %
22/07/2018 15:26 27,4 C 42 % 1015,8 hPa 0,0 mm 5,2 km/h (1 Bft) N-NE 25 1 min 0 min 0,000 mm 4,4 UV-I 818 W/m 13,3 C 27,4 C 7,1 km/h (2 Bft) 95,83 %
22/07/2018 15:25 27,4 C 44 % 1015,9 hPa 0,0 mm 6,5 km/h (2 Bft) N-NE 13 1 min 0 min 0,000 mm 4,4 UV-I 814 W/m 14,0 C 27,4 C 8,9 km/h (2 Bft) 100,00 %
22/07/2018 15:24 27,4 C 43 % 1015,8 hPa 0,0 mm 8,0 km/h (2 Bft) E-NE 61 1 min 0 min 0,000 mm 4,4 UV-I 812 W/m 13,7 C 27,1 C 12,4 km/h (2 Bft) 100,00 %
22/07/2018 15:23 27,4 C 43 % 1015,8 hPa 0,0 mm 7,8 km/h (2 Bft) N-NE 12 2 min 0 min 0,000 mm 4,4 UV-I 819 W/m 13,7 C 27,2 C 14,2 km/h (3 Bft) 97,37 %
22/07/2018 15:21 27,3 C 44 % 1015,8 hPa 0,0 mm 6,6 km/h (2 Bft) N 5 2 min 0 min 0,000 mm 4,5 UV-I 825 W/m 14,0 C 27,3 C 14,2 km/h (3 Bft) 98,08 %
22/07/2018 15:19 27,3 C 44 % 1015,8 hPa 0,0 mm 10,4 km/h (2 Bft) NE 51 1 min 0 min 0,000 mm 4,4 UV-I 826 W/m 14,0 C 26,6 C 15,9 km/h (3 Bft) 96,30 %
22/07/2018 15:18 27,3 C 42 % 1015,7 hPa 0,0 mm 7,6 km/h (2 Bft) N-NE 28 1 min 0 min 0,000 mm 4,4 UV-I 706 W/m 13,2 C 27,1 C 12,4 km/h (2 Bft) 100,00 %
22/07/2018 15:17 27,4 C 42 % 1015,8 hPa 0,0 mm 6,8 km/h (2 Bft) N-NE 32 1 min 0 min 0,000 mm 4,0 UV-I 710 W/m 13,3 C 27,3 C 8,9 km/h (2 Bft) 96,55 %
22/07/2018 15:16 27,4 C 43 % 1015,8 hPa 0,0 mm 5,7 km/h (2 Bft) N-NE 17 1 min 0 min 0,000 mm 4,1 UV-I 819 W/m 13,7 C 27,4 C 8,9 km/h (2 Bft) 96,43 %
22/07/2018 15:15 27,4 C 45 % 1015,8 hPa 0,0 mm 5,6 km/h (2 Bft) NE 42 2 min 0 min 0,000 mm 4,3 UV-I 826 W/m 14,4 C 27,4 C 8,9 km/h (2 Bft) 97,14 %
22/07/2018 15:13 27,3 C 47 % 1015,7 hPa 0,0 mm 4,3 km/h (1 Bft) NE 37 1 min 0 min 0,000 mm 4,5 UV-I 825 W/m 15,0 C 27,3 C 5,3 km/h (1 Bft) 100,00 %
22/07/2018 15:12 27,3 C 42 % 1015,8 hPa 0,0 mm 1,8 km/h (1 Bft) N-NE 13 1 min 0 min 0,000 mm 4,1 UV-I 817 W/m 13,2 C 27,3 C 3,5 km/h (1 Bft) 96,88 %
22/07/2018 15:11 27,4 C 43 % 1015,8 hPa 0,0 mm 4,7 km/h (1 Bft) NE 52 1 min 0 min 0,000 mm 3,7 UV-I 817 W/m 13,7 C 27,4 C 7,1 km/h (2 Bft) 100,00 %
22/07/2018 15:10 27,4 C 47 % 1015,8 hPa 0,0 mm 5,8 km/h (2 Bft) NE 37 1 min 0 min 0,000 mm 4,4 UV-I 821 W/m 15,1 C 27,4 C 8,9 km/h (2 Bft) 93,33 %
22/07/2018 15:09 27,3 C 46 % 1015,8 hPa 0,0 mm 5,3 km/h (1 Bft) NE 44 1 min 0 min 0,000 mm 4,5 UV-I 831 W/m 14,6 C 27,3 C 7,1 km/h (2 Bft) 100,00 %
22/07/2018 15:08 27,3 C 44 % 1015,8 hPa 0,0 mm 4,9 km/h (1 Bft) N-NE 13 1 min 0 min 0,000 mm 4,5 UV-I 834 W/m 14,0 C 27,3 C 7,1 km/h (2 Bft) 96,15 %
22/07/2018 15:07 27,3 C 44 % 1015,9 hPa 0,0 mm 2,2 km/h (1 Bft) NE 36 1 min 0 min 0,000 mm 4,6 UV-I 843 W/m 14,0 C 27,3 C 3,5 km/h (1 Bft) 93,33 %
22/07/2018 15:06 27,3 C 45 % 1015,8 hPa 0,0 mm 5,2 km/h (1 Bft) NE 44 1 min 0 min 0,000 mm 4,6 UV-I 842 W/m 14,3 C 27,3 C 7,1 km/h (2 Bft) 95,83 %
22/07/2018 15:05 27,3 C 44 % 1015,8 hPa 0,0 mm 6,5 km/h (2 Bft) E-NE 69 1 min 0 min 0,000 mm 4,7 UV-I 842 W/m 14,0 C 27,3 C 10,6 km/h (2 Bft) 96,30 %
22/07/2018 15:04 27,2 C 43 % 1015,8 hPa 0,0 mm 4,0 km/h (1 Bft) N-NE 24 1 min 0 min 0,000 mm 4,6 UV-I 831 W/m 13,5 C 27,2 C 7,1 km/h (2 Bft) 100,00 %
22/07/2018 15:03 27,2 C 44 % 1015,8 hPa 0,0 mm 9,4 km/h (2 Bft) E-NE 57 1 min 0 min 0,000 mm 4,5 UV-I 821 W/m 13,9 C 26,7 C 10,6 km/h (2 Bft) 93,33 %
22/07/2018 15:02 27,2 C 45 % 1015,9 hPa 0,0 mm 7,8 km/h (2 Bft) NE 36 1 min 0 min 0,000 mm 4,6 UV-I 825 W/m 14,2 C 26,9 C 10,6 km/h (2 Bft) 96,67 %
22/07/2018 15:01 27,1 C 46 % 1015,9 hPa 0,0 mm 4,6 km/h (1 Bft) E-NE 63 2 min 0 min 0,559 mm 4,6 UV-I 832 W/m 14,5 C 27,1 C 8,9 km/h (2 Bft) 96,43 %
22/07/2018 14:59 27,3 C 44 % 1015,8 hPa 0,0 mm 3,3 km/h (1 Bft) E 99 1 min 0 min 0,000 mm 4,7 UV-I 838 W/m 14,0 C 27,3 C 5,3 km/h (1 Bft) 100,00 %
22/07/2018 14:58 27,3 C 45 % 1015,9 hPa 0,0 mm 2,5 km/h (1 Bft) E 84 1 min 0 min 0,000 mm 4,7 UV-I 838 W/m 14,3 C 27,3 C 5,3 km/h (1 Bft) 100,00 %
22/07/2018 14:57 27,3 C 47 % 1015,9 hPa 0,0 mm 6,0 km/h (2 Bft) E 94 1 min 0 min 0,000 mm 4,7 UV-I 840 W/m 15,0 C 27,3 C 7,1 km/h (2 Bft) 92,59 %
22/07/2018 14:56 27,3 C 44 % 1015,9 hPa 0,0 mm 5,6 km/h (2 Bft) E-SE 108 1 min 0 min 0,000 mm 4,8 UV-I 848 W/m 14,0 C 27,3 C 7,1 km/h (2 Bft) 96,00 %
22/07/2018 14:55 27,3 C 48 % 1015,9 hPa 0,0 mm 2,8 km/h (1 Bft) E 92 1 min 0 min 0,000 mm 4,8 UV-I 853 W/m 15,3 C 27,3 C 5,3 km/h (1 Bft) 100,00 %
22/07/2018 14:54 27,2 C 46 % 1015,9 hPa 0,0 mm 1,4 km/h (1 Bft) E-NE 64 1 min 0 min 0,000 mm 4,8 UV-I 849 W/m 14,6 C 27,2 C 5,3 km/h (1 Bft) 88,89 %
22/07/2018 14:53 27,3 C 44 % 1015,9 hPa 0,0 mm 0,2 km/h (0 Bft) NE 48 1 min 0 min 0,000 mm 4,8 UV-I 847 W/m 14,0 C 27,3 C 1,8 km/h (1 Bft) 100,00 %
22/07/2018 14:52 27,3 C 46 % 1015,9 hPa 0,0 mm 3,0 km/h (1 Bft) NE 47 1 min 0 min 0,000 mm 4,8 UV-I 845 W/m 14,6 C 27,3 C 3,5 km/h (1 Bft) 95,65 %
22/07/2018 14:51 27,3 C 44 % 1015,9 hPa 0,0 mm 3,3 km/h (1 Bft) NE 48 1 min 0 min 0,000 mm 4,8 UV-I 843 W/m 14,0 C 27,3 C 5,3 km/h (1 Bft) 96,00 %
22/07/2018 14:50 27,4 C 45 % 1015,9 hPa 0,0 mm 1,7 km/h (1 Bft) E-NE 69 1 min 0 min 0,000 mm 4,8 UV-I 840 W/m 14,4 C 27,4 C 5,3 km/h (1 Bft) 95,83 %
22/07/2018 14:49 27,4 C 45 % 1015,9 hPa 0,0 mm 1,3 km/h (1 Bft) O-NO 291 1 min 0 min 0,000 mm 4,8 UV-I 842 W/m 14,4 C 27,4 C 1,8 km/h (1 Bft) 96,15 %
22/07/2018 14:48 27,3 C 48 % 1016,0 hPa 0,0 mm 3,5 km/h (1 Bft) O-NO 291 1 min 0 min 0,000 mm 4,8 UV-I 845 W/m 15,3 C 27,3 C 7,1 km/h (2 Bft) 100,00 %
22/07/2018 14:47 27,2 C 44 % 1015,9 hPa 0,0 mm 5,4 km/h (2 Bft) NO 308 1 min 0 min 0,000 mm 4,8 UV-I 848 W/m 13,9 C 27,2 C 7,1 km/h (2 Bft) 92,00 %
22/07/2018 14:46 27,1 C 44 % 1015,9 hPa 0,0 mm 3,0 km/h (1 Bft) E 97 1 min 0 min 0,000 mm 4,8 UV-I 849 W/m 13,8 C 27,1 C 7,1 km/h (2 Bft) 95,83 %
22/07/2018 14:45 27,1 C 48 % 1015,9 hPa 0,0 mm 2,4 km/h (1 Bft) NO 325 1 min 0 min 0,000 mm 4,8 UV-I 852 W/m 15,1 C 27,1 C 5,3 km/h (1 Bft) 91,67 %
22/07/2018 14:44 27,0 C 47 % 1015,9 hPa 0,0 mm 5,4 km/h (2 Bft) NO 323 1 min 0 min 0,000 mm 4,8 UV-I 857 W/m 14,7 C 27,0 C 8,9 km/h (2 Bft) 100,00 %
22/07/2018 14:43 26,9 C 47 % 1015,9 hPa 0,0 mm 4,4 km/h (1 Bft) NE 35 1 min 0 min 0,000 mm 4,9 UV-I 858 W/m 14,6 C 26,9 C 10,6 km/h (2 Bft) 95,65 %
22/07/2018 14:42 26,8 C 47 % 1015,9 hPa 0,0 mm 2,9 km/h (1 Bft) N-NE 22 1 min 0 min 0,000 mm 4,8 UV-I 862 W/m 14,5 C 26,8 C 5,3 km/h (1 Bft) 100,00 %
22/07/2018 14:41 26,7 C 49 % 1015,9 hPa 0,0 mm 4,1 km/h (1 Bft) NO 326 1 min 0 min 0,000 mm 4,9 UV-I 865 W/m 15,1 C 26,7 C 7,1 km/h (2 Bft) 95,83 %
22/07/2018 14:40 26,5 C 48 % 1016,0 hPa 0,0 mm 2,3 km/h (1 Bft) N-NE 23 1 min 0 min 0,000 mm 4,9 UV-I 872 W/m 14,6 C 26,5 C 7,1 km/h (2 Bft) 96,00 %
22/07/2018 14:39 26,3 C 48 % 1015,9 hPa 0,0 mm 0,0 km/h (0 Bft) N-NE 20 1 min 0 min 0,000 mm 4,9 UV-I 885 W/m 14,4 C 26,3 C 0,0 km/h (0 Bft) 100,00 %
22/07/2018 14:38 26,3 C 50 % 1015,9 hPa 0,0 mm 0,0 km/h (0 Bft) N-NE 20 1 min 0 min 0,000 mm 4,9 UV-I 888 W/m 15,0 C 26,3 C 0,0 km/h (0 Bft) 96,15 %
22/07/2018 14:37 26,3 C 49 % 1016,0 hPa 0,0 mm 2,2 km/h (1 Bft) N-NE 20 0 min 0 min 0,000 mm 4,0 UV-I 229 W/m 14,7 C 26,3 C 3,5 km/h (1 Bft) 97,96 %
22/07/2018 14:35 26,4 C 49 % 1015,9 hPa 0,0 mm 1,2 km/h (1 Bft) N-NE 22 0 min 0 min 0,000 mm 3,4 UV-I 181 W/m 14,8 C 26,4 C 3,5 km/h (1 Bft) 100,00 %
22/07/2018 14:34 26,6 C 48 % 1016,0 hPa 0,0 mm 2,4 km/h (1 Bft) N-NE 22 1 min 0 min 0,000 mm 3,2 UV-I 552 W/m 14,7 C 26,6 C 5,3 km/h (1 Bft) 96,15 %
22/07/2018 14:33 26,7 C 49 % 1016,0 hPa 0,0 mm 1,5 km/h (1 Bft) E-NE 69 1 min 0 min 0,000 mm 4,5 UV-I 865 W/m 15,1 C 26,7 C 3,5 km/h (1 Bft) 100,00 %
22/07/2018 14:32 26,6 C 44 % 1016,1 hPa 0,0 mm 1,7 km/h (1 Bft) E-NE 69 1 min 0 min 0,000 mm 4,9 UV-I 865 W/m 13,3 C 26,6 C 3,5 km/h (1 Bft) 96,77 %
22/07/2018 14:31 26,7 C 44 % 1016,1 hPa 0,0 mm 2,9 km/h (1 Bft) E-NE 68 1 min 0 min 0,000 mm 4,9 UV-I 872 W/m 13,4 C 26,7 C 3,5 km/h (1 Bft) 100,00 %
22/07/2018 14:30 26,7 C 44 % 1016,1 hPa 0,0 mm 3,4 km/h (1 Bft) E-NE 69 1 min 0 min 0,000 mm 5,0 UV-I 877 W/m 13,4 C 26,7 C 5,3 km/h (1 Bft) 100,00 %
22/07/2018 14:29 26,8 C 44 % 1016,0 hPa 0,0 mm 3,4 km/h (1 Bft) E-NE 69 1 min 0 min 0,000 mm 5,0 UV-I 877 W/m 13,5 C 26,8 C 7,1 km/h (2 Bft) 100,00 %
22/07/2018 14:28 26,9 C 46 % 1016,0 hPa 0,0 mm 4,2 km/h (1 Bft) E-NE 65 1 min 0 min 0,000 mm 5,0 UV-I 871 W/m 14,3 C 26,9 C 7,1 km/h (2 Bft) 100,00 %
22/07/2018 14:27 27,0 C 45 % 1016,1 hPa 0,0 mm 4,4 km/h (1 Bft) N-NE 17 1 min 0 min 0,000 mm 5,0 UV-I 869 W/m 14,0 C 27,0 C 7,1 km/h (2 Bft) 100,00 %
22/07/2018 14:26 27,1 C 47 % 1016,1 hPa 0,0 mm 5,0 km/h (1 Bft) NE 37 1 min 0 min 0,000 mm 5,0 UV-I 874 W/m 14,8 C 27,1 C 8,9 km/h (2 Bft) 96,15 %
22/07/2018 14:25 27,1 C 48 % 1016,1 hPa 0,0 mm 3,2 km/h (1 Bft) N-NE 23 1 min 0 min 0,000 mm 5,0 UV-I 876 W/m 15,1 C 27,1 C 7,1 km/h (2 Bft) 100,00 %
22/07/2018 14:24 26,9 C 50 % 1016,1 hPa 0,0 mm 3,6 km/h (1 Bft) NO 323 1 min 0 min 0,000 mm 5,0 UV-I 867 W/m 15,6 C 26,9 C 5,3 km/h (1 Bft) 100,00 %
22/07/2018 14:23 26,9 C 47 % 1016,1 hPa 0,0 mm 4,5 km/h (1 Bft) O-SO 257 1 min 0 min 0,000 mm 5,0 UV-I 864 W/m 14,6 C 26,9 C 7,1 km/h (2 Bft) 96,00 %
22/07/2018 14:22 26,9 C 48 % 1016,1 hPa 0,0 mm 3,1 km/h (1 Bft) NO 309 1 min 0 min 0,000 mm 5,1 UV-I 870 W/m 14,9 C 26,9 C 7,1 km/h (2 Bft) 100,00 %
22/07/2018 14:21 26,9 C 48 % 1016,1 hPa 0,0 mm 2,1 km/h (1 Bft) N 10 1 min 0 min 0,000 mm 5,1 UV-I 869 W/m 14,9 C 26,9 C 3,5 km/h (1 Bft) 100,00 %
22/07/2018 14:20 26,8 C 50 % 1016,1 hPa 0,0 mm 3,3 km/h (1 Bft) N 10 1 min 0 min 0,000 mm 5,1 UV-I 870 W/m 15,5 C 26,8 C 5,3 km/h (1 Bft) 100,00 %
22/07/2018 14:19 26,7 C 49 % 1016,1 hPa 0,0 mm 6,7 km/h (2 Bft) N 9 1 min 0 min 0,000 mm 5,0 UV-I 868 W/m 15,1 C 26,6 C 12,4 km/h (2 Bft) 100,00 %
22/07/2018 14:18 26,7 C 48 % 1016,0 hPa 0,0 mm 5,8 km/h (2 Bft) N-NE 27 1 min 0 min 0,000 mm 5,0 UV-I 869 W/m 14,8 C 26,7 C 8,9 km/h (2 Bft) 100,00 %
22/07/2018 14:17 26,6 C 48 % 1016,0 hPa 0,0 mm 6,8 km/h (2 Bft) N-NE 19 1 min 0 min 0,000 mm 5,1 UV-I 867 W/m 14,7 C 26,5 C 10,6 km/h (2 Bft) 100,00 %
22/07/2018 14:16 26,4 C 52 % 1016,1 hPa 0,0 mm 11,8 km/h (2 Bft) N 355 1 min 0 min 0,000 mm 5,0 UV-I 867 W/m 15,7 C 25,4 C 15,9 km/h (3 Bft) 100,00 %
22/07/2018 14:15 26,2 C 48 % 1016,0 hPa 0,0 mm 5,0 km/h (1 Bft) N-NE 17 2 min 0 min 0,000 mm 5,1 UV-I 868 W/m 14,3 C 26,2 C 14,2 km/h (3 Bft) 98,04 %
22/07/2018 14:13 26,1 C 47 % 1016,1 hPa 0,0 mm 4,0 km/h (1 Bft) E 84 1 min 0 min 0,000 mm 5,1 UV-I 867 W/m 13,9 C 26,1 C 7,1 km/h (2 Bft) 100,00 %
22/07/2018 14:12 26,1 C 47 % 1016,1 hPa 0,0 mm 3,9 km/h (1 Bft) E-SE 105 1 min 0 min 0,000 mm 5,1 UV-I 864 W/m 13,9 C 26,1 C 7,1 km/h (2 Bft) 96,15 %
22/07/2018 14:11 26,1 C 50 % 1016,1 hPa 0,0 mm 2,9 km/h (1 Bft) E 90 1 min 0 min 0,000 mm 5,1 UV-I 865 W/m 14,8 C 26,1 C 5,3 km/h (1 Bft) 96,43 %
22/07/2018 14:10 26,1 C 48 % 1016,1 hPa 0,0 mm 2,0 km/h (1 Bft) S-SE 155 1 min 0 min 0,000 mm 5,2 UV-I 875 W/m 14,2 C 26,1 C 5,3 km/h (1 Bft) 100,00 %
22/07/2018 14:09 26,2 C 48 % 1016,0 hPa 0,0 mm 2,2 km/h (1 Bft) SE 127 1 min 0 min 0,000 mm 5,2 UV-I 875 W/m 14,3 C 26,2 C 3,5 km/h (1 Bft) 100,00 %
22/07/2018 14:08 26,3 C 49 % 1016,1 hPa 0,0 mm 0,5 km/h (0 Bft) SE 141 1 min 0 min 0,000 mm 5,1 UV-I 872 W/m 14,7 C 26,3 C 1,8 km/h (1 Bft) 100,00 %
22/07/2018 14:07 26,3 C 49 % 1016,1 hPa 0,0 mm 0,1 km/h (0 Bft) E-NE 73 1 min 0 min 0,000 mm 5,1 UV-I 867 W/m 14,7 C 26,3 C 1,8 km/h (1 Bft) 100,00 %
22/07/2018 14:06 26,3 C 47 % 1016,2 hPa 0,0 mm 4,5 km/h (1 Bft) E-NE 73 2 min 0 min 0,000 mm 5,1 UV-I 870 W/m 14,1 C 26,3 C 10,6 km/h (2 Bft) 100,00 %
22/07/2018 14:04 26,4 C 49 % 1016,2 hPa 0,0 mm 4,2 km/h (1 Bft) NE 55 1 min 0 min 0,000 mm 5,1 UV-I 869 W/m 14,8 C 26,4 C 5,3 km/h (1 Bft) 100,00 %
22/07/2018 14:03 26,3 C 44 % 1016,2 hPa 0,0 mm 3,1 km/h (1 Bft) N 5 1 min 0 min 0,000 mm 5,1 UV-I 875 W/m 13,1 C 26,3 C 3,5 km/h (1 Bft) 100,00 %
22/07/2018 14:02 26,3 C 48 % 1016,2 hPa 0,0 mm 1,9 km/h (1 Bft) N 5 1 min 0 min 0,000 mm 4,9 UV-I 868 W/m 14,4 C 26,3 C 3,5 km/h (1 Bft) 95,83 %
22/07/2018 14:01 26,3 C 49 % 1016,2 hPa 0,0 mm 3,5 km/h (1 Bft) N 5 1 min 0 min 0,000 mm 4,7 UV-I 867 W/m 14,7 C 26,3 C 5,3 km/h (1 Bft) 100,00 %
22/07/2018 14:00 26,3 C 46 % 1016,2 hPa 0,0 mm 4,6 km/h (1 Bft) N-NE 19 1 min 0 min 0,584 mm 4,5 UV-I 867 W/m 13,7 C 26,3 C 5,3 km/h (1 Bft) 100,00 %
22/07/2018 13:59 26,3 C 47 % 1016,2 hPa 0,0 mm 7,6 km/h (2 Bft) N 360 1 min 0 min 0,000 mm 4,1 UV-I 867 W/m 14,1 C 26,0 C 8,9 km/h (2 Bft) 97,78 %
22/07/2018 13:58 26,4 C 47 % 1016,2 hPa 0,0 mm 11,3 km/h (2 Bft) N-NE 24 1 min 0 min 0,000 mm 5,1 UV-I 878 W/m 14,2 C 25,5 C 14,2 km/h (3 Bft) 98,34 %
22/07/2018 13:57 26,4 C 47 % 1016,2 hPa 0,0 mm 4,2 km/h (1 Bft) N-NE 24 1 min 0 min 0,000 mm 4,9 UV-I 828 W/m 14,2 C 26,4 C 7,1 km/h (2 Bft) 100,00 %
22/07/2018 13:56 26,6 C 45 % 1016,2 hPa 0,0 mm 4,7 km/h (1 Bft) NE 34 1 min 0 min 0,000 mm 4,6 UV-I 809 W/m 13,7 C 26,6 C 5,3 km/h (1 Bft) 100,00 %
22/07/2018 13:55 26,8 C 46 % 1016,2 hPa 0,0 mm 9,7 km/h (2 Bft) N 5 1 min 0 min 0,000 mm 4,8 UV-I 821 W/m 14,2 C 26,2 C 14,2 km/h (3 Bft) 96,30 %
22/07/2018 13:54 26,8 C 48 % 1016,2 hPa 0,0 mm 6,4 km/h (2 Bft) N-NO 336 1 min 0 min 0,000 mm 5,0 UV-I 779 W/m 14,9 C 26,8 C 8,9 km/h (2 Bft) 100,00 %
22/07/2018 13:53 26,8 C 49 % 1016,2 hPa 0,0 mm 5,5 km/h (2 Bft) NE 35 1 min 0 min 0,000 mm 4,9 UV-I 621 W/m 15,2 C 26,8 C 8,9 km/h (2 Bft) 100,00 %
22/07/2018 13:52 26,8 C 52 % 1016,2 hPa 0,0 mm 1,7 km/h (1 Bft) N 10 1 min 0 min 0,000 mm 4,7 UV-I 805 W/m 16,1 C 26,8 C 3,5 km/h (1 Bft) 100,00 %
22/07/2018 13:51 26,8 C 49 % 1016,2 hPa 0,0 mm 1,8 km/h (1 Bft) O-SO 250 1 min 0 min 0,000 mm 5,0 UV-I 889 W/m 15,2 C 26,8 C 3,5 km/h (1 Bft) 100,00 %
22/07/2018 13:50 26,8 C 49 % 1016,2 hPa 0,0 mm 6,0 km/h (2 Bft) O-SO 250 1 min 0 min 0,000 mm 4,9 UV-I 864 W/m 15,2 C 26,8 C 8,9 km/h (2 Bft) 100,00 %
22/07/2018 13:49 26,8 C 47 % 1016,3 hPa 0,0 mm 6,1 km/h (2 Bft) O-NO 286 1 min 0 min 0,000 mm 5,0 UV-I 875 W/m 14,5 C 26,8 C 12,4 km/h (2 Bft) 100,00 %
22/07/2018 13:48 26,8 C 49 % 1016,2 hPa 0,0 mm 4,0 km/h (1 Bft) O 275 1 min 0 min 0,000 mm 5,1 UV-I 882 W/m 15,2 C 26,8 C 7,1 km/h (2 Bft) 100,00 %
22/07/2018 13:47 26,7 C 52 % 1016,3 hPa 0,0 mm 3,8 km/h (1 Bft) O 277 1 min 0 min 0,000 mm 5,1 UV-I 876 W/m 16,0 C 26,7 C 7,1 km/h (2 Bft) 100,00 %
22/07/2018 13:46 26,6 C 49 % 1016,2 hPa 0,0 mm 2,2 km/h (1 Bft) O 265 1 min 0 min 0,000 mm 5,0 UV-I 871 W/m 15,0 C 26,6 C 5,3 km/h (1 Bft) 100,00 %
22/07/2018 13:45 26,5 C 52 % 1016,2 hPa 0,0 mm 3,2 km/h (1 Bft) O 263 1 min 0 min 0,000 mm 5,1 UV-I 891 W/m 15,8 C 26,5 C 5,3 km/h (1 Bft) 96,00 %
22/07/2018 13:44 26,5 C 52 % 1016,2 hPa 0,0 mm 0,4 km/h (0 Bft) O-SO 248 1 min 0 min 0,000 mm 5,1 UV-I 903 W/m 15,8 C 26,5 C 1,8 km/h (1 Bft) 100,00 %
22/07/2018 13:43 26,4 C 49 % 1016,2 hPa 0,0 mm 0,0 km/h (0 Bft) O-SO 248 1 min 0 min 0,000 mm 5,1 UV-I 903 W/m 14,8 C 26,4 C 0,0 km/h (0 Bft) 100,00 %
22/07/2018 13:42 26,4 C 52 % 1016,2 hPa 0,0 mm 1,4 km/h (1 Bft) O-SO 248 1 min 0 min 0,000 mm 5,2 UV-I 913 W/m 15,7 C 26,4 C 3,5 km/h (1 Bft) 96,00 %
22/07/2018 13:41 26,4 C 52 % 1016,3 hPa 0,0 mm 6,5 km/h (2 Bft) O-SO 237 1 min 0 min 0,000 mm 5,2 UV-I 906 W/m 15,7 C 26,4 C 10,6 km/h (2 Bft) 90,91 %
22/07/2018 13:40 26,4 C 48 % 1016,2 hPa 0,0 mm 2,7 km/h (1 Bft) O-NO 282 1 min 0 min 0,000 mm 5,1 UV-I 893 W/m 14,5 C 26,4 C 3,5 km/h (1 Bft) 100,00 %
22/07/2018 13:39 26,6 C 52 % 1016,2 hPa 0,0 mm 5,1 km/h (1 Bft) O 273 1 min 0 min 0,000 mm 5,2 UV-I 886 W/m 15,9 C 26,6 C 7,1 km/h (2 Bft) 100,00 %
22/07/2018 13:38 26,6 C 50 % 1016,2 hPa 0,0 mm 5,8 km/h (2 Bft) O-SO 244 1 min 0 min 0,000 mm 5,2 UV-I 889 W/m 15,3 C 26,6 C 7,1 km/h (2 Bft) 100,00 %
22/07/2018 13:37 26,6 C 50 % 1016,2 hPa 0,0 mm 6,3 km/h (2 Bft) O-SO 257 1 min 0 min 0,000 mm 5,3 UV-I 892 W/m 15,3 C 26,6 C 10,6 km/h (2 Bft) 100,00 %
22/07/2018 13:36 26,6 C 54 % 1016,3 hPa 0,0 mm 5,5 km/h (2 Bft) O 268 1 min 0 min 0,000 mm 5,2 UV-I 888 W/m 16,5 C 26,6 C 10,6 km/h (2 Bft) 100,00 %
22/07/2018 13:35 26,5 C 52 % 1016,2 hPa 0,0 mm 5,7 km/h (2 Bft) O-NO 282 1 min 0 min 0,000 mm 5,2 UV-I 881 W/m 15,8 C 26,5 C 10,6 km/h (2 Bft) 100,00 %
22/07/2018 13:34 26,4 C 50 % 1016,2 hPa 0,0 mm 3,9 km/h (1 Bft) N-NE 13 1 min 0 min 0,000 mm 5,1 UV-I 875 W/m 15,1 C 26,4 C 5,3 km/h (1 Bft) 96,15 %
22/07/2018 13:33 26,4 C 49 % 1016,3 hPa 0,0 mm 2,9 km/h (1 Bft) NO 313 1 min 0 min 0,000 mm 5,1 UV-I 872 W/m 14,8 C 26,4 C 5,3 km/h (1 Bft) 100,00 %
22/07/2018 13:32 26,4 C 54 % 1016,3 hPa 0,0 mm 7,9 km/h (2 Bft) N 360 1 min 0 min 0,000 mm 5,1 UV-I 864 W/m 16,3 C 26,1 C 8,9 km/h (2 Bft) 100,00 %
22/07/2018 13:31 26,3 C 52 % 1016,2 hPa 0,0 mm 8,9 km/h (2 Bft) N-NE 24 1 min 0 min 0,000 mm 5,1 UV-I 861 W/m 15,6 C 25,8 C 14,2 km/h (3 Bft) 100,00 %
22/07/2018 13:30 26,3 C 49 % 1016,2 hPa 0,0 mm 9,2 km/h (2 Bft) N 5 1 min 0 min 0,000 mm 5,1 UV-I 862 W/m 14,7 C 25,7 C 14,2 km/h (3 Bft) 100,00 %
22/07/2018 13:29 26,2 C 52 % 1016,3 hPa 0,0 mm 9,4 km/h (2 Bft) N-NE 20 1 min 0 min 0,000 mm 5,1 UV-I 865 W/m 15,6 C 25,6 C 15,9 km/h (3 Bft) 100,00 %
22/07/2018 13:28 26,1 C 53 % 1016,2 hPa 0,0 mm 2,4 km/h (1 Bft) E-NE 65 1 min 0 min 0,000 mm 5,2 UV-I 867 W/m 15,8 C 26,1 C 3,5 km/h (1 Bft) 100,00 %
22/07/2018 13:27 26,0 C 53 % 1016,3 hPa 0,0 mm 2,2 km/h (1 Bft) O-NO 295 1 min 0 min 0,000 mm 5,2 UV-I 865 W/m 15,7 C 26,0 C 3,5 km/h (1 Bft) 100,00 %
22/07/2018 13:26 25,9 C 53 % 1016,2 hPa 0,0 mm 3,9 km/h (1 Bft) O-NO 295 1 min 0 min 0,000 mm 5,2 UV-I 863 W/m 15,6 C 25,9 C 5,3 km/h (1 Bft) 100,00 %
22/07/2018 13:25 25,8 C 52 % 1016,2 hPa 0,0 mm 2,0 km/h (1 Bft) NO 325 1 min 0 min 0,000 mm 5,2 UV-I 864 W/m 15,2 C 25,8 C 3,5 km/h (1 Bft) 100,00 %
22/07/2018 13:24 25,7 C 50 % 1016,3 hPa 0,0 mm 0,2 km/h (0 Bft) E-SE 114 1 min 0 min 0,000 mm 5,1 UV-I 863 W/m 14,5 C 25,7 C 1,8 km/h (1 Bft) 100,00 %
22/07/2018 13:23 25,7 C 49 % 1016,3 hPa 0,0 mm 0,5 km/h (0 Bft) E-SE 115 1 min 0 min 0,000 mm 5,1 UV-I 858 W/m 14,2 C 25,7 C 1,8 km/h (1 Bft) 100,00 %
22/07/2018 13:22 25,8 C 49 % 1016,4 hPa 0,0 mm 0,8 km/h (0 Bft) E-SE 115 1 min 0 min 0,000 mm 5,0 UV-I 854 W/m 14,3 C 25,8 C 1,8 km/h (1 Bft) 100,00 %
22/07/2018 13:21 25,8 C 47 % 1016,3 hPa 0,0 mm 1,4 km/h (1 Bft) E-SE 115 1 min 0 min 0,000 mm 5,1 UV-I 854 W/m 13,6 C 25,8 C 3,5 km/h (1 Bft) 100,00 %
22/07/2018 13:20 25,8 C 47 % 1016,3 hPa 0,0 mm 2,7 km/h (1 Bft) E-SE 115 1 min 0 min 0,000 mm 5,1 UV-I 856 W/m 13,6 C 25,8 C 5,3 km/h (1 Bft) 100,00 %
22/07/2018 13:19 25,9 C 48 % 1016,3 hPa 0,0 mm 2,7 km/h (1 Bft) E-SE 102 1 min 0 min 0,000 mm 5,1 UV-I 855 W/m 14,0 C 25,9 C 5,3 km/h (1 Bft) 100,00 %
22/07/2018 13:18 25,9 C 46 % 1016,3 hPa 0,0 mm 2,1 km/h (1 Bft) SO 223 1 min 0 min 0,000 mm 5,0 UV-I 854 W/m 13,4 C 25,9 C 3,5 km/h (1 Bft) 100,00 %
22/07/2018 13:17 26,1 C 47 % 1016,4 hPa 0,0 mm 1,8 km/h (1 Bft) SO 223 1 min 0 min 0,000 mm 5,1 UV-I 852 W/m 13,9 C 26,1 C 3,5 km/h (1 Bft) 96,15 %
22/07/2018 13:16 26,1 C 47 % 1016,3 hPa 0,0 mm 0,8 km/h (0 Bft) O-NO 286 1 min 0 min 0,000 mm 5,1 UV-I 856 W/m 13,9 C 26,1 C 1,8 km/h (1 Bft) 100,00 %
22/07/2018 13:15 26,2 C 48 % 1016,4 hPa 0,0 mm 2,5 km/h (1 Bft) O-NO 296 1 min 0 min 0,000 mm 5,1 UV-I 856 W/m 14,3 C 26,2 C 3,5 km/h (1 Bft) 100,00 %
22/07/2018 13:14 26,2 C 49 % 1016,4 hPa 0,0 mm 7,3 km/h (2 Bft) O-NO 299 1 min 0 min 0,000 mm 5,1 UV-I 855 W/m 14,6 C 26,0 C 14,2 km/h (3 Bft) 100,00 %
22/07/2018 13:13 26,2 C 50 % 1016,3 hPa 0,0 mm 7,3 km/h (2 Bft) N-NE 29 1 min 0 min 0,000 mm 5,0 UV-I 854 W/m 14,9 C 26,0 C 10,6 km/h (2 Bft) 96,30 %
22/07/2018 13:12 26,2 C 54 % 1016,3 hPa 0,0 mm 2,0 km/h (1 Bft) N-NO 333 1 min 0 min 0,000 mm 5,0 UV-I 851 W/m 16,1 C 26,2 C 5,3 km/h (1 Bft) 100,00 %
22/07/2018 13:11 26,1 C 54 % 1016,3 hPa 0,0 mm 1,9 km/h (1 Bft) NO 321 1 min 0 min 0,000 mm 5,0 UV-I 847 W/m 16,0 C 26,1 C 3,5 km/h (1 Bft) 100,00 %
22/07/2018 13:10 26,1 C 50 % 1016,3 hPa 0,0 mm 4,5 km/h (1 Bft) NO 320 1 min 0 min 0,000 mm 5,0 UV-I 846 W/m 14,8 C 26,1 C 7,1 km/h (2 Bft) 100,00 %
22/07/2018 13:09 25,9 C 53 % 1016,3 hPa 0,0 mm 5,3 km/h (1 Bft) N 9 1 min 0 min 0,000 mm 5,0 UV-I 844 W/m 15,6 C 25,9 C 7,1 km/h (2 Bft) 100,00 %
22/07/2018 13:08 25,8 C 54 % 1016,3 hPa 0,0 mm 3,6 km/h (1 Bft) N-NE 22 1 min 0 min 0,000 mm 5,0 UV-I 847 W/m 15,8 C 25,8 C 8,9 km/h (2 Bft) 100,00 %
22/07/2018 13:07 25,8 C 52 % 1016,3 hPa 0,0 mm 2,8 km/h (1 Bft) O-SO 258 1 min 0 min 0,000 mm 5,0 UV-I 850 W/m 15,2 C 25,8 C 5,3 km/h (1 Bft) 100,00 %
22/07/2018 13:06 25,8 C 49 % 1016,3 hPa 0,0 mm 2,1 km/h (1 Bft) N-NE 22 1 min 0 min 0,000 mm 5,0 UV-I 847 W/m 14,3 C 25,8 C 7,1 km/h (2 Bft) 95,83 %
22/07/2018 13:05 25,9 C 48 % 1016,3 hPa 0,0 mm 0,6 km/h (0 Bft) O-SO 252 1 min 0 min 0,000 mm 5,0 UV-I 845 W/m 14,0 C 25,9 C 3,5 km/h (1 Bft) 100,00 %
22/07/2018 13:04 25,9 C 49 % 1016,3 hPa 0,0 mm 6,5 km/h (2 Bft) O-SO 248 1 min 0 min 0,000 mm 5,0 UV-I 844 W/m 14,4 C 25,9 C 12,4 km/h (2 Bft) 100,00 %
22/07/2018 13:03 25,9 C 54 % 1016,3 hPa 0,0 mm 4,6 km/h (1 Bft) NE 39 1 min 0 min 0,000 mm 4,9 UV-I 840 W/m 15,9 C 25,9 C 8,9 km/h (2 Bft) 95,83 %
22/07/2018 13:02 25,8 C 56 % 1016,3 hPa 0,0 mm 5,6 km/h (2 Bft) N-NE 18 1 min 0 min 0,000 mm 4,9 UV-I 841 W/m 16,3 C 25,8 C 8,9 km/h (2 Bft) 100,00 %
22/07/2018 13:01 25,6 C 53 % 1016,3 hPa 0,0 mm 3,2 km/h (1 Bft) N 355 1 min 0 min 0,000 mm 4,9 UV-I 841 W/m 15,3 C 25,6 C 5,3 km/h (1 Bft) 95,83 %
22/07/2018 13:00 25,5 C 50 % 1016,3 hPa 0,0 mm 6,8 km/h (2 Bft) N-NE 26 1 min 0 min 0,534 mm 4,9 UV-I 840 W/m 14,3 C 25,4 C 8,9 km/h (2 Bft) 100,00 %
22/07/2018 12:59 25,4 C 49 % 1016,3 hPa 0,0 mm 5,8 km/h (2 Bft) NE 34 1 min 0 min 0,000 mm 4,9 UV-I 836 W/m 13,9 C 25,4 C 10,6 km/h (2 Bft) 100,00 %
22/07/2018 12:58 25,3 C 53 % 1016,3 hPa 0,0 mm 8,6 km/h (2 Bft) E-NE 61 1 min 0 min 0,000 mm 4,9 UV-I 833 W/m 15,0 C 24,8 C 12,4 km/h (2 Bft) 100,00 %
22/07/2018 12:57 25,3 C 52 % 1016,3 hPa 0,0 mm 4,7 km/h (1 Bft) N-NE 16 1 min 0 min 0,000 mm 4,9 UV-I 833 W/m 14,7 C 25,3 C 14,2 km/h (3 Bft) 100,00 %
22/07/2018 12:56 25,3 C 49 % 1016,3 hPa 0,0 mm 0,2 km/h (0 Bft) NE 55 1 min 0 min 0,000 mm 4,9 UV-I 835 W/m 13,8 C 25,3 C 1,8 km/h (1 Bft) 100,00 %
22/07/2018 12:55 25,3 C 49 % 1016,3 hPa 0,0 mm 0,5 km/h (0 Bft) E-NE 57 1 min 0 min 0,000 mm 4,9 UV-I 834 W/m 13,8 C 25,3 C 1,8 km/h (1 Bft) 100,00 %
22/07/2018 12:54 25,3 C 50 % 1016,3 hPa 0,0 mm 3,5 km/h (1 Bft) E-NE 57 2 min 0 min 0,000 mm 4,9 UV-I 836 W/m 14,1 C 25,3 C 8,9 km/h (2 Bft) 100,00 %
22/07/2018 12:52 25,4 C 49 % 1016,4 hPa 0,0 mm 5,6 km/h (2 Bft) N-NE 24 1 min 0 min 0,000 mm 4,8 UV-I 831 W/m 13,9 C 25,4 C 8,9 km/h (2 Bft) 100,00 %
22/07/2018 12:51 25,3 C 55 % 1016,4 hPa 0,0 mm 6,8 km/h (2 Bft) N-NE 30 1 min 0 min 0,000 mm 4,8 UV-I 824 W/m 15,6 C 25,2 C 8,9 km/h (2 Bft) 100,00 %
22/07/2018 12:50 25,3 C 49 % 1016,4 hPa 0,0 mm 8,0 km/h (2 Bft) E-NE 65 1 min 0 min 0,000 mm 4,8 UV-I 824 W/m 13,8 C 24,9 C 10,6 km/h (2 Bft) 95,24 %
22/07/2018 12:49 25,4 C 53 % 1016,4 hPa 0,0 mm 8,3 km/h (2 Bft) E-NE 65 1 min 0 min 0,000 mm 4,8 UV-I 822 W/m 15,1 C 25,0 C 10,6 km/h (2 Bft) 100,00 %
22/07/2018 12:48 25,3 C 54 % 1016,4 hPa 0,0 mm 3,7 km/h (1 Bft) N-NE 12 1 min 0 min 0,000 mm 4,8 UV-I 821 W/m 15,3 C 25,3 C 7,1 km/h (2 Bft) 100,00 %
22/07/2018 12:47 25,2 C 52 % 1016,4 hPa 0,0 mm 3,4 km/h (1 Bft) NE 44 1 min 0 min 0,000 mm 4,8 UV-I 823 W/m 14,6 C 25,2 C 5,3 km/h (1 Bft) 96,43 %
22/07/2018 12:46 25,2 C 52 % 1016,4 hPa 0,0 mm 3,3 km/h (1 Bft) N 11 1 min 0 min 0,000 mm 4,8 UV-I 828 W/m 14,6 C 25,2 C 7,1 km/h (2 Bft) 95,83 %
22/07/2018 12:45 25,2 C 49 % 1016,4 hPa 0,0 mm 1,4 km/h (1 Bft) O 271 1 min 0 min 0,000 mm 4,8 UV-I 828 W/m 13,7 C 25,2 C 3,5 km/h (1 Bft) 100,00 %
22/07/2018 12:44 25,2 C 50 % 1016,4 hPa 0,0 mm 2,8 km/h (1 Bft) O 271 1 min 0 min 0,000 mm 4,7 UV-I 824 W/m 14,0 C 25,2 C 3,5 km/h (1 Bft) 100,00 %
22/07/2018 12:43 25,3 C 48 % 1016,4 hPa 0,0 mm 4,2 km/h (1 Bft) N-NE 28 1 min 0 min 0,000 mm 4,7 UV-I 820 W/m 13,5 C 25,3 C 5,3 km/h (1 Bft) 100,00 %
22/07/2018 12:42 25,4 C 49 % 1016,4 hPa 0,0 mm 5,1 km/h (1 Bft) N 5 1 min 0 min 0,000 mm 4,7 UV-I 820 W/m 13,9 C 25,4 C 7,1 km/h (2 Bft) 100,00 %
22/07/2018 12:41 25,5 C 49 % 1016,4 hPa 0,0 mm 6,3 km/h (2 Bft) NE 51 1 min 0 min 0,000 mm 4,7 UV-I 821 W/m 14,0 C 25,5 C 8,9 km/h (2 Bft) 91,67 %
22/07/2018 12:40 25,5 C 54 % 1016,4 hPa 0,0 mm 7,6 km/h (2 Bft) NE 46 1 min 0 min 0,000 mm 4,7 UV-I 821 W/m 15,5 C 25,2 C 14,2 km/h (3 Bft) 100,00 %
22/07/2018 12:39 25,4 C 52 % 1016,4 hPa 0,0 mm 7,5 km/h (2 Bft) N-NE 18 1 min 0 min 0,000 mm 4,7 UV-I 823 W/m 14,8 C 25,1 C 12,4 km/h (2 Bft) 95,83 %
22/07/2018 12:38 25,3 C 52 % 1016,5 hPa 0,0 mm 9,8 km/h (2 Bft) N-NE 13 1 min 0 min 0,000 mm 4,7 UV-I 826 W/m 14,7 C 24,5 C 15,9 km/h (3 Bft) 100,00 %
22/07/2018 12:37 25,1 C 50 % 1016,4 hPa 0,0 mm 10,7 km/h (2 Bft) N 355 1 min 0 min 0,000 mm 4,7 UV-I 829 W/m 13,9 C 24,1 C 15,9 km/h (3 Bft) 100,00 %
22/07/2018 12:36 25,1 C 53 % 1016,5 hPa 0,0 mm 4,8 km/h (1 Bft) N-NE 20 1 min 0 min 0,000 mm 4,7 UV-I 829 W/m 14,8 C 25,1 C 7,1 km/h (2 Bft) 96,00 %
22/07/2018 12:35 25,1 C 48 % 1016,4 hPa 0,0 mm 1,2 km/h (1 Bft) NO 307 1 min 0 min 0,000 mm 4,7 UV-I 827 W/m 13,3 C 25,1 C 3,5 km/h (1 Bft) 100,00 %
22/07/2018 12:34 25,2 C 48 % 1016,4 hPa 0,0 mm 2,2 km/h (1 Bft) N-NE 22 1 min 0 min 0,000 mm 4,7 UV-I 822 W/m 13,4 C 25,2 C 3,5 km/h (1 Bft) 96,00 %
22/07/2018 12:33 25,2 C 50 % 1016,4 hPa 0,0 mm 4,8 km/h (1 Bft) N-NE 22 1 min 0 min 0,000 mm 4,7 UV-I 815 W/m 14,0 C 25,2 C 8,9 km/h (2 Bft) 96,00 %
22/07/2018 12:32 25,2 C 50 % 1016,5 hPa 0,0 mm 3,4 km/h (1 Bft) NE 38 1 min 0 min 0,000 mm 4,6 UV-I 810 W/m 14,0 C 25,2 C 5,3 km/h (1 Bft) 100,00 %
22/07/2018 12:31 25,2 C 54 % 1016,4 hPa 0,0 mm 5,9 km/h (2 Bft) N-NE 21 1 min 0 min 0,000 mm 4,6 UV-I 809 W/m 15,2 C 25,2 C 8,9 km/h (2 Bft) 100,00 %
22/07/2018 12:30 25,1 C 54 % 1016,4 hPa 0,0 mm 5,2 km/h (1 Bft) N-NE 15 1 min 0 min 0,000 mm 4,5 UV-I 805 W/m 15,1 C 25,1 C 7,1 km/h (2 Bft) 96,67 %
22/07/2018 12:29 24,9 C 55 % 1016,5 hPa 0,0 mm 0,5 km/h (0 Bft) E-SE 119 1 min 0 min 0,000 mm 4,5 UV-I 812 W/m 15,2 C 24,9 C 1,8 km/h (1 Bft) 91,67 %
22/07/2018 12:28 24,8 C 49 % 1016,5 hPa 0,0 mm 0,1 km/h (0 Bft) SE 130 1 min 0 min 0,000 mm 4,6 UV-I 812 W/m 13,3 C 24,8 C 1,8 km/h (1 Bft) 100,00 %
22/07/2018 12:27 24,8 C 50 % 1016,5 hPa 0,0 mm 0,4 km/h (0 Bft) SE 130 1 min 0 min 0,000 mm 4,6 UV-I 809 W/m 13,7 C 24,8 C 1,8 km/h (1 Bft) 94,12 %
22/07/2018 12:26 24,9 C 48 % 1016,5 hPa 0,0 mm 1,5 km/h (1 Bft) NE 51 1 min 0 min 0,000 mm 4,5 UV-I 808 W/m 13,1 C 24,9 C 3,5 km/h (1 Bft) 100,00 %
22/07/2018 12:25 25,0 C 47 % 1016,5 hPa 0,0 mm 0,1 km/h (0 Bft) N 360 1 min 0 min 0,000 mm 4,6 UV-I 811 W/m 12,9 C 25,0 C 1,8 km/h (1 Bft) 95,83 %
22/07/2018 12:24 25,1 C 49 % 1016,5 hPa 0,0 mm 2,4 km/h (1 Bft) N 360 1 min 0 min 0,000 mm 4,6 UV-I 812 W/m 13,6 C 25,1 C 5,3 km/h (1 Bft) 96,00 %
22/07/2018 12:23 25,2 C 50 % 1016,5 hPa 0,0 mm 4,1 km/h (1 Bft) N-NO 339 1 min 0 min 0,000 mm 4,6 UV-I 810 W/m 14,0 C 25,2 C 7,1 km/h (2 Bft) 100,00 %
22/07/2018 12:22 25,2 C 50 % 1016,5 hPa 0,0 mm 6,5 km/h (2 Bft) N 360 1 min 0 min 0,000 mm 4,6 UV-I 810 W/m 14,0 C 25,2 C 8,9 km/h (2 Bft) 95,65 %
22/07/2018 12:21 25,2 C 54 % 1016,5 hPa 0,0 mm 5,3 km/h (1 Bft) N 11 1 min 0 min 0,000 mm 4,5 UV-I 808 W/m 15,2 C 25,2 C 12,4 km/h (2 Bft) 100,00 %
22/07/2018 12:20 25,1 C 54 % 1016,5 hPa 0,0 mm 3,4 km/h (1 Bft) N-NE 20 1 min 0 min 0,000 mm 4,5 UV-I 809 W/m 15,1 C 25,1 C 7,1 km/h (2 Bft) 96,00 %
22/07/2018 12:19 25,1 C 52 % 1016,5 hPa 0,0 mm 4,0 km/h (1 Bft) N-NO 330 1 min 0 min 0,000 mm 4,5 UV-I 808 W/m 14,5 C 25,1 C 8,9 km/h (2 Bft) 100,00 %
22/07/2018 12:18 25,1 C 49 % 1016,5 hPa 0,0 mm 3,2 km/h (1 Bft) O-NO 288 1 min 0 min 0,000 mm 4,5 UV-I 806 W/m 13,6 C 25,1 C 5,3 km/h (1 Bft) 96,30 %
22/07/2018 12:17 25,1 C 50 % 1016,5 hPa 0,0 mm 4,1 km/h (1 Bft) O-NO 286 1 min 0 min 0,000 mm 4,5 UV-I 807 W/m 13,9 C 25,1 C 7,1 km/h (2 Bft) 95,83 %
22/07/2018 12:16 25,0 C 54 % 1016,5 hPa 0,0 mm 4,3 km/h (1 Bft) O-NO 292 1 min 0 min 0,000 mm 4,5 UV-I 803 W/m 15,0 C 25,0 C 7,1 km/h (2 Bft) 96,67 %
22/07/2018 12:15 24,9 C 53 % 1016,6 hPa 0,0 mm 3,6 km/h (1 Bft) N-NE 17 1 min 0 min 0,000 mm 4,4 UV-I 800 W/m 14,6 C 24,9 C 5,3 km/h (1 Bft) 95,65 %
22/07/2018 12:14 24,8 C 49 % 1016,6 hPa 0,0 mm 2,5 km/h (1 Bft) N 5 1 min 0 min 0,000 mm 4,4 UV-I 796 W/m 13,3 C 24,8 C 7,1 km/h (2 Bft) 100,00 %
22/07/2018 12:13 24,8 C 47 % 1016,6 hPa 0,0 mm 5,2 km/h (1 Bft) N-NE 20 1 min 0 min 0,000 mm 4,4 UV-I 792 W/m 12,7 C 24,8 C 7,1 km/h (2 Bft) 92,86 %
22/07/2018 12:12 24,9 C 48 % 1016,6 hPa 0,0 mm 4,1 km/h (1 Bft) NE 34 1 min 0 min 0,000 mm 4,3 UV-I 787 W/m 13,1 C 24,9 C 7,1 km/h (2 Bft) 100,00 %
22/07/2018 12:11 24,9 C 54 % 1016,6 hPa 0,0 mm 10,0 km/h (2 Bft) N 5 1 min 0 min 0,000 mm 4,3 UV-I 774 W/m 14,9 C 24,1 C 15,9 km/h (3 Bft) 96,30 %
22/07/2018 12:10 24,7 C 52 % 1016,6 hPa 0,0 mm 6,3 km/h (2 Bft) N 355 1 min 0 min 0,000 mm 4,2 UV-I 774 W/m 14,2 C 24,7 C 8,9 km/h (2 Bft) 97,62 %
22/07/2018 12:09 24,7 C 49 % 1016,6 hPa 0,0 mm 4,8 km/h (1 Bft) N-NE 19 1 min 0 min 0,000 mm 4,2 UV-I 774 W/m 13,3 C 24,7 C 12,4 km/h (2 Bft) 98,30 %
22/07/2018 12:08 24,7 C 50 % 1016,6 hPa 0,0 mm 1,0 km/h (0 Bft) N-NE 17 1 min 0 min 0,000 mm 4,2 UV-I 771 W/m 13,6 C 24,7 C 1,8 km/h (1 Bft) 100,00 %
22/07/2018 12:07 24,6 C 48 % 1016,5 hPa 0,0 mm 4,2 km/h (1 Bft) N-NE 17 1 min 0 min 0,000 mm 4,2 UV-I 772 W/m 12,8 C 24,6 C 5,3 km/h (1 Bft) 96,43 %
22/07/2018 12:06 24,6 C 50 % 1016,6 hPa 0,0 mm 5,8 km/h (2 Bft) N 355 1 min 0 min 0,000 mm 4,2 UV-I 778 W/m 13,5 C 24,6 C 7,1 km/h (2 Bft) 91,67 %
22/07/2018 12:05 24,6 C 50 % 1016,6 hPa 0,0 mm 7,2 km/h (2 Bft) N-NO 327 1 min 0 min 0,000 mm 4,2 UV-I 780 W/m 13,5 C 24,4 C 8,9 km/h (2 Bft) 100,00 %
22/07/2018 12:04 24,4 C 49 % 1016,6 hPa 0,0 mm 7,7 km/h (2 Bft) N 9 1 min 0 min 0,000 mm 4,2 UV-I 772 W/m 13,0 C 24,0 C 10,6 km/h (2 Bft) 100,00 %
22/07/2018 12:03 24,4 C 48 % 1016,6 hPa 0,0 mm 6,2 km/h (2 Bft) N-NE 18 1 min 0 min 0,000 mm 4,1 UV-I 767 W/m 12,7 C 24,4 C 15,9 km/h (3 Bft) 96,00 %
22/07/2018 12:02 24,5 C 49 % 1016,6 hPa 0,0 mm 1,3 km/h (1 Bft) NE 51 1 min 0 min 0,000 mm 4,1 UV-I 762 W/m 13,1 C 24,5 C 3,5 km/h (1 Bft) 95,65 %
22/07/2018 12:01 24,6 C 50 % 1016,6 hPa 0,0 mm 1,9 km/h (1 Bft) NE 52 1 min 0 min 0,000 mm 4,1 UV-I 758 W/m 13,5 C 24,6 C 5,3 km/h (1 Bft) 96,97 %
22/07/2018 12:00 24,6 C 50 % 1016,6 hPa 0,0 mm 3,5 km/h (1 Bft) NE 55 1 min 0 min 0,457 mm 4,0 UV-I 758 W/m 13,5 C 24,6 C 5,3 km/h (1 Bft) 92,31 %
22/07/2018 11:59 24,5 C 50 % 1016,6 hPa 0,0 mm 3,5 km/h (1 Bft) E-NE 71 1 min 0 min 0,000 mm 4,0 UV-I 757 W/m 13,4 C 24,5 C 5,3 km/h (1 Bft) 100,00 %
22/07/2018 11:58 24,4 C 53 % 1016,7 hPa 0,0 mm 3,5 km/h (1 Bft) E-NE 57 1 min 0 min 0,000 mm 4,0 UV-I 751 W/m 14,2 C 24,4 C 7,1 km/h (2 Bft) 96,00 %
22/07/2018 11:57 24,4 C 53 % 1016,6 hPa 0,0 mm 3,1 km/h (1 Bft) NE 50 1 min 0 min 0,000 mm 4,0 UV-I 748 W/m 14,2 C 24,4 C 7,1 km/h (2 Bft) 95,83 %
22/07/2018 11:56 24,5 C 49 % 1016,7 hPa 0,0 mm 1,6 km/h (1 Bft) NO 312 1 min 0 min 0,000 mm 4,0 UV-I 748 W/m 13,1 C 24,5 C 3,5 km/h (1 Bft) 96,00 %
22/07/2018 11:55 24,5 C 48 % 1016,7 hPa 0,0 mm 4,7 km/h (1 Bft) E-NE 65 1 min 0 min 0,000 mm 3,9 UV-I 746 W/m 12,8 C 24,5 C 7,1 km/h (2 Bft) 96,00 %
22/07/2018 11:54 24,5 C 47 % 1016,7 hPa 0,0 mm 5,8 km/h (2 Bft) E-NE 59 1 min 0 min 0,000 mm 3,9 UV-I 744 W/m 12,4 C 24,5 C 8,9 km/h (2 Bft) 100,00 %
22/07/2018 11:53 24,6 C 48 % 1016,7 hPa 0,0 mm 4,2 km/h (1 Bft) N-NE 17 1 min 0 min 0,000 mm 3,9 UV-I 747 W/m 12,8 C 24,6 C 7,1 km/h (2 Bft) 96,55 %
22/07/2018 11:52 24,6 C 49 % 1016,7 hPa 0,0 mm 4,3 km/h (1 Bft) N-NE 28 1 min 0 min 0,000 mm 3,9 UV-I 748 W/m 13,2 C 24,6 C 7,1 km/h (2 Bft) 100,00 %
22/07/2018 11:51 24,5 C 48 % 1016,7 hPa 0,0 mm 5,4 km/h (2 Bft) N-NE 22 1 min 0 min 0,000 mm 3,9 UV-I 750 W/m 12,8 C 24,5 C 7,1 km/h (2 Bft) 100,00 %
22/07/2018 11:50 24,4 C 52 % 1016,7 hPa 0,0 mm 5,3 km/h (1 Bft) N-NE 28 1 min 0 min 0,000 mm 3,9 UV-I 752 W/m 13,9 C 24,4 C 7,1 km/h (2 Bft) 100,00 %
22/07/2018 11:49 24,3 C 56 % 1016,7 hPa 0,0 mm 4,6 km/h (1 Bft) N-NE 22 1 min 0 min 0,000 mm 3,9 UV-I 751 W/m 14,9 C 24,3 C 7,1 km/h (2 Bft) 100,00 %
22/07/2018 11:48 24,2 C 52 % 1016,7 hPa 0,0 mm 1,7 km/h (1 Bft) N 355 1 min 0 min 0,000 mm 3,9 UV-I 749 W/m 13,7 C 24,2 C 3,5 km/h (1 Bft) 100,00 %
22/07/2018 11:47 24,2 C 53 % 1016,7 hPa 0,0 mm 2,5 km/h (1 Bft) N 355 1 min 0 min 0,000 mm 3,9 UV-I 747 W/m 14,0 C 24,2 C 3,5 km/h (1 Bft) 100,00 %
22/07/2018 11:46 24,2 C 53 % 1016,7 hPa 0,0 mm 4,0 km/h (1 Bft) N 5 1 min 0 min 0,000 mm 3,9 UV-I 746 W/m 14,0 C 24,2 C 5,3 km/h (1 Bft) 100,00 %
22/07/2018 11:45 24,2 C 52 % 1016,7 hPa 0,0 mm 1,1 km/h (1 Bft) N 5 1 min 0 min 0,000 mm 3,8 UV-I 739 W/m 13,7 C 24,2 C 1,8 km/h (1 Bft) 100,00 %
22/07/2018 11:44 24,2 C 52 % 1016,7 hPa 0,0 mm 1,8 km/h (1 Bft) N 5 1 min 0 min 0,000 mm 3,7 UV-I 731 W/m 13,7 C 24,2 C 3,5 km/h (1 Bft) 100,00 %
22/07/2018 11:43 24,2 C 52 % 1016,7 hPa 0,0 mm 2,1 km/h (1 Bft) E-NE 73 1 min 0 min 0,000 mm 3,7 UV-I 719 W/m 13,7 C 24,2 C 3,5 km/h (1 Bft) 100,00 %
22/07/2018 11:42 24,2 C 55 % 1016,7 hPa 0,0 mm 2,4 km/h (1 Bft) E-SE 107 1 min 0 min 0,000 mm 3,7 UV-I 714 W/m 14,6 C 24,2 C 3,5 km/h (1 Bft) 100,00 %
22/07/2018 11:41 24,2 C 52 % 1016,7 hPa 0,0 mm 1,4 km/h (1 Bft) S 180 1 min 0 min 0,000 mm 3,6 UV-I 718 W/m 13,7 C 24,2 C 1,8 km/h (1 Bft) 100,00 %
22/07/2018 11:40 24,2 C 52 % 1016,7 hPa 0,0 mm 2,9 km/h (1 Bft) N 355 1 min 0 min 0,000 mm 3,6 UV-I 721 W/m 13,7 C 24,2 C 5,3 km/h (1 Bft) 100,00 %
22/07/2018 11:39 24,2 C 54 % 1016,7 hPa 0,0 mm 2,8 km/h (1 Bft) N-NO 339 1 min 0 min 0,000 mm 3,7 UV-I 721 W/m 14,3 C 24,2 C 3,5 km/h (1 Bft) 100,00 %
22/07/2018 11:38 24,2 C 54 % 1016,7 hPa 0,0 mm 3,7 km/h (1 Bft) N-NO 347 1 min 0 min 0,000 mm 3,7 UV-I 721 W/m 14,3 C 24,2 C 5,3 km/h (1 Bft) 100,00 %
22/07/2018 11:37 24,2 C 55 % 1016,7 hPa 0,0 mm 2,7 km/h (1 Bft) N-NE 12 1 min 0 min 0,000 mm 3,6 UV-I 720 W/m 14,6 C 24,2 C 5,3 km/h (1 Bft) 100,00 %
22/07/2018 11:36 24,1 C 55 % 1016,7 hPa 0,0 mm 3,0 km/h (1 Bft) N-NO 338 1 min 0 min 0,000 mm 3,6 UV-I 717 W/m 14,5 C 24,1 C 7,1 km/h (2 Bft) 100,00 %
22/07/2018 11:35 24,0 C 55 % 1016,6 hPa 0,0 mm 4,5 km/h (1 Bft) NE 42 1 min 0 min 0,000 mm 3,6 UV-I 714 W/m 14,4 C 24,0 C 7,1 km/h (2 Bft) 100,00 %
22/07/2018 11:34 23,8 C 58 % 1016,7 hPa 0,0 mm 4,4 km/h (1 Bft) NO 310 1 min 0 min 0,000 mm 3,6 UV-I 715 W/m 15,0 C 23,8 C 7,1 km/h (2 Bft) 100,00 %
22/07/2018 11:33 23,7 C 56 % 1016,7 hPa 0,0 mm 3,9 km/h (1 Bft) N-NO 327 1 min 0 min 0,000 mm 3,5 UV-I 713 W/m 14,4 C 23,7 C 7,1 km/h (2 Bft) 100,00 %
22/07/2018 11:32 23,7 C 55 % 1016,7 hPa 0,0 mm 3,0 km/h (1 Bft) NO 321 1 min 0 min 0,000 mm 3,5 UV-I 708 W/m 14,1 C 23,7 C 7,1 km/h (2 Bft) 96,30 %
22/07/2018 11:31 23,7 C 58 % 1016,7 hPa 0,0 mm 3,9 km/h (1 Bft) N-NO 331 1 min 0 min 0,000 mm 3,5 UV-I 707 W/m 14,9 C 23,7 C 7,1 km/h (2 Bft) 96,30 %
22/07/2018 11:30 23,7 C 56 % 1016,7 hPa 0,0 mm 3,8 km/h (1 Bft) N-NE 25 1 min 0 min 0,000 mm 3,5 UV-I 705 W/m 14,4 C 23,7 C 5,3 km/h (1 Bft) 96,15 %
22/07/2018 11:29 23,7 C 55 % 1016,7 hPa 0,0 mm 0,2 km/h (0 Bft) NE 41 1 min 0 min 0,000 mm 3,5 UV-I 702 W/m 14,1 C 23,7 C 1,8 km/h (1 Bft) 100,00 %
22/07/2018 11:28 23,7 C 57 % 1016,7 hPa 0,0 mm 0,2 km/h (0 Bft) NE 41 1 min 0 min 0,000 mm 3,5 UV-I 699 W/m 14,7 C 23,7 C 1,8 km/h (1 Bft) 96,15 %
22/07/2018 11:27 23,7 C 54 % 1016,7 hPa 0,0 mm 1,7 km/h (1 Bft) NE 42 1 min 0 min 0,000 mm 3,4 UV-I 695 W/m 13,8 C 23,7 C 3,5 km/h (1 Bft) 96,30 %
22/07/2018 11:26 23,6 C 56 % 1016,7 hPa 0,0 mm 2,0 km/h (1 Bft) E 94 1 min 0 min 0,000 mm 3,4 UV-I 694 W/m 14,3 C 23,6 C 5,3 km/h (1 Bft) 100,00 %
22/07/2018 11:25 23,6 C 55 % 1016,7 hPa 0,0 mm 0,3 km/h (0 Bft) O-NO 293 1 min 0 min 0,000 mm 3,4 UV-I 692 W/m 14,0 C 23,6 C 1,8 km/h (1 Bft) 100,00 %
22/07/2018 11:24 23,5 C 55 % 1016,7 hPa 0,0 mm 1,9 km/h (1 Bft) O-NO 294 1 min 0 min 0,000 mm 3,4 UV-I 697 W/m 13,9 C 23,5 C 5,3 km/h (1 Bft) 96,15 %
22/07/2018 11:23 23,4 C 54 % 1016,7 hPa 0,0 mm 0,7 km/h (0 Bft) O-NO 292 1 min 0 min 0,000 mm 3,4 UV-I 696 W/m 13,6 C 23,4 C 3,5 km/h (1 Bft) 96,15 %
22/07/2018 11:22 23,3 C 50 % 1016,7 hPa 0,0 mm 3,5 km/h (1 Bft) O-NO 292 1 min 0 min 0,000 mm 3,4 UV-I 694 W/m 12,3 C 23,3 C 7,1 km/h (2 Bft) 100,00 %
22/07/2018 11:21 23,4 C 52 % 1016,7 hPa 0,0 mm 6,0 km/h (2 Bft) O-NO 299 1 min 0 min 0,000 mm 3,3 UV-I 691 W/m 13,0 C 23,4 C 10,6 km/h (2 Bft) 91,30 %
22/07/2018 11:20 23,3 C 59 % 1016,7 hPa 0,0 mm 4,4 km/h (1 Bft) O-NO 288 1 min 0 min 0,000 mm 3,3 UV-I 689 W/m 14,8 C 23,3 C 7,1 km/h (2 Bft) 95,83 %
22/07/2018 11:19 23,4 C 55 % 1016,7 hPa 0,0 mm 1,5 km/h (1 Bft) O 273 1 min 0 min 0,000 mm 3,3 UV-I 687 W/m 13,8 C 23,4 C 3,5 km/h (1 Bft) 100,00 %
22/07/2018 11:18 23,4 C 57 % 1016,6 hPa 0,0 mm 1,4 km/h (1 Bft) O 267 1 min 0 min 0,000 mm 3,3 UV-I 686 W/m 14,4 C 23,4 C 3,5 km/h (1 Bft) 95,83 %
22/07/2018 11:17 23,3 C 55 % 1016,6 hPa 0,0 mm 2,5 km/h (1 Bft) O 267 1 min 0 min 0,000 mm 3,3 UV-I 685 W/m 13,7 C 23,3 C 5,3 km/h (1 Bft) 100,00 %
22/07/2018 11:16 23,3 C 56 % 1016,6 hPa 0,0 mm 3,7 km/h (1 Bft) O 267 1 min 0 min 0,000 mm 3,2 UV-I 679 W/m 14,0 C 23,3 C 5,3 km/h (1 Bft) 95,83 %
22/07/2018 11:15 23,3 C 56 % 1016,6 hPa 0,0 mm 3,7 km/h (1 Bft) O 272 1 min 0 min 0,000 mm 3,2 UV-I 678 W/m 14,0 C 23,3 C 10,6 km/h (2 Bft) 100,00 %
22/07/2018 11:14 23,3 C 58 % 1016,6 hPa 0,0 mm 3,8 km/h (1 Bft) O-SO 253 1 min 0 min 0,000 mm 3,2 UV-I 675 W/m 14,6 C 23,3 C 7,1 km/h (2 Bft) 100,00 %
22/07/2018 11:13 23,3 C 61 % 1016,6 hPa 0,0 mm 3,5 km/h (1 Bft) O-SO 252 1 min 0 min 0,000 mm 3,2 UV-I 671 W/m 15,3 C 23,3 C 5,3 km/h (1 Bft) 100,00 %
22/07/2018 11:12 23,2 C 59 % 1016,7 hPa 0,0 mm 1,6 km/h (1 Bft) O-NO 284 1 min 0 min 0,000 mm 3,1 UV-I 670 W/m 14,7 C 23,2 C 3,5 km/h (1 Bft) 100,00 %
22/07/2018 11:11 23,2 C 61 % 1016,6 hPa 0,0 mm 0,5 km/h (0 Bft) N 355 1 min 0 min 0,000 mm 3,1 UV-I 668 W/m 15,3 C 23,2 C 1,8 km/h (1 Bft) 100,00 %
22/07/2018 11:10 23,3 C 63 % 1016,7 hPa 0,0 mm 2,5 km/h (1 Bft) N 355 1 min 0 min 0,000 mm 3,1 UV-I 662 W/m 15,9 C 23,3 C 5,3 km/h (1 Bft) 100,00 %
22/07/2018 11:09 23,3 C 62 % 1016,7 hPa 0,0 mm 3,8 km/h (1 Bft) N 360 1 min 0 min 0,000 mm 3,1 UV-I 658 W/m 15,6 C 23,3 C 5,3 km/h (1 Bft) 100,00 %
22/07/2018 11:08 23,2 C 62 % 1016,7 hPa 0,0 mm 3,8 km/h (1 Bft) N 355 1 min 0 min 0,000 mm 3,1 UV-I 656 W/m 15,5 C 23,2 C 5,3 km/h (1 Bft) 97,22 %
22/07/2018 11:07 23,1 C 61 % 1016,6 hPa 0,0 mm 6,4 km/h (2 Bft) N 5 1 min 0 min 0,000 mm 3,0 UV-I 659 W/m 15,2 C 23,1 C 8,9 km/h (2 Bft) 100,00 %
22/07/2018 11:06 23,0 C 64 % 1016,6 hPa 0,0 mm 5,0 km/h (1 Bft) N 360 1 min 0 min 0,000 mm 3,0 UV-I 656 W/m 15,8 C 23,0 C 8,9 km/h (2 Bft) 100,00 %
22/07/2018 11:05 22,9 C 63 % 1016,6 hPa 0,0 mm 4,0 km/h (1 Bft) N 9 1 min 0 min 0,000 mm 3,0 UV-I 650 W/m 15,5 C 22,9 C 8,9 km/h (2 Bft) 100,00 %
22/07/2018 11:04 22,8 C 64 % 1016,7 hPa 0,0 mm 3,1 km/h (1 Bft) SO 228 1 min 0 min 0,000 mm 3,0 UV-I 647 W/m 15,6 C 22,8 C 3,5 km/h (1 Bft) 100,00 %
22/07/2018 11:03 22,8 C 65 % 1016,6 hPa 0,0 mm 1,8 km/h (1 Bft) O 263 1 min 0 min 0,000 mm 2,9 UV-I 642 W/m 15,9 C 22,8 C 5,3 km/h (1 Bft) 96,15 %
22/07/2018 11:02 22,8 C 62 % 1016,7 hPa 0,0 mm 3,2 km/h (1 Bft) O-SO 249 1 min 0 min 0,000 mm 2,9 UV-I 638 W/m 15,1 C 22,8 C 7,1 km/h (2 Bft) 95,83 %
22/07/2018 11:01 22,8 C 62 % 1016,6 hPa 0,0 mm 4,2 km/h (1 Bft) O 267 1 min 0 min 0,000 mm 2,9 UV-I 630 W/m 15,1 C 22,8 C 5,3 km/h (1 Bft) 100,00 %
22/07/2018 11:00 22,7 C 63 % 1016,6 hPa 0,0 mm 2,4 km/h (1 Bft) O 269 1 min 0 min 0,330 mm 2,9 UV-I 622 W/m 15,3 C 22,7 C 5,3 km/h (1 Bft) 96,00 %
22/07/2018 10:59 22,7 C 65 % 1016,6 hPa 0,0 mm 2,2 km/h (1 Bft) O 275 1 min 0 min 0,000 mm 2,8 UV-I 620 W/m 15,8 C 22,7 C 5,3 km/h (1 Bft) 100,00 %
22/07/2018 10:58 22,7 C 64 % 1016,6 hPa 0,0 mm 0,4 km/h (0 Bft) O-NO 298 1 min 0 min 0,000 mm 2,8 UV-I 619 W/m 15,5 C 22,7 C 1,8 km/h (1 Bft) 100,00 %
22/07/2018 10:57 22,7 C 64 % 1016,6 hPa 0,0 mm 0,0 km/h (0 Bft) N 355 1 min 0 min 0,000 mm 2,8 UV-I 622 W/m 15,5 C 22,7 C 0,0 km/h (0 Bft) 100,00 %
22/07/2018 10:56 22,7 C 62 % 1016,6 hPa 0,0 mm 0,4 km/h (0 Bft) N 355 1 min 0 min 0,000 mm 2,8 UV-I 621 W/m 15,0 C 22,7 C 1,8 km/h (1 Bft) 100,00 %
22/07/2018 10:55 22,7 C 62 % 1016,6 hPa 0,0 mm 3,8 km/h (1 Bft) N 355 1 min 0 min 0,000 mm 2,7 UV-I 614 W/m 15,0 C 22,7 C 5,3 km/h (1 Bft) 100,00 %
22/07/2018 10:54 22,7 C 63 % 1016,6 hPa 0,0 mm 5,0 km/h (1 Bft) N 11 1 min 0 min 0,000 mm 2,7 UV-I 607 W/m 15,3 C 22,7 C 8,9 km/h (2 Bft) 100,00 %
22/07/2018 10:53 22,7 C 63 % 1016,6 hPa 0,0 mm 2,4 km/h (1 Bft) N-NE 26 1 min 0 min 0,000 mm 2,7 UV-I 605 W/m 15,3 C 22,7 C 5,3 km/h (1 Bft) 100,00 %
22/07/2018 10:52 22,7 C 65 % 1016,6 hPa 0,0 mm 6,7 km/h (2 Bft) N-NE 21 1 min 0 min 0,000 mm 2,7 UV-I 605 W/m 15,8 C 22,6 C 8,9 km/h (2 Bft) 100,00 %
22/07/2018 10:51 22,7 C 66 % 1016,6 hPa 0,0 mm 5,3 km/h (1 Bft) N 5 2 min 0 min 0,000 mm 2,6 UV-I 597 W/m 16,0 C 22,7 C 8,9 km/h (2 Bft) 100,00 %
22/07/2018 10:49 22,7 C 67 % 1016,6 hPa 0,0 mm 2,7 km/h (1 Bft) N-NO 342 1 min 0 min 0,000 mm 2,6 UV-I 596 W/m 16,2 C 22,7 C 5,3 km/h (1 Bft) 100,00 %
22/07/2018 10:48 22,6 C 67 % 1016,6 hPa 0,0 mm 2,4 km/h (1 Bft) O-NO 302 1 min 0 min 0,000 mm 2,6 UV-I 601 W/m 16,2 C 22,6 C 5,3 km/h (1 Bft) 95,65 %
22/07/2018 10:47 22,5 C 66 % 1016,6 hPa 0,0 mm 1,3 km/h (1 Bft) O 269 1 min 0 min 0,000 mm 2,6 UV-I 597 W/m 15,8 C 22,5 C 3,5 km/h (1 Bft) 95,83 %
22/07/2018 10:46 22,5 C 67 % 1016,6 hPa 0,0 mm 2,3 km/h (1 Bft) O 269 1 min 0 min 0,000 mm 2,5 UV-I 592 W/m 16,1 C 22,5 C 5,3 km/h (1 Bft) 100,00 %
22/07/2018 10:45 22,4 C 67 % 1016,6 hPa 0,0 mm 5,1 km/h (1 Bft) O 267 1 min 0 min 0,000 mm 2,5 UV-I 589 W/m 16,0 C 22,4 C 7,1 km/h (2 Bft) 100,00 %
22/07/2018 10:44 22,4 C 67 % 1016,6 hPa 0,0 mm 3,1 km/h (1 Bft) O-SO 251 1 min 0 min 0,000 mm 2,5 UV-I 586 W/m 16,0 C 22,4 C 7,1 km/h (2 Bft) 92,00 %
22/07/2018 10:43 22,5 C 67 % 1016,6 hPa 0,0 mm 2,4 km/h (1 Bft) NE 34 1 min 0 min 0,000 mm 2,5 UV-I 584 W/m 16,1 C 22,5 C 5,3 km/h (1 Bft) 100,00 %
22/07/2018 10:42 22,6 C 65 % 1016,6 hPa 0,0 mm 0,1 km/h (0 Bft) N-NO 329 1 min 0 min 0,000 mm 2,5 UV-I 582 W/m 15,7 C 22,6 C 1,8 km/h (1 Bft) 98,28 %
22/07/2018 10:41 22,6 C 68 % 1016,6 hPa 0,0 mm 1,6 km/h (1 Bft) N-NO 329 1 min 0 min 0,000 mm 2,4 UV-I 581 W/m 16,4 C 22,6 C 3,5 km/h (1 Bft) 100,00 %
22/07/2018 10:40 22,6 C 67 % 1016,6 hPa 0,0 mm 3,8 km/h (1 Bft) N-NO 329 1 min 0 min 0,000 mm 2,4 UV-I 582 W/m 16,2 C 22,6 C 7,1 km/h (2 Bft) 95,83 %
22/07/2018 10:39 22,4 C 66 % 1016,6 hPa 0,0 mm 4,1 km/h (1 Bft) N-NE 22 1 min 0 min 0,000 mm 2,4 UV-I 577 W/m 15,7 C 22,4 C 5,3 km/h (1 Bft) 100,00 %
22/07/2018 10:38 22,4 C 68 % 1016,6 hPa 0,0 mm 0,7 km/h (0 Bft) NO 323 1 min 0 min 0,000 mm 2,4 UV-I 566 W/m 16,2 C 22,4 C 1,8 km/h (1 Bft) 100,00 %
22/07/2018 10:37 22,4 C 70 % 1016,6 hPa 0,0 mm 1,5 km/h (1 Bft) N-NO 339 1 min 0 min 0,000 mm 2,3 UV-I 553 W/m 16,7 C 22,4 C 3,5 km/h (1 Bft) 100,00 %
22/07/2018 10:36 22,4 C 70 % 1016,6 hPa 0,0 mm 3,1 km/h (1 Bft) N-NO 338 1 min 0 min 0,000 mm 2,3 UV-I 549 W/m 16,7 C 22,4 C 5,3 km/h (1 Bft) 100,00 %
22/07/2018 10:35 22,3 C 69 % 1016,6 hPa 0,0 mm 2,2 km/h (1 Bft) N-NO 338 1 min 0 min 0,000 mm 2,3 UV-I 555 W/m 16,3 C 22,3 C 3,5 km/h (1 Bft) 100,00 %
22/07/2018 10:34 22,3 C 67 % 1016,6 hPa 0,0 mm 3,4 km/h (1 Bft) N-NO 338 1 min 0 min 0,000 mm 2,3 UV-I 560 W/m 15,9 C 22,3 C 7,1 km/h (2 Bft) 100,00 %
22/07/2018 10:33 22,3 C 70 % 1016,6 hPa 0,0 mm 3,3 km/h (1 Bft) NE 56 1 min 0 min 0,000 mm 2,3 UV-I 560 W/m 16,6 C 22,3 C 5,3 km/h (1 Bft) 100,00 %
22/07/2018 10:32 22,3 C 69 % 1016,6 hPa 0,0 mm 4,4 km/h (1 Bft) NE 41 1 min 0 min 0,000 mm 2,3 UV-I 559 W/m 16,3 C 22,3 C 7,1 km/h (2 Bft) 100,00 %
22/07/2018 10:31 22,3 C 69 % 1016,6 hPa 0,0 mm 4,2 km/h (1 Bft) N-NE 19 1 min 0 min 0,000 mm 2,3 UV-I 557 W/m 16,3 C 22,3 C 7,1 km/h (2 Bft) 100,00 %
22/07/2018 10:30 22,2 C 68 % 1016,6 hPa 0,0 mm 3,7 km/h (1 Bft) N 360 1 min 0 min 0,000 mm 2,2 UV-I 556 W/m 16,0 C 22,2 C 5,3 km/h (1 Bft) 100,00 %
22/07/2018 10:29 22,2 C 69 % 1016,5 hPa 0,0 mm 2,5 km/h (1 Bft) N-NE 24 1 min 0 min 0,000 mm 2,2 UV-I 552 W/m 16,2 C 22,2 C 5,3 km/h (1 Bft) 100,00 %
22/07/2018 10:28 22,1 C 70 % 1016,5 hPa 0,0 mm 1,7 km/h (1 Bft) O-NO 298 1 min 0 min 0,000 mm 2,2 UV-I 546 W/m 16,4 C 22,1 C 1,8 km/h (1 Bft) 100,00 %
22/07/2018 10:27 22,0 C 68 % 1016,6 hPa 0,0 mm 0,7 km/h (0 Bft) O-NO 298 1 min 0 min 0,000 mm 2,2 UV-I 542 W/m 15,8 C 22,0 C 3,5 km/h (1 Bft) 100,00 %
22/07/2018 10:26 21,9 C 70 % 1016,6 hPa 0,0 mm 1,9 km/h (1 Bft) O-NO 298 1 min 0 min 0,000 mm 2,2 UV-I 540 W/m 16,2 C 21,9 C 3,5 km/h (1 Bft) 90,91 %
22/07/2018 10:25 21,8 C 68 % 1016,6 hPa 0,0 mm 3,8 km/h (1 Bft) NE 36 1 min 0 min 0,000 mm 2,1 UV-I 534 W/m 15,6 C 21,8 C 7,1 km/h (2 Bft) 100,00 %
22/07/2018 10:24 21,8 C 68 % 1016,6 hPa 0,0 mm 5,0 km/h (1 Bft) N 9 1 min 0 min 0,000 mm 2,1 UV-I 529 W/m 15,6 C 21,8 C 7,1 km/h (2 Bft) 96,15 %
22/07/2018 10:23 21,8 C 69 % 1016,6 hPa 0,0 mm 4,4 km/h (1 Bft) NE 48 1 min 0 min 0,000 mm 2,0 UV-I 521 W/m 15,9 C 21,8 C 5,3 km/h (1 Bft) 96,43 %
22/07/2018 10:22 21,8 C 69 % 1016,6 hPa 0,0 mm 0,8 km/h (0 Bft) NE 46 1 min 0 min 0,000 mm 2,0 UV-I 509 W/m 15,9 C 21,8 C 3,5 km/h (1 Bft) 96,00 %
22/07/2018 10:21 21,7 C 69 % 1016,6 hPa 0,0 mm 4,2 km/h (1 Bft) N 5 1 min 0 min 0,000 mm 2,0 UV-I 504 W/m 15,8 C 21,7 C 5,3 km/h (1 Bft) 100,00 %
22/07/2018 10:20 21,6 C 70 % 1016,6 hPa 0,0 mm 5,2 km/h (1 Bft) N-NO 344 1 min 0 min 0,000 mm 2,0 UV-I 504 W/m 15,9 C 21,6 C 7,1 km/h (2 Bft) 100,00 %
22/07/2018 10:19 21,6 C 68 % 1016,5 hPa 0,0 mm 5,2 km/h (1 Bft) N-NE 26 1 min 0 min 0,000 mm 2,0 UV-I 497 W/m 15,4 C 21,6 C 8,9 km/h (2 Bft) 100,00 %
22/07/2018 10:18 21,5 C 70 % 1016,6 hPa 0,0 mm 2,5 km/h (1 Bft) N 5 1 min 0 min 0,000 mm 2,0 UV-I 497 W/m 15,8 C 21,5 C 3,5 km/h (1 Bft) 97,37 %
22/07/2018 10:17 21,5 C 70 % 1016,6 hPa 0,0 mm 1,9 km/h (1 Bft) N 360 1 min 0 min 0,000 mm 2,0 UV-I 501 W/m 15,8 C 21,5 C 3,5 km/h (1 Bft) 98,25 %
22/07/2018 10:16 21,5 C 69 % 1016,6 hPa 0,0 mm 3,2 km/h (1 Bft) N 360 1 min 0 min 0,000 mm 1,9 UV-I 505 W/m 15,6 C 21,5 C 5,3 km/h (1 Bft) 100,00 %
22/07/2018 10:15 21,5 C 70 % 1016,6 hPa 0,0 mm 6,3 km/h (2 Bft) N-NE 12 1 min 0 min 0,000 mm 1,9 UV-I 503 W/m 15,8 C 21,5 C 8,9 km/h (2 Bft) 100,00 %
22/07/2018 10:14 21,4 C 72 % 1016,6 hPa 0,0 mm 4,2 km/h (1 Bft) N 355 1 min 0 min 0,000 mm 1,9 UV-I 500 W/m 16,1 C 21,4 C 7,1 km/h (2 Bft) 100,00 %
22/07/2018 10:13 21,3 C 72 % 1016,6 hPa 0,0 mm 4,7 km/h (1 Bft) N-NE 15 1 min 0 min 0,000 mm 1,9 UV-I 488 W/m 16,0 C 21,3 C 7,1 km/h (2 Bft) 100,00 %
22/07/2018 10:12 21,3 C 73 % 1016,6 hPa 0,0 mm 6,5 km/h (2 Bft) N-NE 17 1 min 0 min 0,000 mm 1,8 UV-I 484 W/m 16,3 C 21,3 C 8,9 km/h (2 Bft) 100,00 %
22/07/2018 10:11 21,2 C 74 % 1016,6 hPa 0,0 mm 3,1 km/h (1 Bft) N-NE 13 1 min 0 min 0,000 mm 1,8 UV-I 482 W/m 16,4 C 21,2 C 7,1 km/h (2 Bft) 100,00 %
22/07/2018 10:10 21,1 C 74 % 1016,6 hPa 0,0 mm 1,5 km/h (1 Bft) N-NO 327 1 min 0 min 0,000 mm 1,8 UV-I 480 W/m 16,3 C 21,1 C 3,5 km/h (1 Bft) 100,00 %
22/07/2018 10:09 21,0 C 72 % 1016,6 hPa 0,0 mm 3,3 km/h (1 Bft) N-NO 327 1 min 0 min 0,000 mm 1,8 UV-I 477 W/m 15,8 C 21,0 C 5,3 km/h (1 Bft) 96,00 %
22/07/2018 10:08 21,0 C 72 % 1016,6 hPa 0,0 mm 1,9 km/h (1 Bft) O-NO 297 1 min 0 min 0,000 mm 1,8 UV-I 476 W/m 15,8 C 21,0 C 3,5 km/h (1 Bft) 95,65 %
22/07/2018 10:07 21,0 C 73 % 1016,6 hPa 0,0 mm 0,8 km/h (0 Bft) N 11 1 min 0 min 0,000 mm 1,8 UV-I 475 W/m 16,0 C 21,0 C 3,5 km/h (1 Bft) 100,00 %
22/07/2018 10:06 20,9 C 74 % 1016,6 hPa 0,0 mm 1,8 km/h (1 Bft) N 11 1 min 0 min 0,000 mm 1,7 UV-I 471 W/m 16,1 C 20,9 C 3,5 km/h (1 Bft) 100,00 %
22/07/2018 10:05 20,8 C 74 % 1016,6 hPa 0,0 mm 2,3 km/h (1 Bft) N-NE 12 1 min 0 min 0,000 mm 1,7 UV-I 467 W/m 16,0 C 20,8 C 5,3 km/h (1 Bft) 96,30 %
22/07/2018 10:04 20,8 C 74 % 1016,6 hPa 0,0 mm 3,8 km/h (1 Bft) N-NE 13 1 min 0 min 0,000 mm 1,7 UV-I 469 W/m 16,0 C 20,8 C 7,1 km/h (2 Bft) 100,00 %
22/07/2018 10:03 20,7 C 73 % 1016,7 hPa 0,0 mm 4,2 km/h (1 Bft) N-NO 331 1 min 0 min 0,000 mm 1,7 UV-I 468 W/m 15,7 C 20,7 C 5,3 km/h (1 Bft) 100,00 %
22/07/2018 10:02 20,6 C 72 % 1016,6 hPa 0,0 mm 2,3 km/h (1 Bft) NO 323 1 min 0 min 0,000 mm 1,7 UV-I 459 W/m 15,4 C 20,6 C 5,3 km/h (1 Bft) 96,55 %
22/07/2018 10:01 20,6 C 73 % 1016,7 hPa 0,0 mm 1,5 km/h (1 Bft) N-NE 26 1 min 0 min 0,000 mm 1,7 UV-I 455 W/m 15,6 C 20,6 C 1,8 km/h (1 Bft) 100,00 %
22/07/2018 10:00 20,6 C 72 % 1016,7 hPa 0,0 mm 3,4 km/h (1 Bft) N-NE 26 1 min 0 min 0,153 mm 1,6 UV-I 455 W/m 15,4 C 20,6 C 5,3 km/h (1 Bft) 96,30 %
22/07/2018 09:59 20,6 C 72 % 1016,7 hPa 0,0 mm 2,1 km/h (1 Bft) N-NE 14 1 min 0 min 0,000 mm 1,6 UV-I 451 W/m 15,4 C 20,6 C 3,5 km/h (1 Bft) 100,00 %
22/07/2018 09:58 20,7 C 74 % 1016,7 hPa 0,0 mm 3,2 km/h (1 Bft) N 360 1 min 0 min 0,000 mm 1,6 UV-I 444 W/m 15,9 C 20,7 C 5,3 km/h (1 Bft) 96,43 %
22/07/2018 09:57 20,6 C 73 % 1016,7 hPa 0,0 mm 1,8 km/h (1 Bft) N-NE 31 1 min 0 min 0,000 mm 1,6 UV-I 439 W/m 15,6 C 20,6 C 3,5 km/h (1 Bft) 96,15 %
22/07/2018 09:56 20,6 C 73 % 1016,7 hPa 0,0 mm 1,0 km/h (0 Bft) NE 37 1 min 0 min 0,000 mm 1,5 UV-I 435 W/m 15,6 C 20,6 C 1,8 km/h (1 Bft) 100,00 %
22/07/2018 09:55 20,6 C 75 % 1016,7 hPa 0,0 mm 4,9 km/h (1 Bft) NE 37 1 min 0 min 0,000 mm 1,5 UV-I 423 W/m 16,0 C 20,6 C 7,1 km/h (2 Bft) 100,00 %
22/07/2018 09:54 20,5 C 74 % 1016,7 hPa 0,0 mm 2,3 km/h (1 Bft) N-NE 30 1 min 0 min 0,000 mm 1,5 UV-I 430 W/m 15,7 C 20,5 C 7,1 km/h (2 Bft) 100,00 %
22/07/2018 09:53 20,4 C 75 % 1016,7 hPa 0,0 mm 2,7 km/h (1 Bft) O-SO 248 1 min 0 min 0,000 mm 1,5 UV-I 430 W/m 15,8 C 20,4 C 7,1 km/h (2 Bft) 95,65 %
22/07/2018 09:52 20,4 C 74 % 1016,7 hPa 0,0 mm 3,8 km/h (1 Bft) O 273 1 min 0 min 0,000 mm 1,5 UV-I 435 W/m 15,6 C 20,4 C 7,1 km/h (2 Bft) 100,00 %
22/07/2018 09:51 20,3 C 74 % 1016,7 hPa 0,0 mm 0,5 km/h (0 Bft) N-NE 18 1 min 0 min 0,000 mm 1,5 UV-I 436 W/m 15,5 C 20,3 C 1,8 km/h (1 Bft) 95,65 %
22/07/2018 09:50 20,3 C 73 % 1016,7 hPa 0,0 mm 0,3 km/h (0 Bft) N-NE 24 1 min 0 min 0,000 mm 1,5 UV-I 432 W/m 15,3 C 20,3 C 1,8 km/h (1 Bft) 100,00 %
22/07/2018 09:49 20,3 C 73 % 1016,7 hPa 0,0 mm 2,9 km/h (1 Bft) N-NE 24 1 min 0 min 0,000 mm 1,5 UV-I 429 W/m 15,3 C 20,3 C 5,3 km/h (1 Bft) 96,00 %
22/07/2018 09:48 20,2 C 75 % 1016,7 hPa 0,0 mm 1,5 km/h (1 Bft) O-NO 298 1 min 0 min 0,000 mm 1,4 UV-I 425 W/m 15,6 C 20,2 C 3,5 km/h (1 Bft) 95,83 %
22/07/2018 09:47 20,1 C 74 % 1016,7 hPa 0,0 mm 3,2 km/h (1 Bft) O-NO 298 1 min 0 min 0,000 mm 1,4 UV-I 424 W/m 15,3 C 20,1 C 5,3 km/h (1 Bft) 96,15 %
22/07/2018 09:46 20,1 C 75 % 1016,7 hPa 0,0 mm 4,0 km/h (1 Bft) O-NO 298 1 min 0 min 0,000 mm 1,4 UV-I 423 W/m 15,5 C 20,1 C 5,3 km/h (1 Bft) 91,30 %
22/07/2018 09:45 20,1 C 75 % 1016,7 hPa 0,0 mm 3,2 km/h (1 Bft) O-NO 298 1 min 0 min 0,000 mm 1,4 UV-I 422 W/m 15,5 C 20,1 C 5,3 km/h (1 Bft) 100,00 %
22/07/2018 09:44 20,1 C 75 % 1016,7 hPa 0,0 mm 1,0 km/h (0 Bft) O-NO 297 1 min 0 min 0,000 mm 1,4 UV-I 420 W/m 15,5 C 20,1 C 1,8 km/h (1 Bft) 95,65 %
22/07/2018 09:43 20,1 C 75 % 1016,7 hPa 0,0 mm 0,0 km/h (0 Bft) O-NO 297 1 min 0 min 0,000 mm 1,4 UV-I 420 W/m 15,5 C 20,1 C 0,0 km/h (0 Bft) 100,00 %
22/07/2018 09:42 20,1 C 76 % 1016,7 hPa 0,0 mm 2,5 km/h (1 Bft) O-NO 297 1 min 0 min 0,000 mm 1,3 UV-I 418 W/m 15,7 C 20,1 C 5,3 km/h (1 Bft) 96,55 %
22/07/2018 09:41 20,1 C 78 % 1016,7 hPa 0,0 mm 3,9 km/h (1 Bft) O-NO 297 1 min 0 min 0,000 mm 1,3 UV-I 414 W/m 16,1 C 20,1 C 5,3 km/h (1 Bft) 100,00 %
22/07/2018 09:40 20,0 C 78 % 1016,7 hPa 0,0 mm 1,5 km/h (1 Bft) O-NO 296 1 min 0 min 0,000 mm 1,3 UV-I 409 W/m 16,0 C 20,0 C 3,5 km/h (1 Bft) 95,83 %
22/07/2018 09:39 19,9 C 76 % 1016,7 hPa 0,0 mm 1,6 km/h (1 Bft) O-NO 296 1 min 0 min 0,000 mm 1,3 UV-I 355 W/m 15,5 C 19,9 C 3,5 km/h (1 Bft) 100,00 %
22/07/2018 09:38 19,9 C 77 % 1016,7 hPa 0,0 mm 0,9 km/h (0 Bft) O-NO 296 0 min 0 min 0,000 mm 1,3 UV-I 271 W/m 15,7 C 19,9 C 3,5 km/h (1 Bft) 95,74 %
22/07/2018 09:37 19,8 C 77 % 1016,7 hPa 0,0 mm 1,6 km/h (1 Bft) O-NO 297 0 min 0 min 0,000 mm 1,3 UV-I 229 W/m 15,6 C 19,8 C 7,1 km/h (2 Bft) 100,00 %
22/07/2018 09:35 19,8 C 80 % 1016,7 hPa 0,0 mm 0,6 km/h (0 Bft) N-NO 338 0 min 0 min 0,000 mm 1,2 UV-I 278 W/m 16,2 C 19,8 C 3,5 km/h (1 Bft) 96,00 %
22/07/2018 09:34 19,8 C 79 % 1016,7 hPa 0,0 mm 0,2 km/h (0 Bft) N-NO 340 1 min 0 min 0,000 mm 1,2 UV-I 292 W/m 16,0 C 19,8 C 1,8 km/h (1 Bft) 100,00 %
22/07/2018 09:33 19,7 C 78 % 1016,7 hPa 0,0 mm 0,3 km/h (0 Bft) N 355 0 min 0 min 0,000 mm 1,2 UV-I 215 W/m 15,8 C 19,7 C 1,8 km/h (1 Bft) 96,15 %
22/07/2018 09:32 19,7 C 77 % 1016,7 hPa 0,0 mm 2,8 km/h (1 Bft) N 355 0 min 0 min 0,000 mm 1,2 UV-I 169 W/m 15,5 C 19,7 C 5,3 km/h (1 Bft) 100,00 %
22/07/2018 09:31 19,7 C 78 % 1016,7 hPa 0,0 mm 3,3 km/h (1 Bft) N 355 0 min 0 min 0,000 mm 1,2 UV-I 175 W/m 15,8 C 19,7 C 5,3 km/h (1 Bft) 96,00 %
22/07/2018 09:30 19,7 C 79 % 1016,8 hPa 0,0 mm 2,4 km/h (1 Bft) N-NO 348 0 min 0 min 0,000 mm 1,2 UV-I 167 W/m 16,0 C 19,7 C 5,3 km/h (1 Bft) 100,00 %
22/07/2018 09:29 19,7 C 78 % 1016,8 hPa 0,0 mm 1,8 km/h (1 Bft) NO 317 0 min 0 min 0,000 mm 1,1 UV-I 151 W/m 15,8 C 19,7 C 3,5 km/h (1 Bft) 91,67 %
22/07/2018 09:28 19,6 C 79 % 1016,8 hPa 0,0 mm 1,4 km/h (1 Bft) NO 317 0 min 0 min 0,000 mm 1,1 UV-I 150 W/m 15,9 C 19,6 C 3,5 km/h (1 Bft) 100,00 %
22/07/2018 09:27 19,6 C 79 % 1016,8 hPa 0,0 mm 1,5 km/h (1 Bft) NO 317 0 min 0 min 0,000 mm 1,1 UV-I 139 W/m 15,9 C 19,6 C 3,5 km/h (1 Bft) 95,83 %
22/07/2018 09:26 19,6 C 80 % 1016,8 hPa 0,0 mm 0,7 km/h (0 Bft) NO 315 0 min 0 min 0,000 mm 1,1 UV-I 146 W/m 16,1 C 19,6 C 1,8 km/h (1 Bft) 96,77 %
22/07/2018 09:25 19,5 C 81 % 1016,8 hPa 0,0 mm 1,8 km/h (1 Bft) NO 315 0 min 0 min 0,000 mm 1,0 UV-I 149 W/m 16,1 C 19,5 C 3,5 km/h (1 Bft) 100,00 %
22/07/2018 09:24 19,4 C 80 % 1016,8 hPa 0,0 mm 0,5 km/h (0 Bft) NO 315 0 min 0 min 0,000 mm 1,0 UV-I 153 W/m 15,9 C 19,4 C 1,8 km/h (1 Bft) 92,86 %
22/07/2018 09:23 19,3 C 80 % 1016,8 hPa 0,0 mm 0,6 km/h (0 Bft) NO 315 0 min 0 min 0,000 mm 1,0 UV-I 149 W/m 15,8 C 19,3 C 1,8 km/h (1 Bft) 100,00 %
22/07/2018 09:22 19,3 C 80 % 1016,8 hPa 0,0 mm 0,1 km/h (0 Bft) NO 315 0 min 0 min 0,000 mm 0,9 UV-I 150 W/m 15,8 C 19,3 C 1,8 km/h (1 Bft) 95,65 %
22/07/2018 09:21 19,3 C 81 % 1016,8 hPa 0,0 mm 0,0 km/h (0 Bft) NO 315 0 min 0 min 0,000 mm 0,9 UV-I 156 W/m 16,0 C 19,3 C 0,0 km/h (0 Bft) 100,00 %
22/07/2018 09:20 19,3 C 81 % 1016,8 hPa 0,0 mm 0,0 km/h (0 Bft) NO 315 0 min 0 min 0,000 mm 0,9 UV-I 165 W/m 16,0 C 19,3 C 0,0 km/h (0 Bft) 100,00 %
22/07/2018 09:19 19,2 C 80 % 1016,8 hPa 0,0 mm 0,8 km/h (0 Bft) NO 315 0 min 0 min 0,000 mm 0,9 UV-I 151 W/m 15,7 C 19,2 C 3,5 km/h (1 Bft) 96,43 %
22/07/2018 09:18 19,2 C 81 % 1016,8 hPa 0,0 mm 0,0 km/h (0 Bft) NO 321 0 min 0 min 0,000 mm 0,9 UV-I 134 W/m 15,9 C 19,2 C 0,0 km/h (0 Bft) 100,00 %
22/07/2018 09:17 19,2 C 81 % 1016,8 hPa 0,0 mm 1,4 km/h (1 Bft) NO 321 0 min 0 min 0,000 mm 0,9 UV-I 132 W/m 15,9 C 19,2 C 3,5 km/h (1 Bft) 97,96 %
22/07/2018 09:15 19,2 C 81 % 1016,8 hPa 0,0 mm 4,0 km/h (1 Bft) NO 324 0 min 0 min 0,000 mm 0,8 UV-I 130 W/m 15,9 C 19,2 C 7,1 km/h (2 Bft) 100,00 %
22/07/2018 09:14 19,1 C 82 % 1016,7 hPa 0,0 mm 0,2 km/h (0 Bft) O-NO 302 0 min 0 min 0,000 mm 0,8 UV-I 151 W/m 16,0 C 19,1 C 1,8 km/h (1 Bft) 97,14 %
22/07/2018 09:12 19,1 C 84 % 1016,8 hPa 0,0 mm 1,0 km/h (0 Bft) O-NO 302 0 min 0 min 0,000 mm 0,8 UV-I 149 W/m 16,3 C 19,1 C 3,5 km/h (1 Bft) 100,00 %
22/07/2018 09:11 19,0 C 84 % 1016,7 hPa 0,0 mm 1,9 km/h (1 Bft) O-NO 302 0 min 0 min 0,000 mm 0,8 UV-I 147 W/m 16,2 C 19,0 C 3,5 km/h (1 Bft) 100,00 %
22/07/2018 09:10 18,9 C 85 % 1016,8 hPa 0,0 mm 0,8 km/h (0 Bft) O-NO 302 0 min 0 min 0,000 mm 0,8 UV-I 152 W/m 16,3 C 18,9 C 1,8 km/h (1 Bft) 100,00 %
22/07/2018 09:09 18,9 C 85 % 1016,7 hPa 0,0 mm 0,7 km/h (0 Bft) O-NO 302 0 min 0 min 0,000 mm 0,8 UV-I 143 W/m 16,3 C 18,9 C 1,8 km/h (1 Bft) 100,00 %
22/07/2018 09:08 18,8 C 85 % 1016,7 hPa 0,0 mm 1,5 km/h (1 Bft) O-NO 302 0 min 0 min 0,000 mm 0,8 UV-I 158 W/m 16,2 C 18,8 C 3,5 km/h (1 Bft) 100,00 %
22/07/2018 09:07 18,8 C 87 % 1016,8 hPa 0,0 mm 0,0 km/h (0 Bft) O-NO 298 0 min 0 min 0,000 mm 0,8 UV-I 174 W/m 16,6 C 18,8 C 0,0 km/h (0 Bft) 100,00 %
22/07/2018 09:06 18,7 C 87 % 1016,7 hPa 0,0 mm 0,0 km/h (0 Bft) O-NO 298 0 min 0 min 0,000 mm 0,8 UV-I 156 W/m 16,5 C 18,7 C 0,0 km/h (0 Bft) 100,00 %
22/07/2018 09:05 18,7 C 87 % 1016,8 hPa 0,0 mm 0,0 km/h (0 Bft) O-NO 298 0 min 0 min 0,000 mm 0,7 UV-I 141 W/m 16,5 C 18,7 C 0,0 km/h (0 Bft) 100,00 %
22/07/2018 09:04 18,6 C 88 % 1016,8 hPa 0,0 mm 0,1 km/h (0 Bft) O-NO 298 0 min 0 min 0,000 mm 0,7 UV-I 142 W/m 16,6 C 18,6 C 1,8 km/h (1 Bft) 100,00 %
22/07/2018 09:03 18,5 C 88 % 1016,8 hPa 0,0 mm 1,4 km/h (1 Bft) O-NO 298 0 min 0 min 0,000 mm 0,7 UV-I 172 W/m 16,5 C 18,5 C 1,8 km/h (1 Bft) 100,00 %
22/07/2018 09:02 18,4 C 88 % 1016,8 hPa 0,0 mm 2,8 km/h (1 Bft) O-NO 298 0 min 0 min 0,000 mm 0,7 UV-I 232 W/m 16,4 C 18,4 C 3,5 km/h (1 Bft) 100,00 %
22/07/2018 09:01 18,4 C 88 % 1016,8 hPa 0,0 mm 0,5 km/h (0 Bft) N-NE 13 1 min 0 min 0,000 mm 0,7 UV-I 270 W/m 16,4 C 18,4 C 1,8 km/h (1 Bft) 100,00 %
22/07/2018 09:00 18,3 C 87 % 1016,8 hPa 0,0 mm 0,0 km/h (0 Bft) N-NE 21 1 min 0 min 0,076 mm 0,7 UV-I 271 W/m 16,1 C 18,3 C 0,0 km/h (0 Bft) 96,77 %
22/07/2018 08:59 18,3 C 88 % 1016,8 hPa 0,0 mm 0,2 km/h (0 Bft) N-NE 21 1 min 0 min 0,000 mm 0,7 UV-I 264 W/m 16,3 C 18,3 C 1,8 km/h (1 Bft) 100,00 %
22/07/2018 08:58 18,3 C 88 % 1016,8 hPa 0,0 mm 0,9 km/h (0 Bft) N 11 1 min 0 min 0,000 mm 0,7 UV-I 240 W/m 16,3 C 18,3 C 3,5 km/h (1 Bft) 95,65 %
22/07/2018 08:57 18,3 C 89 % 1016,8 hPa 0,0 mm 0,8 km/h (0 Bft) N 11 0 min 0 min 0,000 mm 0,7 UV-I 193 W/m 16,5 C 18,3 C 3,5 km/h (1 Bft) 100,00 %
22/07/2018 08:56 18,2 C 88 % 1016,8 hPa 0,0 mm 0,0 km/h (0 Bft) N 11 0 min 0 min 0,000 mm 0,6 UV-I 153 W/m 16,2 C 18,2 C 0,0 km/h (0 Bft) 100,00 %
22/07/2018 08:55 18,2 C 88 % 1016,8 hPa 0,0 mm 0,0 km/h (0 Bft) N 11 0 min 0 min 0,000 mm 0,6 UV-I 154 W/m 16,2 C 18,2 C 0,0 km/h (0 Bft) 96,00 %
22/07/2018 08:54 18,2 C 88 % 1016,8 hPa 0,0 mm 0,0 km/h (0 Bft) N 11 0 min 0 min 0,000 mm 0,6 UV-I 150 W/m 16,2 C 18,2 C 0,0 km/h (0 Bft) 100,00 %
22/07/2018 08:53 18,2 C 89 % 1016,8 hPa 0,0 mm 1,5 km/h (1 Bft) N 11 0 min 0 min 0,000 mm 0,6 UV-I 139 W/m 16,4 C 18,2 C 1,8 km/h (1 Bft) 100,00 %
22/07/2018 08:52 18,2 C 89 % 1016,8 hPa 0,0 mm 1,1 km/h (1 Bft) N 11 0 min 0 min 0,000 mm 0,6 UV-I 137 W/m 16,4 C 18,2 C 1,8 km/h (1 Bft) 100,00 %
22/07/2018 08:51 18,1 C 89 % 1016,7 hPa 0,0 mm 4,8 km/h (1 Bft) N 11 0 min 0 min 0,000 mm 0,6 UV-I 134 W/m 16,3 C 18,1 C 7,1 km/h (2 Bft) 100,00 %
22/07/2018 08:50 18,0 C 89 % 1016,7 hPa 0,0 mm 3,6 km/h (1 Bft) N-NE 28 0 min 0 min 0,000 mm 0,6 UV-I 130 W/m 16,2 C 18,0 C 7,1 km/h (2 Bft) 100,00 %
22/07/2018 08:49 17,9 C 89 % 1016,7 hPa 0,0 mm 2,5 km/h (1 Bft) O-NO 288 0 min 0 min 0,000 mm 0,6 UV-I 125 W/m 16,1 C 17,9 C 5,3 km/h (1 Bft) 100,00 %
22/07/2018 08:48 17,9 C 89 % 1016,7 hPa 0,0 mm 0,2 km/h (0 Bft) O-NO 288 0 min 0 min 0,000 mm 0,6 UV-I 122 W/m 16,1 C 17,9 C 1,8 km/h (1 Bft) 100,00 %
22/07/2018 08:47 17,9 C 89 % 1016,7 hPa 0,0 mm 0,0 km/h (0 Bft) O-NO 288 0 min 0 min 0,000 mm 0,6 UV-I 120 W/m 16,1 C 17,9 C 0,0 km/h (0 Bft) 100,00 %
22/07/2018 08:46 17,9 C 88 % 1016,7 hPa 0,0 mm 0,0 km/h (0 Bft) O-NO 288 0 min 0 min 0,000 mm 0,5 UV-I 120 W/m 15,9 C 17,9 C 0,0 km/h (0 Bft) 100,00 %
22/07/2018 08:45 17,9 C 88 % 1016,7 hPa 0,0 mm 0,0 km/h (0 Bft) O-NO 288 0 min 0 min 0,000 mm 0,5 UV-I 122 W/m 15,9 C 17,9 C 0,0 km/h (0 Bft) 100,00 %
22/07/2018 08:44 17,9 C 88 % 1016,7 hPa 0,0 mm 0,5 km/h (0 Bft) O-NO 288 0 min 0 min 0,000 mm 0,5 UV-I 134 W/m 15,9 C 17,9 C 3,5 km/h (1 Bft) 100,00 %
22/07/2018 08:43 17,9 C 89 % 1016,7 hPa 0,0 mm 2,1 km/h (1 Bft) O-NO 288 0 min 0 min 0,000 mm 0,5 UV-I 135 W/m 16,1 C 17,9 C 3,5 km/h (1 Bft) 100,00 %
22/07/2018 08:42 17,9 C 89 % 1016,7 hPa 0,0 mm 0,3 km/h (0 Bft) O-NO 288 0 min 0 min 0,000 mm 0,5 UV-I 133 W/m 16,1 C 17,9 C 1,8 km/h (1 Bft) 100,00 %
22/07/2018 08:41 17,9 C 89 % 1016,7 hPa 0,0 mm 0,1 km/h (0 Bft) O-NO 288 0 min 0 min 0,000 mm 0,5 UV-I 135 W/m 16,1 C 17,9 C 1,8 km/h (1 Bft) 100,00 %
22/07/2018 08:40 17,8 C 89 % 1016,7 hPa 0,0 mm 0,4 km/h (0 Bft) O-NO 288 0 min 0 min 0,000 mm 0,5 UV-I 139 W/m 16,0 C 17,8 C 1,8 km/h (1 Bft) 96,00 %
22/07/2018 08:39 17,8 C 89 % 1016,7 hPa 0,0 mm 0,1 km/h (0 Bft) O-NO 288 0 min 0 min 0,000 mm 0,5 UV-I 142 W/m 16,0 C 17,8 C 1,8 km/h (1 Bft) 95,83 %
22/07/2018 08:38 17,8 C 90 % 1016,7 hPa 0,0 mm 0,2 km/h (0 Bft) O-NO 288 0 min 0 min 0,000 mm 0,5 UV-I 145 W/m 16,1 C 17,8 C 1,8 km/h (1 Bft) 100,00 %
22/07/2018 08:37 17,8 C 90 % 1016,7 hPa 0,0 mm 0,5 km/h (0 Bft) O-NO 288 0 min 0 min 0,000 mm 0,5 UV-I 147 W/m 16,1 C 17,8 C 1,8 km/h (1 Bft) 100,00 %
22/07/2018 08:36 17,7 C 90 % 1016,7 hPa 0,0 mm 1,6 km/h (1 Bft) O-NO 288 0 min 0 min 0,000 mm 0,5 UV-I 152 W/m 16,0 C 17,7 C 1,8 km/h (1 Bft) 98,21 %
22/07/2018 08:35 17,7 C 90 % 1016,7 hPa 0,0 mm 1,8 km/h (1 Bft) O-NO 288 0 min 0 min 0,000 mm 0,5 UV-I 153 W/m 16,0 C 17,7 C 3,5 km/h (1 Bft) 100,00 %
22/07/2018 08:34 17,6 C 90 % 1016,8 hPa 0,0 mm 0,0 km/h (0 Bft) O-NO 288 0 min 0 min 0,000 mm 0,5 UV-I 151 W/m 15,9 C 17,6 C 0,0 km/h (0 Bft) 100,00 %
22/07/2018 08:33 17,6 C 90 % 1016,7 hPa 0,0 mm 1,2 km/h (1 Bft) O-NO 288 0 min 0 min 0,000 mm 0,5 UV-I 150 W/m 15,9 C 17,6 C 3,5 km/h (1 Bft) 96,00 %
22/07/2018 08:32 17,6 C 90 % 1016,7 hPa 0,0 mm 0,2 km/h (0 Bft) O-NO 288 0 min 0 min 0,000 mm 0,3 UV-I 139 W/m 15,9 C 17,6 C 1,8 km/h (1 Bft) 95,83 %
22/07/2018 08:31 17,5 C 90 % 1016,7 hPa 0,0 mm 0,2 km/h (0 Bft) O-NO 288 0 min 0 min 0,000 mm 0,0 UV-I 126 W/m 15,8 C 17,5 C 1,8 km/h (1 Bft) 100,00 %
22/07/2018 08:29 17,4 C 90 % 1016,7 hPa 0,0 mm 0,2 km/h (0 Bft) O-NO 288 0 min 0 min 0,000 mm 0,0 UV-I 110 W/m 15,7 C 17,4 C 1,8 km/h (1 Bft) 100,00 %
22/07/2018 08:28 17,4 C 90 % 1016,7 hPa 0,0 mm 0,0 km/h (0 Bft) O-NO 288 0 min 0 min 0,000 mm 0,0 UV-I 105 W/m 15,7 C 17,4 C 0,0 km/h (0 Bft) 100,00 %
22/07/2018 08:27 17,4 C 90 % 1016,6 hPa 0,0 mm 0,0 km/h (0 Bft) O-NO 288 0 min 0 min 0,000 mm 0,0 UV-I 104 W/m 15,7 C 17,4 C 0,0 km/h (0 Bft) 100,00 %
22/07/2018 08:26 17,4 C 90 % 1016,6 hPa 0,0 mm 0,0 km/h (0 Bft) O-NO 288 0 min 0 min 0,000 mm 0,0 UV-I 103 W/m 15,7 C 17,4 C 0,0 km/h (0 Bft) 95,83 %
22/07/2018 08:25 17,4 C 90 % 1016,7 hPa 0,0 mm 0,0 km/h (0 Bft) O-NO 288 0 min 0 min 0,000 mm 0,0 UV-I 103 W/m 15,7 C 17,4 C 0,0 km/h (0 Bft) 100,00 %
22/07/2018 08:24 17,4 C 90 % 1016,6 hPa 0,0 mm 1,4 km/h (1 Bft) O-NO 288 0 min 0 min 0,000 mm 0,0 UV-I 106 W/m 15,7 C 17,4 C 3,5 km/h (1 Bft) 100,00 %
22/07/2018 08:23 17,4 C 90 % 1016,7 hPa 0,0 mm 1,2 km/h (1 Bft) O-NO 288 0 min 0 min 0,000 mm 0,0 UV-I 110 W/m 15,7 C 17,4 C 3,5 km/h (1 Bft) 100,00 %
22/07/2018 08:22 17,4 C 91 % 1016,7 hPa 0,0 mm 0,0 km/h (0 Bft) O-NO 288 0 min 0 min 0,000 mm 0,0 UV-I 113 W/m 15,9 C 17,4 C 0,0 km/h (0 Bft) 86,67 %
22/07/2018 08:21 17,3 C 91 % 1016,7 hPa 0,0 mm 0,0 km/h (0 Bft) O-NO 288 0 min 0 min 0,000 mm 0,0 UV-I 114 W/m 15,8 C 17,3 C 0,0 km/h (0 Bft) 100,00 %
22/07/2018 08:20 17,3 C 91 % 1016,6 hPa 0,0 mm 0,0 km/h (0 Bft) O-NO 288 0 min 0 min 0,000 mm 0,0 UV-I 114 W/m 15,8 C 17,3 C 0,0 km/h (0 Bft) 100,00 %
22/07/2018 08:19 17,3 C 91 % 1016,7 hPa 0,0 mm 0,0 km/h (0 Bft) O-NO 288 0 min 0 min 0,000 mm 0,0 UV-I 113 W/m 15,8 C 17,3 C 0,0 km/h (0 Bft) 96,00 %
22/07/2018 08:18 17,2 C 91 % 1016,7 hPa 0,0 mm 0,0 km/h (0 Bft) O-NO 288 0 min 0 min 0,000 mm 0,0 UV-I 112 W/m 15,7 C 17,2 C 0,0 km/h (0 Bft) 100,00 %
22/07/2018 08:17 17,1 C 91 % 1016,6 hPa 0,0 mm 0,0 km/h (0 Bft) O-NO 288 0 min 0 min 0,000 mm 0,0 UV-I 109 W/m 15,6 C 17,1 C 0,0 km/h (0 Bft) 95,12 %
22/07/2018 08:16 17,1 C 91 % 1016,6 hPa 0,0 mm 0,0 km/h (0 Bft) O-NO 288 0 min 0 min 0,000 mm 0,0 UV-I 104 W/m 15,6 C 17,1 C 0,0 km/h (0 Bft) 98,21 %
22/07/2018 08:15 17,1 C 91 % 1016,6 hPa 0,0 mm 0,0 km/h (0 Bft) O-NO 288 0 min 0 min 0,000 mm 0,0 UV-I 99 W/m 15,6 C 17,1 C 0,0 km/h (0 Bft) 98,08 %
22/07/2018 08:13 17,0 C 92 % 1016,6 hPa 0,0 mm 0,0 km/h (0 Bft) O-NO 288 0 min 0 min 0,000 mm 0,0 UV-I 95 W/m 15,7 C 17,0 C 0,0 km/h (0 Bft) 100,00 %
22/07/2018 08:12 17,0 C 92 % 1016,6 hPa 0,0 mm 0,0 km/h (0 Bft) O-NO 288 0 min 0 min 0,000 mm 0,0 UV-I 91 W/m 15,7 C 17,0 C 0,0 km/h (0 Bft) 100,00 %
22/07/2018 08:11 16,9 C 92 % 1016,6 hPa 0,0 mm 0,0 km/h (0 Bft) O-NO 288 0 min 0 min 0,000 mm 0,0 UV-I 86 W/m 15,6 C 16,9 C 0,0 km/h (0 Bft) 96,30 %
22/07/2018 08:10 16,8 C 92 % 1016,6 hPa 0,0 mm 0,0 km/h (0 Bft) O-NO 288 0 min 0 min 0,000 mm 0,0 UV-I 84 W/m 15,5 C 16,8 C 0,0 km/h (0 Bft) 100,00 %
22/07/2018 08:09 16,8 C 92 % 1016,5 hPa 0,0 mm 0,0 km/h (0 Bft) O-NO 288 0 min 0 min 0,000 mm 0,0 UV-I 84 W/m 15,5 C 16,8 C 0,0 km/h (0 Bft) 100,00 %
22/07/2018 08:08 16,8 C 92 % 1016,6 hPa 0,0 mm 0,0 km/h (0 Bft) O-NO 288 0 min 0 min 0,000 mm 0,0 UV-I 84 W/m 15,5 C 16,8 C 0,0 km/h (0 Bft) 96,97 %
22/07/2018 08:07 16,7 C 92 % 1016,5 hPa 0,0 mm 0,0 km/h (0 Bft) O-NO 288 0 min 0 min 0,000 mm 0,0 UV-I 83 W/m 15,4 C 16,7 C 0,0 km/h (0 Bft) 100,00 %
22/07/2018 08:06 16,7 C 92 % 1016,5 hPa 0,0 mm 0,0 km/h (0 Bft) O-NO 288 0 min 0 min 0,000 mm 0,0 UV-I 82 W/m 15,4 C 16,7 C 0,0 km/h (0 Bft) 100,00 %
22/07/2018 08:05 16,7 C 92 % 1016,5 hPa 0,0 mm 0,0 km/h (0 Bft) O-NO 288 0 min 0 min 0,000 mm 0,0 UV-I 81 W/m 15,4 C 16,7 C 0,0 km/h (0 Bft) 100,00 %
22/07/2018 08:04 16,6 C 92 % 1016,5 hPa 0,0 mm 0,0 km/h (0 Bft) O-NO 288 0 min 0 min 0,000 mm 0,0 UV-I 78 W/m 15,3 C 16,6 C 0,0 km/h (0 Bft) 100,00 %
22/07/2018 08:03 16,6 C 92 % 1016,5 hPa 0,0 mm 0,0 km/h (0 Bft) O-NO 288 0 min 0 min 0,000 mm 0,0 UV-I 73 W/m 15,3 C 16,6 C 0,0 km/h (0 Bft) 100,00 %
22/07/2018 08:02 16,6 C 92 % 1016,5 hPa 0,0 mm 0,0 km/h (0 Bft) O-NO 288 0 min 0 min 0,000 mm 0,0 UV-I 70 W/m 15,3 C 16,6 C 0,0 km/h (0 Bft) 100,00 %
22/07/2018 08:01 16,6 C 92 % 1016,5 hPa 0,0 mm 0,0 km/h (0 Bft) O-NO 288 0 min 0 min 0,000 mm 0,0 UV-I 68 W/m 15,3 C 16,6 C 0,0 km/h (0 Bft) 100,00 %
22/07/2018 08:00 16,6 C 92 % 1016,5 hPa 0,0 mm 0,0 km/h (0 Bft) O-NO 288 0 min 0 min 0,025 mm 0,0 UV-I 66 W/m 15,3 C 16,6 C 0,0 km/h (0 Bft) 100,00 %
22/07/2018 07:59 16,5 C 92 % 1016,5 hPa 0,0 mm 0,0 km/h (0 Bft) O-NO 288 0 min 0 min 0,000 mm 0,0 UV-I 65 W/m 15,2 C 16,5 C 0,0 km/h (0 Bft) 95,65 %
22/07/2018 07:58 16,5 C 92 % 1016,5 hPa 0,0 mm 0,3 km/h (0 Bft) O-NO 288 0 min 0 min 0,000 mm 0,0 UV-I 63 W/m 15,2 C 16,5 C 1,8 km/h (1 Bft) 100,00 %
22/07/2018 07:56 16,5 C 92 % 1016,4 hPa 0,0 mm 1,3 km/h (1 Bft) O-NO 288 0 min 0 min 0,000 mm 0,0 UV-I 60 W/m 15,2 C 16,5 C 3,5 km/h (1 Bft) 100,00 %
22/07/2018 07:55 16,5 C 92 % 1016,4 hPa 0,0 mm 0,5 km/h (0 Bft) O-NO 288 0 min 0 min 0,000 mm 0,0 UV-I 66 W/m 15,2 C 16,5 C 1,8 km/h (1 Bft) 100,00 %
22/07/2018 07:54 16,5 C 92 % 1016,4 hPa 0,0 mm 0,2 km/h (0 Bft) O-NO 288 0 min 0 min 0,000 mm 0,0 UV-I 70 W/m 15,2 C 16,5 C 1,8 km/h (1 Bft) 100,00 %
22/07/2018 07:53 16,4 C 92 % 1016,5 hPa 0,0 mm 0,6 km/h (0 Bft) O-NO 288 0 min 0 min 0,000 mm 0,0 UV-I 69 W/m 15,1 C 16,4 C 1,8 km/h (1 Bft) 100,00 %
22/07/2018 07:52 16,4 C 93 % 1016,5 hPa 0,0 mm 0,0 km/h (0 Bft) O-NO 288 0 min 0 min 0,000 mm 0,0 UV-I 68 W/m 15,3 C 16,4 C 0,0 km/h (0 Bft) 98,04 %
22/07/2018 07:50 16,3 C 92 % 1016,5 hPa 0,0 mm 0,1 km/h (0 Bft) O-NO 288 0 min 0 min 0,000 mm 0,0 UV-I 66 W/m 15,0 C 16,3 C 1,8 km/h (1 Bft) 100,00 %
22/07/2018 07:49 16,3 C 92 % 1016,5 hPa 0,0 mm 1,4 km/h (1 Bft) O-NO 288 0 min 0 min 0,000 mm 0,0 UV-I 64 W/m 15,0 C 16,3 C 1,8 km/h (1 Bft) 100,00 %
22/07/2018 07:48 16,3 C 93 % 1016,5 hPa 0,0 mm 0,2 km/h (0 Bft) O-NO 288 0 min 0 min 0,000 mm 0,0 UV-I 62 W/m 15,2 C 16,3 C 1,8 km/h (1 Bft) 100,00 %
22/07/2018 07:47 16,3 C 93 % 1016,5 hPa 0,0 mm 0,0 km/h (0 Bft) O-NO 288 0 min 0 min 0,000 mm 0,0 UV-I 62 W/m 15,2 C 16,3 C 0,0 km/h (0 Bft) 95,83 %
22/07/2018 07:46 16,3 C 93 % 1016,4 hPa 0,0 mm 0,8 km/h (0 Bft) O-NO 288 0 min 0 min 0,000 mm 0,0 UV-I 63 W/m 15,2 C 16,3 C 1,8 km/h (1 Bft) 100,00 %
22/07/2018 07:45 16,3 C 93 % 1016,4 hPa 0,0 mm 0,4 km/h (0 Bft) O-NO 288 0 min 0 min 0,000 mm 0,0 UV-I 67 W/m 15,2 C 16,3 C 1,8 km/h (1 Bft) 96,67 %
22/07/2018 07:44 16,3 C 93 % 1016,4 hPa 0,0 mm 0,1 km/h (0 Bft) O-NO 288 0 min 0 min 0,000 mm 0,0 UV-I 62 W/m 15,2 C 16,3 C 1,8 km/h (1 Bft) 100,00 %
22/07/2018 07:43 16,3 C 93 % 1016,4 hPa 0,0 mm 0,0 km/h (0 Bft) O-NO 288 0 min 0 min 0,000 mm 0,0 UV-I 58 W/m 15,2 C 16,3 C 0,0 km/h (0 Bft) 100,00 %
22/07/2018 07:42 16,3 C 93 % 1016,4 hPa 0,0 mm 0,0 km/h (0 Bft) O-NO 288 0 min 0 min 0,000 mm 0,0 UV-I 58 W/m 15,2 C 16,3 C 0,0 km/h (0 Bft) 100,00 %
22/07/2018 07:41 16,2 C 93 % 1016,3 hPa 0,0 mm 0,0 km/h (0 Bft) O-NO 288 0 min 0 min 0,000 mm 0,0 UV-I 58 W/m 15,1 C 16,2 C 0,0 km/h (0 Bft) 100,00 %
22/07/2018 07:40 16,2 C 93 % 1016,4 hPa 0,0 mm 0,0 km/h (0 Bft) O-NO 288 0 min 0 min 0,000 mm 0,0 UV-I 58 W/m 15,1 C 16,2 C 0,0 km/h (0 Bft) 91,67 %
22/07/2018 07:39 16,2 C 93 % 1016,4 hPa 0,0 mm 0,0 km/h (0 Bft) O-NO 288 0 min 0 min 0,000 mm 0,0 UV-I 59 W/m 15,1 C 16,2 C 0,0 km/h (0 Bft) 100,00 %
22/07/2018 07:38 16,2 C 93 % 1016,4 hPa 0,0 mm 0,3 km/h (0 Bft) O-NO 288 0 min 0 min 0,000 mm 0,0 UV-I 63 W/m 15,1 C 16,2 C 1,8 km/h (1 Bft) 100,00 %
22/07/2018 07:37 16,2 C 94 % 1016,4 hPa 0,0 mm 1,0 km/h (0 Bft) O-NO 288 0 min 0 min 0,000 mm 0,0 UV-I 68 W/m 15,2 C 16,2 C 1,8 km/h (1 Bft) 100,00 %
22/07/2018 07:36 16,2 C 94 % 1016,4 hPa 0,0 mm 1,2 km/h (1 Bft) O-NO 288 0 min 0 min 0,000 mm 0,0 UV-I 66 W/m 15,2 C 16,2 C 3,5 km/h (1 Bft) 92,00 %
22/07/2018 07:35 16,2 C 94 % 1016,4 hPa 0,0 mm 0,6 km/h (0 Bft) O-NO 288 0 min 0 min 0,000 mm 0,0 UV-I 59 W/m 15,2 C 16,2 C 1,8 km/h (1 Bft) 100,00 %
22/07/2018 07:34 16,2 C 94 % 1016,4 hPa 0,0 mm 0,2 km/h (0 Bft) O-NO 288 0 min 0 min 0,000 mm 0,0 UV-I 52 W/m 15,2 C 16,2 C 1,8 km/h (1 Bft) 100,00 %
22/07/2018 07:33 16,2 C 94 % 1016,3 hPa 0,0 mm 1,0 km/h (0 Bft) O-NO 288 0 min 0 min 0,000 mm 0,0 UV-I 56 W/m 15,2 C 16,2 C 1,8 km/h (1 Bft) 95,83 %
22/07/2018 07:32 16,1 C 94 % 1016,4 hPa 0,0 mm 0,0 km/h (0 Bft) O-NO 288 0 min 0 min 0,000 mm 0,0 UV-I 59 W/m 15,1 C 16,1 C 0,0 km/h (0 Bft) 100,00 %
22/07/2018 07:31 16,1 C 94 % 1016,4 hPa 0,0 mm 0,0 km/h (0 Bft) O-NO 288 0 min 0 min 0,000 mm 0,0 UV-I 60 W/m 15,1 C 16,1 C 0,0 km/h (0 Bft) 100,00 %
22/07/2018 07:30 16,1 C 94 % 1016,4 hPa 0,0 mm 0,0 km/h (0 Bft) O-NO 288 0 min 0 min 0,000 mm 0,0 UV-I 62 W/m 15,1 C 16,1 C 0,0 km/h (0 Bft) 96,30 %
22/07/2018 07:29 16,1 C 94 % 1016,4 hPa 0,0 mm 0,0 km/h (0 Bft) O-NO 288 0 min 0 min 0,000 mm 0,0 UV-I 62 W/m 15,1 C 16,1 C 0,0 km/h (0 Bft) 97,06 %
22/07/2018 07:28 16,0 C 94 % 1016,3 hPa 0,0 mm 0,0 km/h (0 Bft) O-NO 288 0 min 0 min 0,000 mm 0,0 UV-I 60 W/m 15,0 C 16,0 C 0,0 km/h (0 Bft) 100,00 %
22/07/2018 07:27 15,9 C 94 % 1016,3 hPa 0,0 mm 0,0 km/h (0 Bft) O-NO 289 0 min 0 min 0,000 mm 0,0 UV-I 58 W/m 14,9 C 15,9 C 0,0 km/h (0 Bft) 95,65 %
22/07/2018 07:26 15,9 C 94 % 1016,3 hPa 0,0 mm 0,0 km/h (0 Bft) O-NO 289 0 min 0 min 0,000 mm 0,0 UV-I 57 W/m 14,9 C 15,9 C 0,0 km/h (0 Bft) 95,83 %
22/07/2018 07:25 15,9 C 94 % 1016,3 hPa 0,0 mm 0,0 km/h (0 Bft) O-NO 289 0 min 0 min 0,000 mm 0,0 UV-I 55 W/m 14,9 C 15,9 C 0,0 km/h (0 Bft) 100,00 %
22/07/2018 07:24 15,8 C 94 % 1016,3 hPa 0,0 mm 0,0 km/h (0 Bft) O-NO 289 0 min 0 min 0,000 mm 0,0 UV-I 53 W/m 14,8 C 15,8 C 0,0 km/h (0 Bft) 95,83 %
22/07/2018 07:23 15,8 C 94 % 1016,2 hPa 0,0 mm 0,0 km/h (0 Bft) O-NO 289 0 min 0 min 0,000 mm 0,0 UV-I 50 W/m 14,8 C 15,8 C 0,0 km/h (0 Bft) 100,00 %
22/07/2018 07:22 15,8 C 94 % 1016,3 hPa 0,0 mm 0,0 km/h (0 Bft) O-NO 289 0 min 0 min 0,000 mm 0,0 UV-I 49 W/m 14,8 C 15,8 C 0,0 km/h (0 Bft) 96,00 %
22/07/2018 07:21 15,8 C 94 % 1016,2 hPa 0,0 mm 0,0 km/h (0 Bft) O-NO 289 0 min 0 min 0,000 mm 0,0 UV-I 48 W/m 14,8 C 15,8 C 0,0 km/h (0 Bft) 100,00 %
22/07/2018 07:20 15,7 C 94 % 1016,2 hPa 0,0 mm 0,0 km/h (0 Bft) O-NO 289 0 min 0 min 0,000 mm 0,0 UV-I 47 W/m 14,7 C 15,7 C 0,0 km/h (0 Bft) 95,83 %
22/07/2018 07:19 15,7 C 94 % 1016,2 hPa 0,0 mm 0,0 km/h (0 Bft) O-NO 289 0 min 0 min 0,000 mm 0,0 UV-I 47 W/m 14,7 C 15,7 C 0,0 km/h (0 Bft) 100,00 %
22/07/2018 07:18 15,7 C 94 % 1016,2 hPa 0,0 mm 0,0 km/h (0 Bft) O-NO 289 0 min 0 min 0,000 mm 0,0 UV-I 47 W/m 14,7 C 15,7 C 0,0 km/h (0 Bft) 95,65 %
22/07/2018 07:17 15,7 C 95 % 1016,2 hPa 0,0 mm 0,0 km/h (0 Bft) O-NO 289 0 min 0 min 0,000 mm 0,0 UV-I 47 W/m 14,9 C 15,7 C 0,0 km/h (0 Bft) 96,00 %
22/07/2018 07:16 15,7 C 95 % 1016,2 hPa 0,0 mm 0,0 km/h (0 Bft) O-NO 289 0 min 0 min 0,000 mm 0,0 UV-I 47 W/m 14,9 C 15,7 C 0,0 km/h (0 Bft) 96,08 %
22/07/2018 07:14 15,6 C 95 % 1016,2 hPa 0,0 mm 0,0 km/h (0 Bft) O-NO 289 0 min 0 min 0,000 mm 0,0 UV-I 47 W/m 14,8 C 15,6 C 0,0 km/h (0 Bft) 100,00 %
22/07/2018 07:13 15,6 C 95 % 1016,2 hPa 0,0 mm 0,0 km/h (0 Bft) O-NO 289 0 min 0 min 0,000 mm 0,0 UV-I 46 W/m 14,8 C 15,6 C 0,0 km/h (0 Bft) 95,65 %
22/07/2018 07:12 15,6 C 95 % 1016,2 hPa 0,0 mm 0,0 km/h (0 Bft) O-NO 289 0 min 0 min 0,000 mm 0,0 UV-I 46 W/m 14,8 C 15,6 C 0,0 km/h (0 Bft) 96,00 %
22/07/2018 07:11 15,6 C 95 % 1016,2 hPa 0,0 mm 0,0 km/h (0 Bft) O-NO 289 0 min 0 min 0,000 mm 0,0 UV-I 44 W/m 14,8 C 15,6 C 0,0 km/h (0 Bft) 100,00 %
22/07/2018 07:10 15,5 C 95 % 1016,2 hPa 0,0 mm 0,0 km/h (0 Bft) O-NO 289 0 min 0 min 0,000 mm 0,0 UV-I 42 W/m 14,7 C 15,5 C 0,0 km/h (0 Bft) 100,00 %
22/07/2018 07:09 15,5 C 95 % 1016,2 hPa 0,0 mm 0,0 km/h (0 Bft) O-NO 289 0 min 0 min 0,000 mm 0,0 UV-I 39 W/m 14,7 C 15,5 C 0,0 km/h (0 Bft) 96,55 %
22/07/2018 07:08 15,5 C 95 % 1016,2 hPa 0,0 mm 0,0 km/h (0 Bft) O-NO 289 0 min 0 min 0,000 mm 0,0 UV-I 40 W/m 14,7 C 15,5 C 0,0 km/h (0 Bft) 96,00 %
22/07/2018 07:07 15,5 C 95 % 1016,1 hPa 0,0 mm 0,0 km/h (0 Bft) O-NO 289 0 min 0 min 0,000 mm 0,0 UV-I 40 W/m 14,7 C 15,5 C 0,0 km/h (0 Bft) 100,00 %
22/07/2018 07:06 15,4 C 95 % 1016,1 hPa 0,0 mm 0,0 km/h (0 Bft) O-NO 289 0 min 0 min 0,000 mm 0,0 UV-I 40 W/m 14,6 C 15,4 C 0,0 km/h (0 Bft) 95,92 %
22/07/2018 07:04 15,4 C 95 % 1016,1 hPa 0,0 mm 0,0 km/h (0 Bft) O-NO 289 0 min 0 min 0,000 mm 0,0 UV-I 40 W/m 14,6 C 15,4 C 0,0 km/h (0 Bft) 92,59 %
22/07/2018 07:03 15,4 C 95 % 1016,1 hPa 0,0 mm 0,0 km/h (0 Bft) O-NO 289 0 min 0 min 0,000 mm 0,0 UV-I 39 W/m 14,6 C 15,4 C 0,0 km/h (0 Bft) 100,00 %
22/07/2018 07:02 15,4 C 95 % 1016,1 hPa 0,0 mm 0,0 km/h (0 Bft) O-NO 289 0 min 0 min 0,000 mm 0,0 UV-I 39 W/m 14,6 C 15,4 C 0,0 km/h (0 Bft) 91,30 %
22/07/2018 07:01 15,4 C 95 % 1016,1 hPa 0,0 mm 0,0 km/h (0 Bft) O-NO 289 0 min 0 min 0,000 mm 0,0 UV-I 39 W/m 14,6 C 15,4 C 0,0 km/h (0 Bft) 86,96 %
22/07/2018 07:00 15,4 C 95 % 1016,1 hPa 0,0 mm 0,0 km/h (0 Bft) O-NO 289 0 min 0 min 0,000 mm 0,0 UV-I 39 W/m 14,6 C 15,4 C 0,0 km/h (0 Bft) 100,00 %
22/07/2018 06:59 15,4 C 95 % 1016,1 hPa 0,0 mm 0,0 km/h (0 Bft) O-NO 289 0 min 0 min 0,000 mm 0,0 UV-I 39 W/m 14,6 C 15,4 C 0,0 km/h (0 Bft) 95,65 %
22/07/2018 06:58 15,4 C 95 % 1016,1 hPa 0,0 mm 0,0 km/h (0 Bft) O-NO 289 0 min 0 min 0,000 mm 0,0 UV-I 39 W/m 14,6 C 15,4 C 0,0 km/h (0 Bft) 100,00 %
22/07/2018 06:57 15,3 C 95 % 1016,1 hPa 0,0 mm 0,0 km/h (0 Bft) O-NO 289 0 min 0 min 0,000 mm 0,0 UV-I 38 W/m 14,5 C 15,3 C 0,0 km/h (0 Bft) 96,15 %
22/07/2018 06:56 15,3 C 95 % 1016,1 hPa 0,0 mm 0,0 km/h (0 Bft) O-NO 289 0 min 0 min 0,000 mm 0,0 UV-I 36 W/m 14,5 C 15,3 C 0,0 km/h (0 Bft) 100,00 %
22/07/2018 06:55 15,2 C 95 % 1016,1 hPa 0,0 mm 0,0 km/h (0 Bft) O-NO 289 0 min 0 min 0,000 mm 0,0 UV-I 35 W/m 14,4 C 15,2 C 0,0 km/h (0 Bft) 92,00 %
22/07/2018 06:54 15,2 C 95 % 1016,1 hPa 0,0 mm 0,0 km/h (0 Bft) O-NO 289 0 min 0 min 0,000 mm 0,0 UV-I 33 W/m 14,4 C 15,2 C 0,0 km/h (0 Bft) 100,00 %
22/07/2018 06:53 15,2 C 95 % 1016,0 hPa 0,0 mm 0,0 km/h (0 Bft) O-NO 289 0 min 0 min 0,000 mm 0,0 UV-I 31 W/m 14,4 C 15,2 C 0,0 km/h (0 Bft) 95,83 %
22/07/2018 06:52 15,2 C 95 % 1016,0 hPa 0,0 mm 0,0 km/h (0 Bft) O-NO 289 0 min 0 min 0,000 mm 0,0 UV-I 30 W/m 14,4 C 15,2 C 0,0 km/h (0 Bft) 100,00 %
22/07/2018 06:51 15,2 C 95 % 1016,0 hPa 0,0 mm 0,0 km/h (0 Bft) O-NO 289 0 min 0 min 0,000 mm 0,0 UV-I 29 W/m 14,4 C 15,2 C 0,0 km/h (0 Bft) 92,00 %
22/07/2018 06:50 15,2 C 95 % 1015,9 hPa 0,0 mm 0,0 km/h (0 Bft) O-NO 289 0 min 0 min 0,000 mm 0,0 UV-I 28 W/m 14,4 C 15,2 C 0,0 km/h (0 Bft) 86,96 %
22/07/2018 06:49 15,2 C 95 % 1015,9 hPa 0,0 mm 0,0 km/h (0 Bft) O-NO 289 0 min 0 min 0,000 mm 0,0 UV-I 28 W/m 14,4 C 15,2 C 0,0 km/h (0 Bft) 100,00 %
22/07/2018 06:48 15,2 C 95 % 1015,8 hPa 0,0 mm 0,0 km/h (0 Bft) O-NO 289 0 min 0 min 0,000 mm 0,0 UV-I 26 W/m 14,4 C 15,2 C 0,0 km/h (0 Bft) 91,67 %
22/07/2018 06:47 15,2 C 95 % 1015,8 hPa 0,0 mm 0,0 km/h (0 Bft) O-NO 289 0 min 0 min 0,000 mm 0,0 UV-I 26 W/m 14,4 C 15,2 C 0,0 km/h (0 Bft) 98,04 %
22/07/2018 06:45 15,2 C 95 % 1015,8 hPa 0,0 mm 0,0 km/h (0 Bft) O-NO 289 0 min 0 min 0,000 mm 0,0 UV-I 25 W/m 14,4 C 15,2 C 0,0 km/h (0 Bft) 95,83 %
22/07/2018 06:44 15,1 C 95 % 1015,8 hPa 0,0 mm 0,0 km/h (0 Bft) O-NO 289 0 min 0 min 0,000 mm 0,0 UV-I 25 W/m 14,3 C 15,1 C 0,0 km/h (0 Bft) 100,00 %
22/07/2018 06:43 15,1 C 95 % 1015,8 hPa 0,0 mm 0,0 km/h (0 Bft) O-NO 289 0 min 0 min 0,000 mm 0,0 UV-I 23 W/m 14,3 C 15,1 C 0,0 km/h (0 Bft) 100,00 %
22/07/2018 06:42 15,1 C 95 % 1015,8 hPa 0,0 mm 0,0 km/h (0 Bft) O-NO 289 0 min 0 min 0,000 mm 0,0 UV-I 21 W/m 14,3 C 15,1 C 0,0 km/h (0 Bft) 100,00 %
22/07/2018 06:41 15,1 C 95 % 1015,8 hPa 0,0 mm 0,0 km/h (0 Bft) O-NO 289 0 min 0 min 0,000 mm 0,0 UV-I 20 W/m 14,3 C 15,1 C 0,0 km/h (0 Bft) 96,67 %
22/07/2018 06:40 15,1 C 95 % 1015,7 hPa 0,0 mm 0,0 km/h (0 Bft) O-NO 289 0 min 0 min 0,000 mm 0,0 UV-I 19 W/m 14,3 C 15,1 C 0,0 km/h (0 Bft) 100,00 %
22/07/2018 06:39 15,1 C 95 % 1015,7 hPa 0,0 mm 0,0 km/h (0 Bft) O-NO 289 0 min 0 min 0,000 mm 0,0 UV-I 18 W/m 14,3 C 15,1 C 0,0 km/h (0 Bft) 100,00 %
22/07/2018 06:38 15,1 C 95 % 1015,8 hPa 0,0 mm 0,0 km/h (0 Bft) O-NO 289 0 min 0 min 0,000 mm 0,0 UV-I 18 W/m 14,3 C 15,1 C 0,0 km/h (0 Bft) 95,65 %
22/07/2018 06:37 15,2 C 95 % 1015,7 hPa 0,0 mm 0,0 km/h (0 Bft) O-NO 289 0 min 0 min 0,000 mm 0,0 UV-I 16 W/m 14,4 C 15,2 C 0,0 km/h (0 Bft) 100,00 %
22/07/2018 06:36 15,2 C 95 % 1015,8 hPa 0,0 mm 0,0 km/h (0 Bft) O-NO 289 0 min 0 min 0,000 mm 0,0 UV-I 16 W/m 14,4 C 15,2 C 0,0 km/h (0 Bft) 100,00 %
22/07/2018 06:35 15,2 C 94 % 1015,8 hPa 0,0 mm 0,0 km/h (0 Bft) O-NO 289 0 min 0 min 0,000 mm 0,0 UV-I 13 W/m 14,2 C 15,2 C 0,0 km/h (0 Bft) 92,59 %
22/07/2018 06:34 15,2 C 94 % 1015,8 hPa 0,0 mm 0,0 km/h (0 Bft) O-NO 289 0 min 0 min 0,000 mm 0,0 UV-I 11 W/m 14,2 C 15,2 C 0,0 km/h (0 Bft) 100,00 %
22/07/2018 06:33 15,2 C 94 % 1015,8 hPa 0,0 mm 0,0 km/h (0 Bft) O-NO 289 0 min 0 min 0,000 mm 0,0 UV-I 11 W/m 14,2 C 15,2 C 0,0 km/h (0 Bft) 100,00 %
22/07/2018 06:32 15,2 C 95 % 1015,7 hPa 0,0 mm 0,0 km/h (0 Bft) O-NO 289 0 min 0 min 0,000 mm 0,0 UV-I 9 W/m 14,4 C 15,2 C 0,0 km/h (0 Bft) 100,00 %
22/07/2018 06:31 15,2 C 95 % 1015,7 hPa 0,0 mm 0,0 km/h (0 Bft) O-NO 289 0 min 0 min 0,000 mm 0,0 UV-I 7 W/m 14,4 C 15,2 C 0,0 km/h (0 Bft) 100,00 %
22/07/2018 06:30 15,3 C 95 % 1015,7 hPa 0,0 mm 0,0 km/h (0 Bft) O-NO 289 0 min 0 min 0,000 mm 0,0 UV-I 7 W/m 14,5 C 15,3 C 0,0 km/h (0 Bft) 100,00 %
22/07/2018 06:29 15,2 C 95 % 1015,7 hPa 0,0 mm 0,0 km/h (0 Bft) O-NO 289 0 min 0 min 0,000 mm 0,0 UV-I 6 W/m 14,4 C 15,2 C 0,0 km/h (0 Bft) 100,00 %
22/07/2018 06:28 15,2 C 95 % 1015,7 hPa 0,0 mm 0,0 km/h (0 Bft) O-NO 289 0 min 0 min 0,000 mm 0,0 UV-I 5 W/m 14,4 C 15,2 C 0,0 km/h (0 Bft) 95,83 %
22/07/2018 06:27 15,2 C 95 % 1015,7 hPa 0,0 mm 0,4 km/h (0 Bft) O-NO 289 0 min 0 min 0,000 mm 0,0 UV-I 5 W/m 14,4 C 15,2 C 1,8 km/h (1 Bft) 100,00 %
22/07/2018 06:26 15,2 C 95 % 1015,7 hPa 0,0 mm 0,0 km/h (0 Bft) O-NO 289 0 min 0 min 0,000 mm 0,0 UV-I 5 W/m 14,4 C 15,2 C 0,0 km/h (0 Bft) 100,00 %
22/07/2018 06:25 15,2 C 95 % 1015,8 hPa 0,0 mm 0,6 km/h (0 Bft) O-NO 289 0 min 0 min 0,000 mm 0,0 UV-I 5 W/m 14,4 C 15,2 C 1,8 km/h (1 Bft) 100,00 %
22/07/2018 06:24 15,2 C 95 % 1015,7 hPa 0,0 mm 0,1 km/h (0 Bft) O-NO 289 0 min 0 min 0,000 mm 0,0 UV-I 5 W/m 14,4 C 15,2 C 1,8 km/h (1 Bft) 100,00 %
22/07/2018 06:23 15,2 C 95 % 1015,7 hPa 0,0 mm 0,0 km/h (0 Bft) O-NO 289 0 min 0 min 0,000 mm 0,0 UV-I 5 W/m 14,4 C 15,2 C 0,0 km/h (0 Bft) 100,00 %
22/07/2018 06:22 15,2 C 95 % 1015,7 hPa 0,0 mm 0,0 km/h (0 Bft) O-NO 289 0 min 0 min 0,000 mm 0,0 UV-I 5 W/m 14,4 C 15,2 C 0,0 km/h (0 Bft) 96,43 %
22/07/2018 06:21 15,2 C 95 % 1015,7 hPa 0,0 mm 0,0 km/h (0 Bft) O-NO 289 0 min 0 min 0,000 mm 0,0 UV-I 5 W/m 14,4 C 15,2 C 0,0 km/h (0 Bft) 90,91 %
22/07/2018 06:20 15,2 C 94 % 1015,7 hPa 0,0 mm 0,0 km/h (0 Bft) O-NO 289 0 min 0 min 0,000 mm 0,0 UV-I 5 W/m 14,2 C 15,2 C 0,0 km/h (0 Bft) 96,00 %
22/07/2018 06:19 15,2 C 94 % 1015,7 hPa 0,0 mm 0,0 km/h (0 Bft) O-NO 289 0 min 0 min 0,000 mm 0,0 UV-I 5 W/m 14,2 C 15,2 C 0,0 km/h (0 Bft) 100,00 %
22/07/2018 06:18 15,2 C 94 % 1015,7 hPa 0,0 mm 0,0 km/h (0 Bft) O-NO 289 0 min 0 min 0,000 mm 0,0 UV-I 5 W/m 14,2 C 15,2 C 0,0 km/h (0 Bft) 95,83 %
22/07/2018 06:17 15,2 C 94 % 1015,7 hPa 0,0 mm 0,0 km/h (0 Bft) O-NO 289 0 min 0 min 0,000 mm 0,0 UV-I 3 W/m 14,2 C 15,2 C 0,0 km/h (0 Bft) 96,30 %
22/07/2018 06:16 15,2 C 94 % 1015,7 hPa 0,0 mm 0,0 km/h (0 Bft) O-NO 289 0 min 0 min 0,000 mm 0,0 UV-I 0 W/m 14,2 C 15,2 C 0,0 km/h (0 Bft) 95,65 %
22/07/2018 06:15 15,2 C 94 % 1015,8 hPa 0,0 mm 0,0 km/h (0 Bft) O-NO 289 0 min 0 min 0,000 mm 0,0 UV-I 0 W/m 14,2 C 15,2 C 0,0 km/h (0 Bft) 100,00 %
22/07/2018 06:14 15,2 C 94 % 1015,7 hPa 0,0 mm 0,0 km/h (0 Bft) O-NO 289 0 min 0 min 0,000 mm 0,0 UV-I 0 W/m 14,2 C 15,2 C 0,0 km/h (0 Bft) 100,00 %
22/07/2018 06:13 15,2 C 94 % 1015,8 hPa 0,0 mm 0,0 km/h (0 Bft) O-NO 289 0 min 0 min 0,000 mm 0,0 UV-I 0 W/m 14,2 C 15,2 C 0,0 km/h (0 Bft) 100,00 %
22/07/2018 06:12 15,2 C 94 % 1015,8 hPa 0,0 mm 0,0 km/h (0 Bft) O-NO 289 0 min 0 min 0,000 mm 0,0 UV-I 0 W/m 14,2 C 15,2 C 0,0 km/h (0 Bft) 100,00 %
22/07/2018 06:11 15,2 C 94 % 1015,8 hPa 0,0 mm 0,0 km/h (0 Bft) O-NO 289 0 min 0 min 0,000 mm 0,0 UV-I 0 W/m 14,2 C 15,2 C 0,0 km/h (0 Bft) 91,67 %
22/07/2018 06:10 15,2 C 94 % 1015,8 hPa 0,0 mm 0,0 km/h (0 Bft) O-NO 289 0 min 0 min 0,000 mm 0,0 UV-I 0 W/m 14,2 C 15,2 C 0,0 km/h (0 Bft) 100,00 %
22/07/2018 06:09 15,2 C 94 % 1015,8 hPa 0,0 mm 0,0 km/h (0 Bft) O-NO 289 0 min 0 min 0,000 mm 0,0 UV-I 0 W/m 14,2 C 15,2 C 0,0 km/h (0 Bft) 100,00 %
22/07/2018 06:08 15,2 C 94 % 1015,8 hPa 0,0 mm 0,0 km/h (0 Bft) O-NO 289 0 min 0 min 0,000 mm 0,0 UV-I 0 W/m 14,2 C 15,2 C 0,0 km/h (0 Bft) 100,00 %
22/07/2018 06:07 15,2 C 94 % 1015,8 hPa 0,0 mm 0,0 km/h (0 Bft) O-NO 289 0 min 0 min 0,000 mm 0,0 UV-I 0 W/m 14,2 C 15,2 C 0,0 km/h (0 Bft) 100,00 %
22/07/2018 06:06 15,2 C 94 % 1015,8 hPa 0,0 mm 0,0 km/h (0 Bft) O-NO 289 0 min 0 min 0,000 mm 0,0 UV-I 0 W/m 14,2 C 15,2 C 0,0 km/h (0 Bft) 100,00 %
22/07/2018 06:05 15,2 C 94 % 1015,8 hPa 0,0 mm 0,0 km/h (0 Bft) O-NO 289 0 min 0 min 0,000 mm 0,0 UV-I 0 W/m 14,2 C 15,2 C 0,0 km/h (0 Bft) 92,00 %
22/07/2018 06:04 15,2 C 94 % 1015,8 hPa 0,0 mm 0,0 km/h (0 Bft) O-NO 289 0 min 0 min 0,000 mm 0,0 UV-I 0 W/m 14,2 C 15,2 C 0,0 km/h (0 Bft) 96,43 %
22/07/2018 06:03 15,2 C 94 % 1015,8 hPa 0,0 mm 0,0 km/h (0 Bft) O-NO 289 0 min 0 min 0,000 mm 0,0 UV-I 0 W/m 14,2 C 15,2 C 0,0 km/h (0 Bft) 100,00 %
22/07/2018 06:02 15,2 C 94 % 1015,8 hPa 0,0 mm 0,0 km/h (0 Bft) O-NO 289 0 min 0 min 0,000 mm 0,0 UV-I 0 W/m 14,2 C 15,2 C 0,0 km/h (0 Bft) 100,00 %
22/07/2018 06:01 15,2 C 94 % 1015,8 hPa 0,0 mm 0,0 km/h (0 Bft) O-NO 289 0 min 0 min 0,000 mm 0,0 UV-I 0 W/m 14,2 C 15,2 C 0,0 km/h (0 Bft) 100,00 %
22/07/2018 06:00 15,2 C 94 % 1015,8 hPa 0,0 mm 0,0 km/h (0 Bft) O-NO 289 0 min 0 min 0,000 mm 0,0 UV-I 0 W/m 14,2 C 15,2 C 0,0 km/h (0 Bft) 100,00 %
22/07/2018 05:59 15,2 C 94 % 1015,8 hPa 0,0 mm 0,0 km/h (0 Bft) O-NO 289 0 min 0 min 0,000 mm 0,0 UV-I 0 W/m 14,2 C 15,2 C 0,0 km/h (0 Bft) 100,00 %
22/07/2018 05:58 15,2 C 94 % 1015,8 hPa 0,0 mm 0,0 km/h (0 Bft) O-NO 289 0 min 0 min 0,000 mm 0,0 UV-I 0 W/m 14,2 C 15,2 C 0,0 km/h (0 Bft) 100,00 %
22/07/2018 05:57 15,2 C 94 % 1015,8 hPa 0,0 mm 0,0 km/h (0 Bft) O-NO 289 0 min 0 min 0,000 mm 0,0 UV-I 0 W/m 14,2 C 15,2 C 0,0 km/h (0 Bft) 91,30 %
22/07/2018 05:56 15,2 C 94 % 1015,8 hPa 0,0 mm 0,0 km/h (0 Bft) O-NO 289 0 min 0 min 0,000 mm 0,0 UV-I 0 W/m 14,2 C 15,2 C 0,0 km/h (0 Bft) 100,00 %
22/07/2018 05:55 15,2 C 94 % 1015,7 hPa 0,0 mm 0,0 km/h (0 Bft) O-NO 289 0 min 0 min 0,000 mm 0,0 UV-I 0 W/m 14,2 C 15,2 C 0,0 km/h (0 Bft) 100,00 %
22/07/2018 05:54 15,3 C 94 % 1015,7 hPa 0,0 mm 0,0 km/h (0 Bft) O-NO 289 0 min 0 min 0,000 mm 0,0 UV-I 0 W/m 14,3 C 15,3 C 0,0 km/h (0 Bft) 100,00 %
22/07/2018 05:53 15,3 C 94 % 1015,8 hPa 0,0 mm 0,0 km/h (0 Bft) O-NO 289 0 min 0 min 0,000 mm 0,0 UV-I 0 W/m 14,3 C 15,3 C 0,0 km/h (0 Bft) 100,00 %
22/07/2018 05:52 15,3 C 93 % 1015,8 hPa 0,0 mm 0,0 km/h (0 Bft) O-NO 289 0 min 0 min 0,000 mm 0,0 UV-I 0 W/m 14,2 C 15,3 C 0,0 km/h (0 Bft) 100,00 %
22/07/2018 05:51 15,3 C 93 % 1015,8 hPa 0,0 mm 0,0 km/h (0 Bft) O-NO 289 0 min 0 min 0,000 mm 0,0 UV-I 0 W/m 14,2 C 15,3 C 0,0 km/h (0 Bft) 100,00 %
22/07/2018 05:50 15,3 C 93 % 1015,8 hPa 0,0 mm 0,0 km/h (0 Bft) O-NO 289 0 min 0 min 0,000 mm 0,0 UV-I 0 W/m 14,2 C 15,3 C 0,0 km/h (0 Bft) 95,65 %
22/07/2018 05:49 15,3 C 93 % 1015,8 hPa 0,0 mm 0,0 km/h (0 Bft) O-NO 289 0 min 0 min 0,000 mm 0,0 UV-I 0 W/m 14,2 C 15,3 C 0,0 km/h (0 Bft) 98,04 %
22/07/2018 05:47 15,4 C 93 % 1015,7 hPa 0,0 mm 0,0 km/h (0 Bft) O-NO 289 0 min 0 min 0,000 mm 0,0 UV-I 0 W/m 14,3 C 15,4 C 0,0 km/h (0 Bft) 100,00 %
22/07/2018 05:46 15,4 C 93 % 1015,7 hPa 0,0 mm 0,0 km/h (0 Bft) O-NO 289 0 min 0 min 0,000 mm 0,0 UV-I 0 W/m 14,3 C 15,4 C 0,0 km/h (0 Bft) 100,00 %
22/07/2018 05:45 15,4 C 93 % 1015,8 hPa 0,0 mm 0,0 km/h (0 Bft) O-NO 289 0 min 0 min 0,000 mm 0,0 UV-I 0 W/m 14,3 C 15,4 C 0,0 km/h (0 Bft) 100,00 %
22/07/2018 05:44 15,4 C 93 % 1015,7 hPa 0,0 mm 0,1 km/h (0 Bft) O-NO 289 0 min 0 min 0,000 mm 0,0 UV-I 0 W/m 14,3 C 15,4 C 1,8 km/h (1 Bft) 100,00 %
22/07/2018 05:43 15,4 C 93 % 1015,8 hPa 0,0 mm 0,0 km/h (0 Bft) O-NO 289 0 min 0 min 0,000 mm 0,0 UV-I 0 W/m 14,3 C 15,4 C 0,0 km/h (0 Bft) 100,00 %
22/07/2018 05:42 15,4 C 93 % 1015,8 hPa 0,0 mm 0,0 km/h (0 Bft) O-NO 289 0 min 0 min 0,000 mm 0,0 UV-I 0 W/m 14,3 C 15,4 C 0,0 km/h (0 Bft) 100,00 %
22/07/2018 05:41 15,5 C 93 % 1015,8 hPa 0,0 mm 0,0 km/h (0 Bft) O-NO 289 0 min 0 min 0,000 mm 0,0 UV-I 0 W/m 14,4 C 15,5 C 0,0 km/h (0 Bft) 100,00 %
22/07/2018 05:40 15,5 C 93 % 1015,8 hPa 0,0 mm 0,0 km/h (0 Bft) O-NO 289 0 min 0 min 0,000 mm 0,0 UV-I 0 W/m 14,4 C 15,5 C 0,0 km/h (0 Bft) 95,83 %
22/07/2018 05:39 15,5 C 93 % 1015,7 hPa 0,0 mm 0,0 km/h (0 Bft) O-NO 289 0 min 0 min 0,000 mm 0,0 UV-I 0 W/m 14,4 C 15,5 C 0,0 km/h (0 Bft) 100,00 %
22/07/2018 05:38 15,5 C 93 % 1015,8 hPa 0,0 mm 0,0 km/h (0 Bft) O-NO 289 0 min 0 min 0,000 mm 0,0 UV-I 0 W/m 14,4 C 15,5 C 0,0 km/h (0 Bft) 95,83 %
22/07/2018 05:37 15,5 C 93 % 1015,8 hPa 0,0 mm 0,0 km/h (0 Bft) O-NO 289 0 min 0 min 0,000 mm 0,0 UV-I 0 W/m 14,4 C 15,5 C 0,0 km/h (0 Bft) 100,00 %
22/07/2018 05:36 15,5 C 93 % 1015,8 hPa 0,0 mm 0,0 km/h (0 Bft) O-NO 289 0 min 0 min 0,000 mm 0,0 UV-I 0 W/m 14,4 C 15,5 C 0,0 km/h (0 Bft) 95,65 %
22/07/2018 05:35 15,5 C 94 % 1015,8 hPa 0,0 mm 0,0 km/h (0 Bft) O-NO 289 0 min 0 min 0,000 mm 0,0 UV-I 0 W/m 14,5 C 15,5 C 0,0 km/h (0 Bft) 100,00 %
22/07/2018 05:34 15,5 C 94 % 1015,8 hPa 0,0 mm 0,0 km/h (0 Bft) O-NO 289 0 min 0 min 0,000 mm 0,0 UV-I 0 W/m 14,5 C 15,5 C 0,0 km/h (0 Bft) 100,00 %
22/07/2018 05:33 15,5 C 94 % 1015,8 hPa 0,0 mm 0,0 km/h (0 Bft) O-NO 289 0 min 0 min 0,000 mm 0,0 UV-I 0 W/m 14,5 C 15,5 C 0,0 km/h (0 Bft) 100,00 %
22/07/2018 05:32 15,6 C 94 % 1015,8 hPa 0,0 mm 0,0 km/h (0 Bft) O-NO 289 0 min 0 min 0,000 mm 0,0 UV-I 0 W/m 14,6 C 15,6 C 0,0 km/h (0 Bft) 100,00 %
22/07/2018 05:31 15,5 C 94 % 1015,8 hPa 0,0 mm 0,0 km/h (0 Bft) O-NO 289 0 min 0 min 0,000 mm 0,0 UV-I 0 W/m 14,5 C 15,5 C 0,0 km/h (0 Bft) 100,00 %
22/07/2018 05:30 15,5 C 94 % 1015,8 hPa 0,0 mm 0,0 km/h (0 Bft) O-NO 289 0 min 0 min 0,000 mm 0,0 UV-I 0 W/m 14,5 C 15,5 C 0,0 km/h (0 Bft) 100,00 %
22/07/2018 05:29 15,5 C 94 % 1015,8 hPa 0,0 mm 0,0 km/h (0 Bft) O-NO 289 0 min 0 min 0,000 mm 0,0 UV-I 0 W/m 14,5 C 15,5 C 0,0 km/h (0 Bft) 100,00 %
22/07/2018 05:28 15,4 C 94 % 1015,8 hPa 0,0 mm 0,1 km/h (0 Bft) O-NO 289 0 min 0 min 0,000 mm 0,0 UV-I 0 W/m 14,4 C 15,4 C 1,8 km/h (1 Bft) 100,00 %
22/07/2018 05:27 15,4 C 94 % 1015,8 hPa 0,0 mm 1,1 km/h (1 Bft) O-NO 289 0 min 0 min 0,000 mm 0,0 UV-I 0 W/m 14,4 C 15,4 C 3,5 km/h (1 Bft) 100,00 %
22/07/2018 05:26 15,4 C 94 % 1015,8 hPa 0,0 mm 2,9 km/h (1 Bft) O-NO 289 0 min 0 min 0,000 mm 0,0 UV-I 0 W/m 14,4 C 15,4 C 5,3 km/h (1 Bft) 100,00 %
22/07/2018 05:25 15,4 C 94 % 1015,8 hPa 0,0 mm 0,6 km/h (0 Bft) O-NO 290 0 min 0 min 0,000 mm 0,0 UV-I 0 W/m 14,4 C 15,4 C 3,5 km/h (1 Bft) 100,00 %
22/07/2018 05:24 15,4 C 94 % 1015,8 hPa 0,0 mm 0,2 km/h (0 Bft) O-NO 290 0 min 0 min 0,000 mm 0,0 UV-I 0 W/m 14,4 C 15,4 C 1,8 km/h (1 Bft) 100,00 %
22/07/2018 05:23 15,4 C 94 % 1015,8 hPa 0,0 mm 0,4 km/h (0 Bft) O-NO 290 0 min 0 min 0,000 mm 0,0 UV-I 0 W/m 14,4 C 15,4 C 1,8 km/h (1 Bft) 100,00 %
22/07/2018 05:22 15,4 C 94 % 1015,8 hPa 0,0 mm 1,1 km/h (1 Bft) O-NO 290 0 min 0 min 0,000 mm 0,0 UV-I 0 W/m 14,4 C 15,4 C 1,8 km/h (1 Bft) 100,00 %
22/07/2018 05:21 15,4 C 94 % 1015,8 hPa 0,0 mm 0,0 km/h (0 Bft) O-NO 290 0 min 0 min 0,000 mm 0,0 UV-I 0 W/m 14,4 C 15,4 C 0,0 km/h (0 Bft) 97,44 %
22/07/2018 05:20 15,4 C 94 % 1015,8 hPa 0,0 mm 0,4 km/h (0 Bft) O-NO 290 0 min 0 min 0,000 mm 0,0 UV-I 0 W/m 14,4 C 15,4 C 1,8 km/h (1 Bft) 98,21 %
22/07/2018 05:19 15,3 C 94 % 1015,8 hPa 0,0 mm 1,9 km/h (1 Bft) O-NO 290 0 min 0 min 0,000 mm 0,0 UV-I 0 W/m 14,3 C 15,3 C 3,5 km/h (1 Bft) 100,00 %
22/07/2018 05:18 15,3 C 94 % 1015,8 hPa 0,0 mm 2,4 km/h (1 Bft) O-NO 290 0 min 0 min 0,000 mm 0,0 UV-I 0 W/m 14,3 C 15,3 C 5,3 km/h (1 Bft) 100,00 %
22/07/2018 05:17 15,3 C 94 % 1015,8 hPa 0,0 mm 0,8 km/h (0 Bft) O-NO 290 0 min 0 min 0,000 mm 0,0 UV-I 0 W/m 14,3 C 15,3 C 3,5 km/h (1 Bft) 100,00 %
22/07/2018 05:16 15,3 C 94 % 1015,8 hPa 0,0 mm 2,2 km/h (1 Bft) O-NO 290 0 min 0 min 0,000 mm 0,0 UV-I 0 W/m 14,3 C 15,3 C 3,5 km/h (1 Bft) 93,33 %
22/07/2018 05:15 15,3 C 94 % 1015,9 hPa 0,0 mm 0,3 km/h (0 Bft) O-NO 290 0 min 0 min 0,000 mm 0,0 UV-I 0 W/m 14,3 C 15,3 C 1,8 km/h (1 Bft) 95,83 %
22/07/2018 05:14 15,3 C 94 % 1015,8 hPa 0,0 mm 0,1 km/h (0 Bft) O-NO 290 0 min 0 min 0,000 mm 0,0 UV-I 0 W/m 14,3 C 15,3 C 1,8 km/h (1 Bft) 96,15 %
22/07/2018 05:13 15,3 C 94 % 1015,8 hPa 0,0 mm 0,0 km/h (0 Bft) O-NO 290 0 min 0 min 0,000 mm 0,0 UV-I 0 W/m 14,3 C 15,3 C 0,0 km/h (0 Bft) 96,30 %
22/07/2018 05:12 15,3 C 94 % 1015,8 hPa 0,0 mm 0,0 km/h (0 Bft) O-NO 290 0 min 0 min 0,000 mm 0,0 UV-I 0 W/m 14,3 C 15,3 C 0,0 km/h (0 Bft) 100,00 %
22/07/2018 05:11 15,3 C 94 % 1015,8 hPa 0,0 mm 0,4 km/h (0 Bft) O-NO 290 0 min 0 min 0,000 mm 0,0 UV-I 0 W/m 14,3 C 15,3 C 3,5 km/h (1 Bft) 96,67 %
22/07/2018 05:10 15,2 C 94 % 1015,8 hPa 0,0 mm 2,0 km/h (1 Bft) O-NO 290 0 min 0 min 0,000 mm 0,0 UV-I 0 W/m 14,2 C 15,2 C 3,5 km/h (1 Bft) 100,00 %
22/07/2018 05:09 15,2 C 94 % 1015,8 hPa 0,0 mm 0,3 km/h (0 Bft) O-NO 290 0 min 0 min 0,000 mm 0,0 UV-I 0 W/m 14,2 C 15,2 C 1,8 km/h (1 Bft) 100,00 %
22/07/2018 05:08 15,2 C 94 % 1015,7 hPa 0,0 mm 1,3 km/h (1 Bft) O-NO 290 0 min 0 min 0,000 mm 0,0 UV-I 0 W/m 14,2 C 15,2 C 5,3 km/h (1 Bft) 100,00 %
22/07/2018 05:06 15,2 C 93 % 1015,7 hPa 0,0 mm 1,8 km/h (1 Bft) O-SO 240 0 min 0 min 0,000 mm 0,0 UV-I 0 W/m 14,1 C 15,2 C 3,5 km/h (1 Bft) 100,00 %
22/07/2018 05:05 15,2 C 94 % 1015,7 hPa 0,0 mm 2,2 km/h (1 Bft) O-SO 240 0 min 0 min 0,000 mm 0,0 UV-I 0 W/m 14,2 C 15,2 C 3,5 km/h (1 Bft) 100,00 %
22/07/2018 05:04 15,2 C 93 % 1015,7 hPa 0,0 mm 1,3 km/h (1 Bft) O 279 0 min 0 min 0,000 mm 0,0 UV-I 0 W/m 14,1 C 15,2 C 1,8 km/h (1 Bft) 91,67 %
22/07/2018 05:03 15,2 C 93 % 1015,7 hPa 0,0 mm 0,4 km/h (0 Bft) O 279 0 min 0 min 0,000 mm 0,0 UV-I 0 W/m 14,1 C 15,2 C 1,8 km/h (1 Bft) 95,83 %
22/07/2018 05:02 15,2 C 93 % 1015,7 hPa 0,0 mm 0,4 km/h (0 Bft) O 279 0 min 0 min 0,000 mm 0,0 UV-I 0 W/m 14,1 C 15,2 C 1,8 km/h (1 Bft) 95,65 %
22/07/2018 05:01 15,2 C 93 % 1015,7 hPa 0,0 mm 0,6 km/h (0 Bft) O 279 0 min 0 min 0,000 mm 0,0 UV-I 0 W/m 14,1 C 15,2 C 3,5 km/h (1 Bft) 100,00 %
22/07/2018 05:00 15,2 C 93 % 1015,7 hPa 0,0 mm 0,5 km/h (0 Bft) O 279 0 min 0 min 0,000 mm 0,0 UV-I 0 W/m 14,1 C 15,2 C 1,8 km/h (1 Bft) 92,59 %
22/07/2018 04:59 15,2 C 93 % 1015,7 hPa 0,0 mm 0,3 km/h (0 Bft) O 279 0 min 0 min 0,000 mm 0,0 UV-I 0 W/m 14,1 C 15,2 C 1,8 km/h (1 Bft) 92,00 %
22/07/2018 04:58 15,2 C 93 % 1015,7 hPa 0,0 mm 0,8 km/h (0 Bft) O 279 0 min 0 min 0,000 mm 0,0 UV-I 0 W/m 14,1 C 15,2 C 3,5 km/h (1 Bft) 100,00 %
22/07/2018 04:57 15,2 C 93 % 1015,7 hPa 0,0 mm 1,0 km/h (0 Bft) O 279 0 min 0 min 0,000 mm 0,0 UV-I 0 W/m 14,1 C 15,2 C 3,5 km/h (1 Bft) 96,30 %
22/07/2018 04:56 15,2 C 93 % 1015,7 hPa 0,0 mm 0,8 km/h (0 Bft) O 280 0 min 0 min 0,000 mm 0,0 UV-I 0 W/m 14,1 C 15,2 C 3,5 km/h (1 Bft) 100,00 %
22/07/2018 04:55 15,2 C 93 % 1015,7 hPa 0,0 mm 0,2 km/h (0 Bft) O 280 0 min 0 min 0,000 mm 0,0 UV-I 0 W/m 14,1 C 15,2 C 1,8 km/h (1 Bft) 96,15 %
22/07/2018 04:54 15,2 C 93 % 1015,7 hPa 0,0 mm 2,2 km/h (1 Bft) O 280 0 min 0 min 0,000 mm 0,0 UV-I 0 W/m 14,1 C 15,2 C 5,3 km/h (1 Bft) 100,00 %
22/07/2018 04:53 15,2 C 93 % 1015,7 hPa 0,0 mm 3,5 km/h (1 Bft) O 275 0 min 0 min 0,000 mm 0,0 UV-I 0 W/m 14,1 C 15,2 C 7,1 km/h (2 Bft) 91,67 %
22/07/2018 04:52 15,2 C 93 % 1015,7 hPa 0,0 mm 2,8 km/h (1 Bft) O 274 0 min 0 min 0,000 mm 0,0 UV-I 0 W/m 14,1 C 15,2 C 5,3 km/h (1 Bft) 96,15 %
22/07/2018 04:51 15,2 C 93 % 1015,7 hPa 0,0 mm 3,3 km/h (1 Bft) O 275 0 min 0 min 0,000 mm 0,0 UV-I 0 W/m 14,1 C 15,2 C 5,3 km/h (1 Bft) 100,00 %
22/07/2018 04:50 15,2 C 93 % 1015,7 hPa 0,0 mm 0,2 km/h (0 Bft) O-NO 288 0 min 0 min 0,000 mm 0,0 UV-I 0 W/m 14,1 C 15,2 C 1,8 km/h (1 Bft) 96,67 %
22/07/2018 04:49 15,2 C 93 % 1015,7 hPa 0,0 mm 0,0 km/h (0 Bft) O-NO 288 0 min 0 min 0,000 mm 0,0 UV-I 0 W/m 14,1 C 15,2 C 0,0 km/h (0 Bft) 100,00 %
22/07/2018 04:48 15,2 C 93 % 1015,7 hPa 0,0 mm 0,2 km/h (0 Bft) O-NO 288 0 min 0 min 0,000 mm 0,0 UV-I 0 W/m 14,1 C 15,2 C 1,8 km/h (1 Bft) 93,33 %
22/07/2018 04:47 15,2 C 93 % 1015,7 hPa 0,0 mm 1,3 km/h (1 Bft) O-NO 288 0 min 0 min 0,000 mm 0,0 UV-I 0 W/m 14,1 C 15,2 C 3,5 km/h (1 Bft) 96,43 %
22/07/2018 04:46 15,2 C 93 % 1015,7 hPa 0,0 mm 0,7 km/h (0 Bft) O-NO 288 0 min 0 min 0,000 mm 0,0 UV-I 0 W/m 14,1 C 15,2 C 1,8 km/h (1 Bft) 96,30 %
22/07/2018 04:44 15,2 C 93 % 1015,6 hPa 0,0 mm 1,0 km/h (0 Bft) O-NO 288 0 min 0 min 0,000 mm 0,0 UV-I 0 W/m 14,1 C 15,2 C 3,5 km/h (1 Bft) 100,00 %
22/07/2018 04:43 15,2 C 93 % 1015,6 hPa 0,0 mm 0,0 km/h (0 Bft) O-NO 295 0 min 0 min 0,000 mm 0,0 UV-I 0 W/m 14,1 C 15,2 C 0,0 km/h (0 Bft) 100,00 %
22/07/2018 04:42 15,3 C 93 % 1015,6 hPa 0,0 mm 0,0 km/h (0 Bft) O-NO 295 0 min 0 min 0,000 mm 0,0 UV-I 0 W/m 14,2 C 15,3 C 0,0 km/h (0 Bft) 96,67 %
22/07/2018 04:41 15,3 C 92 % 1015,6 hPa 0,0 mm 0,0 km/h (0 Bft) O-NO 295 0 min 0 min 0,000 mm 0,0 UV-I 0 W/m 14,0 C 15,3 C 0,0 km/h (0 Bft) 96,15 %
22/07/2018 04:40 15,3 C 92 % 1015,7 hPa 0,0 mm 0,1 km/h (0 Bft) O-NO 295 0 min 0 min 0,000 mm 0,0 UV-I 0 W/m 14,0 C 15,3 C 1,8 km/h (1 Bft) 100,00 %
22/07/2018 04:39 15,3 C 92 % 1015,7 hPa 0,0 mm 1,0 km/h (0 Bft) O-NO 295 0 min 0 min 0,000 mm 0,0 UV-I 0 W/m 14,0 C 15,3 C 1,8 km/h (1 Bft) 91,67 %
22/07/2018 04:38 15,3 C 92 % 1015,6 hPa 0,0 mm 0,8 km/h (0 Bft) O-NO 295 0 min 0 min 0,000 mm 0,0 UV-I 0 W/m 14,0 C 15,3 C 3,5 km/h (1 Bft) 96,00 %
22/07/2018 04:37 15,3 C 92 % 1015,6 hPa 0,0 mm 1,0 km/h (0 Bft) O-NO 296 0 min 0 min 0,000 mm 0,0 UV-I 0 W/m 14,0 C 15,3 C 1,8 km/h (1 Bft) 92,31 %
22/07/2018 04:36 15,3 C 92 % 1015,6 hPa 0,0 mm 0,2 km/h (0 Bft) O-NO 296 0 min 0 min 0,000 mm 0,0 UV-I 0 W/m 14,0 C 15,3 C 1,8 km/h (1 Bft) 96,77 %
22/07/2018 04:35 15,3 C 92 % 1015,6 hPa 0,0 mm 0,2 km/h (0 Bft) O-NO 296 0 min 0 min 0,000 mm 0,0 UV-I 0 W/m 14,0 C 15,3 C 1,8 km/h (1 Bft) 100,00 %
22/07/2018 04:34 15,4 C 92 % 1015,6 hPa 0,0 mm 0,8 km/h (0 Bft) O-NO 296 0 min 0 min 0,000 mm 0,0 UV-I 0 W/m 14,1 C 15,4 C 1,8 km/h (1 Bft) 92,31 %
22/07/2018 04:33 15,4 C 92 % 1015,6 hPa 0,0 mm 0,1 km/h (0 Bft) O-NO 296 0 min 0 min 0,000 mm 0,0 UV-I 0 W/m 14,1 C 15,4 C 1,8 km/h (1 Bft) 100,00 %
22/07/2018 04:32 15,4 C 91 % 1015,6 hPa 0,0 mm 0,0 km/h (0 Bft) O-NO 296 0 min 0 min 0,000 mm 0,0 UV-I 0 W/m 13,9 C 15,4 C 0,0 km/h (0 Bft) 91,67 %
22/07/2018 04:31 15,4 C 91 % 1015,6 hPa 0,0 mm 0,0 km/h (0 Bft) O-NO 298 0 min 0 min 0,000 mm 0,0 UV-I 0 W/m 13,9 C 15,4 C 0,0 km/h (0 Bft) 100,00 %
22/07/2018 04:30 15,5 C 91 % 1015,6 hPa 0,0 mm 0,0 km/h (0 Bft) O-NO 298 0 min 0 min 0,000 mm 0,0 UV-I 0 W/m 14,0 C 15,5 C 0,0 km/h (0 Bft) 91,67 %
22/07/2018 04:29 15,5 C 91 % 1015,6 hPa 0,0 mm 0,4 km/h (0 Bft) O-NO 298 0 min 0 min 0,000 mm 0,0 UV-I 0 W/m 14,0 C 15,5 C 1,8 km/h (1 Bft) 100,00 %
22/07/2018 04:28 15,5 C 91 % 1015,6 hPa 0,0 mm 1,1 km/h (1 Bft) O-NO 298 0 min 0 min 0,000 mm 0,0 UV-I 0 W/m 14,0 C 15,5 C 3,5 km/h (1 Bft) 96,43 %
22/07/2018 04:27 15,5 C 91 % 1015,6 hPa 0,0 mm 2,5 km/h (1 Bft) O-NO 298 0 min 0 min 0,000 mm 0,0 UV-I 0 W/m 14,0 C 15,5 C 5,3 km/h (1 Bft) 92,59 %
22/07/2018 04:26 15,6 C 91 % 1015,6 hPa 0,0 mm 2,7 km/h (1 Bft) O-NO 294 0 min 0 min 0,000 mm 0,0 UV-I 0 W/m 14,1 C 15,6 C 5,3 km/h (1 Bft) 100,00 %
22/07/2018 04:25 15,6 C 91 % 1015,6 hPa 0,0 mm 2,6 km/h (1 Bft) O-NO 294 0 min 0 min 0,000 mm 0,0 UV-I 0 W/m 14,1 C 15,6 C 3,5 km/h (1 Bft) 100,00 %
22/07/2018 04:24 15,6 C 91 % 1015,6 hPa 0,0 mm 1,1 km/h (1 Bft) O-NO 294 0 min 0 min 0,000 mm 0,0 UV-I 0 W/m 14,1 C 15,6 C 3,5 km/h (1 Bft) 100,00 %
22/07/2018 04:23 15,6 C 91 % 1015,6 hPa 0,0 mm 0,0 km/h (0 Bft) O-NO 294 0 min 0 min 0,000 mm 0,0 UV-I 0 W/m 14,1 C 15,6 C 0,0 km/h (0 Bft) 95,83 %
22/07/2018 04:22 15,7 C 91 % 1015,6 hPa 0,0 mm 1,3 km/h (1 Bft) O-NO 294 0 min 0 min 0,000 mm 0,0 UV-I 0 W/m 14,2 C 15,7 C 3,5 km/h (1 Bft) 100,00 %
22/07/2018 04:21 15,7 C 91 % 1015,6 hPa 0,0 mm 0,7 km/h (0 Bft) O-NO 294 0 min 0 min 0,000 mm 0,0 UV-I 0 W/m 14,2 C 15,7 C 1,8 km/h (1 Bft) 100,00 %
22/07/2018 04:20 15,7 C 90 % 1015,6 hPa 0,0 mm 0,4 km/h (0 Bft) O-NO 294 0 min 0 min 0,000 mm 0,0 UV-I 0 W/m 14,1 C 15,7 C 1,8 km/h (1 Bft) 100,00 %
22/07/2018 04:19 15,7 C 90 % 1015,6 hPa 0,0 mm 1,7 km/h (1 Bft) O-NO 294 0 min 0 min 0,000 mm 0,0 UV-I 0 W/m 14,1 C 15,7 C 3,5 km/h (1 Bft) 100,00 %
22/07/2018 04:18 15,7 C 90 % 1015,6 hPa 0,0 mm 0,9 km/h (0 Bft) O-NO 294 0 min 0 min 0,000 mm 0,0 UV-I 0 W/m 14,1 C 15,7 C 3,5 km/h (1 Bft) 100,00 %
22/07/2018 04:17 15,7 C 90 % 1015,6 hPa 0,0 mm 0,8 km/h (0 Bft) O-NO 294 0 min 0 min 0,000 mm 0,0 UV-I 0 W/m 14,1 C 15,7 C 3,5 km/h (1 Bft) 100,00 %
22/07/2018 04:16 15,7 C 90 % 1015,6 hPa 0,0 mm 0,7 km/h (0 Bft) O-NO 294 0 min 0 min 0,000 mm 0,0 UV-I 0 W/m 14,1 C 15,7 C 3,5 km/h (1 Bft) 100,00 %
22/07/2018 04:15 15,8 C 90 % 1015,6 hPa 0,0 mm 1,2 km/h (1 Bft) O-NO 293 0 min 0 min 0,000 mm 0,0 UV-I 0 W/m 14,2 C 15,8 C 1,8 km/h (1 Bft) 95,65 %
22/07/2018 04:14 15,8 C 90 % 1015,6 hPa 0,0 mm 2,5 km/h (1 Bft) O-NO 293 0 min 0 min 0,000 mm 0,0 UV-I 0 W/m 14,2 C 15,8 C 3,5 km/h (1 Bft) 100,00 %
22/07/2018 04:13 15,8 C 90 % 1015,6 hPa 0,0 mm 2,3 km/h (1 Bft) O-NO 294 0 min 0 min 0,000 mm 0,0 UV-I 0 W/m 14,2 C 15,8 C 5,3 km/h (1 Bft) 100,00 %
22/07/2018 04:12 15,8 C 90 % 1015,6 hPa 0,0 mm 1,9 km/h (1 Bft) O-NO 294 0 min 0 min 0,000 mm 0,0 UV-I 0 W/m 14,2 C 15,8 C 3,5 km/h (1 Bft) 100,00 %
22/07/2018 04:11 15,8 C 90 % 1015,6 hPa 0,0 mm 1,7 km/h (1 Bft) O-NO 294 0 min 0 min 0,000 mm 0,0 UV-I 0 W/m 14,2 C 15,8 C 3,5 km/h (1 Bft) 96,00 %
22/07/2018 04:10 15,9 C 90 % 1015,6 hPa 0,0 mm 2,0 km/h (1 Bft) O-NO 294 0 min 0 min 0,000 mm 0,0 UV-I 0 W/m 14,3 C 15,9 C 3,5 km/h (1 Bft) 93,33 %
22/07/2018 04:09 15,9 C 90 % 1015,6 hPa 0,0 mm 2,7 km/h (1 Bft) O-NO 293 0 min 0 min 0,000 mm 0,0 UV-I 0 W/m 14,3 C 15,9 C 5,3 km/h (1 Bft) 100,00 %
22/07/2018 04:08 15,9 C 90 % 1015,6 hPa 0,0 mm 4,0 km/h (1 Bft) O-NO 298 0 min 0 min 0,000 mm 0,0 UV-I 0 W/m 14,3 C 15,9 C 8,9 km/h (2 Bft) 97,62 %
22/07/2018 04:07 15,9 C 90 % 1015,6 hPa 0,0 mm 1,2 km/h (1 Bft) O-NO 302 0 min 0 min 0,000 mm 0,0 UV-I 0 W/m 14,3 C 15,9 C 3,5 km/h (1 Bft) 100,00 %
22/07/2018 04:06 15,9 C 90 % 1015,6 hPa 0,0 mm 1,6 km/h (1 Bft) O-NO 301 0 min 0 min 0,000 mm 0,0 UV-I 0 W/m 14,3 C 15,9 C 3,5 km/h (1 Bft) 100,00 %
22/07/2018 04:05 15,9 C 90 % 1015,6 hPa 0,0 mm 2,6 km/h (1 Bft) O-NO 302 0 min 0 min 0,000 mm 0,0 UV-I 0 W/m 14,3 C 15,9 C 3,5 km/h (1 Bft) 100,00 %
22/07/2018 04:04 15,9 C 90 % 1015,6 hPa 0,0 mm 1,6 km/h (1 Bft) O-NO 294 0 min 0 min 0,000 mm 0,0 UV-I 0 W/m 14,3 C 15,9 C 3,5 km/h (1 Bft) 100,00 %
22/07/2018 04:03 15,9 C 90 % 1015,6 hPa 0,0 mm 3,0 km/h (1 Bft) O-NO 284 0 min 0 min 0,000 mm 0,0 UV-I 0 W/m 14,3 C 15,9 C 5,3 km/h (1 Bft) 100,00 %
22/07/2018 04:02 15,9 C 90 % 1015,6 hPa 0,0 mm 4,0 km/h (1 Bft) O-NO 284 0 min 0 min 0,000 mm 0,0 UV-I 0 W/m 14,3 C 15,9 C 5,3 km/h (1 Bft) 96,00 %
22/07/2018 04:01 15,9 C 90 % 1015,6 hPa 0,0 mm 3,8 km/h (1 Bft) O-NO 283 0 min 0 min 0,000 mm 0,0 UV-I 0 W/m 14,3 C 15,9 C 7,1 km/h (2 Bft) 100,00 %
22/07/2018 04:00 15,9 C 90 % 1015,6 hPa 0,0 mm 3,0 km/h (1 Bft) O-NO 296 0 min 0 min 0,000 mm 0,0 UV-I 0 W/m 14,3 C 15,9 C 5,3 km/h (1 Bft) 100,00 %
22/07/2018 03:59 15,9 C 90 % 1015,6 hPa 0,0 mm 4,4 km/h (1 Bft) NO 319 0 min 0 min 0,000 mm 0,0 UV-I 0 W/m 14,3 C 15,9 C 7,1 km/h (2 Bft) 100,00 %
22/07/2018 03:58 15,9 C 90 % 1015,6 hPa 0,0 mm 3,9 km/h (1 Bft) O-NO 291 0 min 0 min 0,000 mm 0,0 UV-I 0 W/m 14,3 C 15,9 C 5,3 km/h (1 Bft) 100,00 %
22/07/2018 03:57 15,9 C 90 % 1015,6 hPa 0,0 mm 2,8 km/h (1 Bft) O-NO 295 0 min 0 min 0,000 mm 0,0 UV-I 0 W/m 14,3 C 15,9 C 5,3 km/h (1 Bft) 100,00 %
22/07/2018 03:56 15,9 C 90 % 1015,6 hPa 0,0 mm 1,5 km/h (1 Bft) O-NO 291 0 min 0 min 0,000 mm 0,0 UV-I 0 W/m 14,3 C 15,9 C 3,5 km/h (1 Bft) 100,00 %
22/07/2018 03:55 15,9 C 90 % 1015,6 hPa 0,0 mm 4,0 km/h (1 Bft) O-NO 291 0 min 0 min 0,000 mm 0,0 UV-I 0 W/m 14,3 C 15,9 C 7,1 km/h (2 Bft) 100,00 %
22/07/2018 03:54 15,9 C 90 % 1015,6 hPa 0,0 mm 2,2 km/h (1 Bft) O-NO 289 0 min 0 min 0,000 mm 0,0 UV-I 0 W/m 14,3 C 15,9 C 5,3 km/h (1 Bft) 91,67 %
22/07/2018 03:53 15,8 C 90 % 1015,6 hPa 0,0 mm 4,6 km/h (1 Bft) NO 304 0 min 0 min 0,000 mm 0,0 UV-I 0 W/m 14,2 C 15,8 C 7,1 km/h (2 Bft) 100,00 %
22/07/2018 03:52 15,8 C 90 % 1015,6 hPa 0,0 mm 0,1 km/h (0 Bft) O 261 0 min 0 min 0,000 mm 0,0 UV-I 0 W/m 14,2 C 15,8 C 1,8 km/h (1 Bft) 100,00 %
22/07/2018 03:51 15,8 C 90 % 1015,6 hPa 0,0 mm 0,7 km/h (0 Bft) O 261 0 min 0 min 0,000 mm 0,0 UV-I 0 W/m 14,2 C 15,8 C 1,8 km/h (1 Bft) 100,00 %
22/07/2018 03:50 15,8 C 90 % 1015,6 hPa 0,0 mm 1,1 km/h (1 Bft) O 261 0 min 0 min 0,000 mm 0,0 UV-I 0 W/m 14,2 C 15,8 C 3,5 km/h (1 Bft) 100,00 %
22/07/2018 03:49 15,8 C 90 % 1015,6 hPa 0,0 mm 2,9 km/h (1 Bft) O 261 0 min 0 min 0,000 mm 0,0 UV-I 0 W/m 14,2 C 15,8 C 5,3 km/h (1 Bft) 92,59 %
22/07/2018 03:48 15,8 C 90 % 1015,5 hPa 0,0 mm 3,2 km/h (1 Bft) O 261 0 min 0 min 0,000 mm 0,0 UV-I 0 W/m 14,2 C 15,8 C 5,3 km/h (1 Bft) 100,00 %
22/07/2018 03:47 15,8 C 90 % 1015,6 hPa 0,0 mm 1,6 km/h (1 Bft) O 274 0 min 0 min 0,000 mm 0,0 UV-I 0 W/m 14,2 C 15,8 C 3,5 km/h (1 Bft) 100,00 %
22/07/2018 03:46 15,8 C 90 % 1015,6 hPa 0,0 mm 1,2 km/h (1 Bft) O 274 0 min 0 min 0,000 mm 0,0 UV-I 0 W/m 14,2 C 15,8 C 3,5 km/h (1 Bft) 100,00 %
22/07/2018 03:44 15,8 C 90 % 1015,6 hPa 0,0 mm 2,5 km/h (1 Bft) O 279 0 min 0 min 0,000 mm 0,0 UV-I 0 W/m 14,2 C 15,8 C 5,3 km/h (1 Bft) 90,91 %
22/07/2018 03:43 15,8 C 91 % 1015,6 hPa 0,0 mm 1,8 km/h (1 Bft) O 279 0 min 0 min 0,000 mm 0,0 UV-I 0 W/m 14,3 C 15,8 C 7,1 km/h (2 Bft) 100,00 %
22/07/2018 03:42 15,8 C 91 % 1015,6 hPa 0,0 mm 2,0 km/h (1 Bft) O 279 0 min 0 min 0,000 mm 0,0 UV-I 0 W/m 14,3 C 15,8 C 5,3 km/h (1 Bft) 100,00 %
22/07/2018 03:41 15,8 C 91 % 1015,6 hPa 0,0 mm 0,1 km/h (0 Bft) O 273 0 min 0 min 0,000 mm 0,0 UV-I 0 W/m 14,3 C 15,8 C 1,8 km/h (1 Bft) 96,55 %
22/07/2018 03:40 15,7 C 91 % 1015,6 hPa 0,0 mm 2,1 km/h (1 Bft) O 273 0 min 0 min 0,000 mm 0,0 UV-I 0 W/m 14,2 C 15,7 C 5,3 km/h (1 Bft) 100,00 %
22/07/2018 03:39 15,7 C 91 % 1015,6 hPa 0,0 mm 3,7 km/h (1 Bft) O-NO 292 0 min 0 min 0,000 mm 0,0 UV-I 0 W/m 14,2 C 15,7 C 7,1 km/h (2 Bft) 100,00 %
22/07/2018 03:38 15,7 C 91 % 1015,6 hPa 0,0 mm 4,5 km/h (1 Bft) NO 304 0 min 0 min 0,000 mm 0,0 UV-I 0 W/m 14,2 C 15,7 C 7,1 km/h (2 Bft) 100,00 %
22/07/2018 03:37 15,6 C 91 % 1015,6 hPa 0,0 mm 5,2 km/h (1 Bft) O 279 0 min 0 min 0,000 mm 0,0 UV-I 0 W/m 14,1 C 15,6 C 8,9 km/h (2 Bft) 95,65 %
22/07/2018 03:36 15,6 C 92 % 1015,6 hPa 0,0 mm 4,2 km/h (1 Bft) SO 226 0 min 0 min 0,000 mm 0,0 UV-I 0 W/m 14,3 C 15,6 C 7,1 km/h (2 Bft) 91,67 %
22/07/2018 03:35 15,6 C 92 % 1015,6 hPa 0,0 mm 3,1 km/h (1 Bft) O-SO 256 0 min 0 min 0,000 mm 0,0 UV-I 0 W/m 14,3 C 15,6 C 5,3 km/h (1 Bft) 100,00 %
22/07/2018 03:34 15,6 C 92 % 1015,6 hPa 0,0 mm 3,5 km/h (1 Bft) O-SO 254 0 min 0 min 0,000 mm 0,0 UV-I 0 W/m 14,3 C 15,6 C 7,1 km/h (2 Bft) 100,00 %
22/07/2018 03:33 15,6 C 92 % 1015,5 hPa 0,0 mm 3,3 km/h (1 Bft) SO 221 0 min 0 min 0,000 mm 0,0 UV-I 0 W/m 14,3 C 15,6 C 5,3 km/h (1 Bft) 100,00 %
22/07/2018 03:32 15,5 C 92 % 1015,6 hPa 0,0 mm 3,2 km/h (1 Bft) O-SO 249 0 min 0 min 0,000 mm 0,0 UV-I 0 W/m 14,2 C 15,5 C 5,3 km/h (1 Bft) 100,00 %
22/07/2018 03:31 15,6 C 92 % 1015,6 hPa 0,0 mm 1,7 km/h (1 Bft) O-SO 239 0 min 0 min 0,000 mm 0,0 UV-I 0 W/m 14,3 C 15,6 C 5,3 km/h (1 Bft) 100,00 %
22/07/2018 03:30 15,5 C 92 % 1015,5 hPa 0,0 mm 3,8 km/h (1 Bft) O-SO 239 0 min 0 min 0,000 mm 0,0 UV-I 0 W/m 14,2 C 15,5 C 5,3 km/h (1 Bft) 100,00 %
22/07/2018 03:29 15,5 C 92 % 1015,6 hPa 0,0 mm 3,0 km/h (1 Bft) O-SO 240 0 min 0 min 0,000 mm 0,0 UV-I 0 W/m 14,2 C 15,5 C 5,3 km/h (1 Bft) 100,00 %
22/07/2018 03:28 15,5 C 92 % 1015,6 hPa 0,0 mm 5,5 km/h (2 Bft) O-SO 240 0 min 0 min 0,000 mm 0,0 UV-I 0 W/m 14,2 C 15,5 C 7,1 km/h (2 Bft) 100,00 %
22/07/2018 03:27 15,6 C 92 % 1015,5 hPa 0,0 mm 4,6 km/h (1 Bft) SO 236 0 min 0 min 0,000 mm 0,0 UV-I 0 W/m 14,3 C 15,6 C 7,1 km/h (2 Bft) 100,00 %
22/07/2018 03:26 15,6 C 92 % 1015,6 hPa 0,0 mm 0,3 km/h (0 Bft) O-SO 248 0 min 0 min 0,000 mm 0,0 UV-I 0 W/m 14,3 C 15,6 C 1,8 km/h (1 Bft) 100,00 %
22/07/2018 03:25 15,6 C 92 % 1015,6 hPa 0,0 mm 0,0 km/h (0 Bft) O-SO 242 0 min 0 min 0,000 mm 0,0 UV-I 0 W/m 14,3 C 15,6 C 0,0 km/h (0 Bft) 97,44 %
22/07/2018 03:24 15,6 C 92 % 1015,6 hPa 0,0 mm 0,0 km/h (0 Bft) O-SO 242 0 min 0 min 0,000 mm 0,0 UV-I 0 W/m 14,3 C 15,6 C 0,0 km/h (0 Bft) 100,00 %
22/07/2018 03:23 15,6 C 92 % 1015,6 hPa 0,0 mm 0,0 km/h (0 Bft) O-SO 242 0 min 0 min 0,000 mm 0,0 UV-I 0 W/m 14,3 C 15,6 C 0,0 km/h (0 Bft) 100,00 %
22/07/2018 03:22 15,6 C 92 % 1015,6 hPa 0,0 mm 2,0 km/h (1 Bft) O-SO 242 0 min 0 min 0,000 mm 0,0 UV-I 0 W/m 14,3 C 15,6 C 5,3 km/h (1 Bft) 100,00 %
22/07/2018 03:21 15,6 C 92 % 1015,5 hPa 0,0 mm 4,1 km/h (1 Bft) O-SO 240 0 min 0 min 0,000 mm 0,0 UV-I 0 W/m 14,3 C 15,6 C 5,3 km/h (1 Bft) 100,00 %
22/07/2018 03:20 15,7 C 92 % 1015,6 hPa 0,0 mm 2,7 km/h (1 Bft) O 266 0 min 0 min 0,000 mm 0,0 UV-I 0 W/m 14,4 C 15,7 C 5,3 km/h (1 Bft) 95,65 %
22/07/2018 03:19 15,7 C 92 % 1015,6 hPa 0,0 mm 1,5 km/h (1 Bft) O-NO 283 0 min 0 min 0,000 mm 0,0 UV-I 0 W/m 14,4 C 15,7 C 3,5 km/h (1 Bft) 100,00 %
22/07/2018 03:18 15,7 C 92 % 1015,6 hPa 0,0 mm 1,6 km/h (1 Bft) O-NO 283 0 min 0 min 0,000 mm 0,0 UV-I 0 W/m 14,4 C 15,7 C 3,5 km/h (1 Bft) 100,00 %
22/07/2018 03:17 15,7 C 91 % 1015,5 hPa 0,0 mm 1,8 km/h (1 Bft) O-NO 284 0 min 0 min 0,000 mm 0,0 UV-I 0 W/m 14,2 C 15,7 C 3,5 km/h (1 Bft) 100,00 %
22/07/2018 03:16 15,7 C 91 % 1015,6 hPa 0,0 mm 3,2 km/h (1 Bft) O-NO 287 0 min 0 min 0,000 mm 0,0 UV-I 0 W/m 14,2 C 15,7 C 3,5 km/h (1 Bft) 96,77 %
22/07/2018 03:15 15,7 C 91 % 1015,6 hPa 0,0 mm 0,5 km/h (0 Bft) O-NO 287 0 min 0 min 0,000 mm 0,0 UV-I 0 W/m 14,2 C 15,7 C 3,5 km/h (1 Bft) 90,91 %
22/07/2018 03:14 15,7 C 91 % 1015,6 hPa 0,0 mm 1,6 km/h (1 Bft) O-NO 290 0 min 0 min 0,000 mm 0,0 UV-I 0 W/m 14,2 C 15,7 C 3,5 km/h (1 Bft) 100,00 %
22/07/2018 03:13 15,8 C 91 % 1015,5 hPa 0,0 mm 2,5 km/h (1 Bft) O-NO 290 0 min 0 min 0,000 mm 0,0 UV-I 0 W/m 14,3 C 15,8 C 3,5 km/h (1 Bft) 100,00 %
22/07/2018 03:12 15,8 C 91 % 1015,5 hPa 0,0 mm 1,0 km/h (0 Bft) O-NO 290 0 min 0 min 0,000 mm 0,0 UV-I 0 W/m 14,3 C 15,8 C 3,5 km/h (1 Bft) 100,00 %
22/07/2018 03:11 15,8 C 91 % 1015,5 hPa 0,0 mm 1,5 km/h (1 Bft) O-NO 290 0 min 0 min 0,000 mm 0,0 UV-I 0 W/m 14,3 C 15,8 C 3,5 km/h (1 Bft) 100,00 %
22/07/2018 03:10 15,8 C 91 % 1015,6 hPa 0,0 mm 2,5 km/h (1 Bft) O-NO 290 0 min 0 min 0,000 mm 0,0 UV-I 0 W/m 14,3 C 15,8 C 5,3 km/h (1 Bft) 100,00 %
22/07/2018 03:09 15,8 C 91 % 1015,6 hPa 0,0 mm 1,2 km/h (1 Bft) O-NO 295 0 min 0 min 0,000 mm 0,0 UV-I 0 W/m 14,3 C 15,8 C 3,5 km/h (1 Bft) 100,00 %
22/07/2018 03:08 15,8 C 91 % 1015,5 hPa 0,0 mm 1,5 km/h (1 Bft) O-NO 295 0 min 0 min 0,000 mm 0,0 UV-I 0 W/m 14,3 C 15,8 C 3,5 km/h (1 Bft) 100,00 %
22/07/2018 03:07 15,8 C 91 % 1015,6 hPa 0,0 mm 0,2 km/h (0 Bft) O-NO 295 0 min 0 min 0,000 mm 0,0 UV-I 0 W/m 14,3 C 15,8 C 1,8 km/h (1 Bft) 100,00 %
22/07/2018 03:06 15,8 C 91 % 1015,5 hPa 0,0 mm 1,3 km/h (1 Bft) O-NO 295 0 min 0 min 0,000 mm 0,0 UV-I 0 W/m 14,3 C 15,8 C 3,5 km/h (1 Bft) 95,65 %
22/07/2018 03:05 15,8 C 91 % 1015,5 hPa 0,0 mm 0,6 km/h (0 Bft) O-NO 295 0 min 0 min 0,000 mm 0,0 UV-I 0 W/m 14,3 C 15,8 C 1,8 km/h (1 Bft) 100,00 %
22/07/2018 03:04 15,9 C 91 % 1015,5 hPa 0,0 mm 2,3 km/h (1 Bft) O-NO 295 0 min 0 min 0,000 mm 0,0 UV-I 0 W/m 14,4 C 15,9 C 5,3 km/h (1 Bft) 100,00 %
22/07/2018 03:03 15,9 C 91 % 1015,5 hPa 0,0 mm 1,8 km/h (1 Bft) NO 316 0 min 0 min 0,000 mm 0,0 UV-I 0 W/m 14,4 C 15,9 C 5,3 km/h (1 Bft) 100,00 %
22/07/2018 03:02 15,9 C 91 % 1015,5 hPa 0,0 mm 2,1 km/h (1 Bft) NO 324 0 min 0 min 0,000 mm 0,0 UV-I 0 W/m 14,4 C 15,9 C 7,1 km/h (2 Bft) 100,00 %
22/07/2018 03:01 15,9 C 91 % 1015,5 hPa 0,0 mm 0,0 km/h (0 Bft) O 280 0 min 0 min 0,000 mm 0,0 UV-I 0 W/m 14,4 C 15,9 C 0,0 km/h (0 Bft) 100,00 %
22/07/2018 03:00 15,9 C 91 % 1015,5 hPa 0,0 mm 0,0 km/h (0 Bft) O 280 0 min 0 min 0,000 mm 0,0 UV-I 0 W/m 14,4 C 15,9 C 0,0 km/h (0 Bft) 100,00 %
22/07/2018 02:59 15,9 C 91 % 1015,5 hPa 0,0 mm 0,0 km/h (0 Bft) O 280 0 min 0 min 0,000 mm 0,0 UV-I 0 W/m 14,4 C 15,9 C 0,0 km/h (0 Bft) 100,00 %
22/07/2018 02:58 15,9 C 91 % 1015,5 hPa 0,0 mm 0,2 km/h (0 Bft) O 280 0 min 0 min 0,000 mm 0,0 UV-I 0 W/m 14,4 C 15,9 C 1,8 km/h (1 Bft) 95,83 %
22/07/2018 02:57 15,9 C 91 % 1015,5 hPa 0,0 mm 0,0 km/h (0 Bft) O 280 0 min 0 min 0,000 mm 0,0 UV-I 0 W/m 14,4 C 15,9 C 0,0 km/h (0 Bft) 100,00 %
22/07/2018 02:56 16,0 C 91 % 1015,5 hPa 0,0 mm 0,3 km/h (0 Bft) O 280 0 min 0 min 0,000 mm 0,0 UV-I 0 W/m 14,5 C 16,0 C 1,8 km/h (1 Bft) 100,00 %
22/07/2018 02:55 16,0 C 91 % 1015,5 hPa 0,0 mm 0,7 km/h (0 Bft) O 280 0 min 0 min 0,000 mm 0,0 UV-I 0 W/m 14,5 C 16,0 C 1,8 km/h (1 Bft) 100,00 %
22/07/2018 02:54 16,1 C 91 % 1015,5 hPa 0,0 mm 0,6 km/h (0 Bft) O 280 0 min 0 min 0,000 mm 0,0 UV-I 0 W/m 14,6 C 16,1 C 3,5 km/h (1 Bft) 100,00 %
22/07/2018 02:53 16,1 C 91 % 1015,5 hPa 0,0 mm 0,4 km/h (0 Bft) O 280 0 min 0 min 0,000 mm 0,0 UV-I 0 W/m 14,6 C 16,1 C 1,8 km/h (1 Bft) 100,00 %
22/07/2018 02:52 16,1 C 91 % 1015,5 hPa 0,0 mm 4,1 km/h (1 Bft) O 280 0 min 0 min 0,000 mm 0,0 UV-I 0 W/m 14,6 C 16,1 C 7,1 km/h (2 Bft) 100,00 %
22/07/2018 02:51 16,1 C 91 % 1015,5 hPa 0,0 mm 0,2 km/h (0 Bft) O-NO 294 0 min 0 min 0,000 mm 0,0 UV-I 0 W/m 14,6 C 16,1 C 1,8 km/h (1 Bft) 95,83 %
22/07/2018 02:50 16,1 C 91 % 1015,5 hPa 0,0 mm 0,5 km/h (0 Bft) O-NO 294 0 min 0 min 0,000 mm 0,0 UV-I 0 W/m 14,6 C 16,1 C 1,8 km/h (1 Bft) 96,00 %
22/07/2018 02:49 16,1 C 91 % 1015,5 hPa 0,0 mm 0,0 km/h (0 Bft) O-NO 294 0 min 0 min 0,000 mm 0,0 UV-I 0 W/m 14,6 C 16,1 C 0,0 km/h (0 Bft) 95,65 %
22/07/2018 02:48 16,1 C 91 % 1015,5 hPa 0,0 mm 0,3 km/h (0 Bft) O-NO 294 0 min 0 min 0,000 mm 0,0 UV-I 0 W/m 14,6 C 16,1 C 1,8 km/h (1 Bft) 100,00 %
22/07/2018 02:47 16,2 C 91 % 1015,5 hPa 0,0 mm 0,0 km/h (0 Bft) O-NO 294 0 min 0 min 0,000 mm 0,0 UV-I 0 W/m 14,7 C 16,2 C 0,0 km/h (0 Bft) 100,00 %
22/07/2018 02:46 16,2 C 91 % 1015,5 hPa 0,0 mm 1,0 km/h (0 Bft) O-NO 294 0 min 0 min 0,000 mm 0,0 UV-I 0 W/m 14,7 C 16,2 C 3,5 km/h (1 Bft) 100,00 %
22/07/2018 02:45 16,2 C 91 % 1015,5 hPa 0,0 mm 1,6 km/h (1 Bft) O-NO 294 0 min 0 min 0,000 mm 0,0 UV-I 0 W/m 14,7 C 16,2 C 5,3 km/h (1 Bft) 100,00 %
22/07/2018 02:44 16,2 C 91 % 1015,5 hPa 0,0 mm 0,5 km/h (0 Bft) O-NO 298 0 min 0 min 0,000 mm 0,0 UV-I 0 W/m 14,7 C 16,2 C 1,8 km/h (1 Bft) 95,83 %
22/07/2018 02:43 16,2 C 91 % 1015,5 hPa 0,0 mm 3,5 km/h (1 Bft) O-NO 298 0 min 0 min 0,000 mm 0,0 UV-I 0 W/m 14,7 C 16,2 C 7,1 km/h (2 Bft) 96,30 %
22/07/2018 02:42 16,2 C 91 % 1015,5 hPa 0,0 mm 2,7 km/h (1 Bft) O 266 0 min 0 min 0,000 mm 0,0 UV-I 0 W/m 14,7 C 16,2 C 7,1 km/h (2 Bft) 96,15 %
22/07/2018 02:41 16,2 C 91 % 1015,5 hPa 0,0 mm 1,6 km/h (1 Bft) O-NO 296 0 min 0 min 0,000 mm 0,0 UV-I 0 W/m 14,7 C 16,2 C 3,5 km/h (1 Bft) 100,00 %
22/07/2018 02:40 16,2 C 91 % 1015,5 hPa 0,0 mm 2,7 km/h (1 Bft) O-NO 296 0 min 0 min 0,000 mm 0,0 UV-I 0 W/m 14,7 C 16,2 C 3,5 km/h (1 Bft) 96,15 %
22/07/2018 02:39 16,2 C 91 % 1015,5 hPa 0,0 mm 2,1 km/h (1 Bft) O-NO 298 0 min 0 min 0,000 mm 0,0 UV-I 0 W/m 14,7 C 16,2 C 5,3 km/h (1 Bft) 95,83 %
22/07/2018 02:38 16,2 C 91 % 1015,5 hPa 0,0 mm 3,0 km/h (1 Bft) O-NO 296 0 min 0 min 0,000 mm 0,0 UV-I 0 W/m 14,7 C 16,2 C 5,3 km/h (1 Bft) 100,00 %
22/07/2018 02:37 16,2 C 91 % 1015,5 hPa 0,0 mm 1,0 km/h (0 Bft) NO 309 0 min 0 min 0,000 mm 0,0 UV-I 0 W/m 14,7 C 16,2 C 1,8 km/h (1 Bft) 94,12 %
22/07/2018 02:36 16,2 C 91 % 1015,5 hPa 0,0 mm 2,7 km/h (1 Bft) NO 309 0 min 0 min 0,000 mm 0,0 UV-I 0 W/m 14,7 C 16,2 C 5,3 km/h (1 Bft) 96,08 %
22/07/2018 02:34 16,2 C 91 % 1015,5 hPa 0,0 mm 1,7 km/h (1 Bft) NO 317 0 min 0 min 0,000 mm 0,0 UV-I 0 W/m 14,7 C 16,2 C 3,5 km/h (1 Bft) 100,00 %
22/07/2018 02:33 16,2 C 91 % 1015,5 hPa 0,0 mm 4,8 km/h (1 Bft) NO 319 0 min 0 min 0,000 mm 0,0 UV-I 0 W/m 14,7 C 16,2 C 7,1 km/h (2 Bft) 93,33 %
22/07/2018 02:32 16,2 C 91 % 1015,5 hPa 0,0 mm 0,8 km/h (0 Bft) NO 306 0 min 0 min 0,000 mm 0,0 UV-I 0 W/m 14,7 C 16,2 C 3,5 km/h (1 Bft) 100,00 %
22/07/2018 02:31 16,2 C 91 % 1015,5 hPa 0,0 mm 3,3 km/h (1 Bft) NO 308 0 min 0 min 0,000 mm 0,0 UV-I 0 W/m 14,7 C 16,2 C 5,3 km/h (1 Bft) 96,00 %
22/07/2018 02:30 16,2 C 91 % 1015,5 hPa 0,0 mm 3,0 km/h (1 Bft) NO 315 0 min 0 min 0,000 mm 0,0 UV-I 0 W/m 14,7 C 16,2 C 7,1 km/h (2 Bft) 95,83 %
22/07/2018 02:29 16,2 C 91 % 1015,5 hPa 0,0 mm 2,6 km/h (1 Bft) O-NO 303 0 min 0 min 0,000 mm 0,0 UV-I 0 W/m 14,7 C 16,2 C 5,3 km/h (1 Bft) 100,00 %
22/07/2018 02:28 16,2 C 90 % 1015,5 hPa 0,0 mm 1,2 km/h (1 Bft) N-NO 330 0 min 0 min 0,000 mm 0,0 UV-I 0 W/m 14,6 C 16,2 C 3,5 km/h (1 Bft) 95,83 %
22/07/2018 02:27 16,2 C 90 % 1015,5 hPa 0,0 mm 2,8 km/h (1 Bft) N-NO 334 0 min 0 min 0,000 mm 0,0 UV-I 0 W/m 14,6 C 16,2 C 5,3 km/h (1 Bft) 100,00 %
22/07/2018 02:26 16,2 C 90 % 1015,5 hPa 0,0 mm 3,9 km/h (1 Bft) NO 323 0 min 0 min 0,000 mm 0,0 UV-I 0 W/m 14,6 C 16,2 C 7,1 km/h (2 Bft) 96,00 %
22/07/2018 02:25 16,2 C 90 % 1015,5 hPa 0,0 mm 3,1 km/h (1 Bft) O-NO 298 0 min 0 min 0,000 mm 0,0 UV-I 0 W/m 14,6 C 16,2 C 7,1 km/h (2 Bft) 91,67 %
22/07/2018 02:24 16,3 C 90 % 1015,5 hPa 0,0 mm 3,6 km/h (1 Bft) O-NO 292 0 min 0 min 0,000 mm 0,0 UV-I 0 W/m 14,7 C 16,3 C 7,1 km/h (2 Bft) 100,00 %
22/07/2018 02:23 16,3 C 90 % 1015,5 hPa 0,0 mm 2,4 km/h (1 Bft) O-NO 292 0 min 0 min 0,000 mm 0,0 UV-I 0 W/m 14,7 C 16,3 C 5,3 km/h (1 Bft) 100,00 %
22/07/2018 02:22 16,3 C 90 % 1015,5 hPa 0,0 mm 3,3 km/h (1 Bft) O-NO 292 0 min 0 min 0,000 mm 0,0 UV-I 0 W/m 14,7 C 16,3 C 7,1 km/h (2 Bft) 92,59 %
22/07/2018 02:21 16,3 C 90 % 1015,5 hPa 0,0 mm 0,8 km/h (0 Bft) O-NO 294 0 min 0 min 0,000 mm 0,0 UV-I 0 W/m 14,7 C 16,3 C 3,5 km/h (1 Bft) 92,31 %
22/07/2018 02:20 16,3 C 90 % 1015,5 hPa 0,0 mm 1,4 km/h (1 Bft) O-NO 294 0 min 0 min 0,000 mm 0,0 UV-I 0 W/m 14,7 C 16,3 C 3,5 km/h (1 Bft) 100,00 %
22/07/2018 02:19 16,3 C 90 % 1015,5 hPa 0,0 mm 0,4 km/h (0 Bft) O-NO 292 0 min 0 min 0,000 mm 0,0 UV-I 0 W/m 14,7 C 16,3 C 1,8 km/h (1 Bft) 91,67 %
22/07/2018 02:18 16,3 C 90 % 1015,5 hPa 0,0 mm 1,9 km/h (1 Bft) O-NO 293 0 min 0 min 0,000 mm 0,0 UV-I 0 W/m 14,7 C 16,3 C 3,5 km/h (1 Bft) 96,15 %
22/07/2018 02:17 16,4 C 90 % 1015,5 hPa 0,0 mm 2,4 km/h (1 Bft) O-NO 292 0 min 0 min 0,000 mm 0,0 UV-I 0 W/m 14,8 C 16,4 C 5,3 km/h (1 Bft) 95,83 %
22/07/2018 02:16 16,4 C 90 % 1015,5 hPa 0,0 mm 0,9 km/h (0 Bft) O-NO 300 0 min 0 min 0,000 mm 0,0 UV-I 0 W/m 14,8 C 16,4 C 3,5 km/h (1 Bft) 93,75 %
22/07/2018 02:15 16,4 C 90 % 1015,5 hPa 0,0 mm 2,5 km/h (1 Bft) O-NO 301 0 min 0 min 0,000 mm 0,0 UV-I 0 W/m 14,8 C 16,4 C 5,3 km/h (1 Bft) 100,00 %
22/07/2018 02:14 16,4 C 90 % 1015,5 hPa 0,0 mm 2,0 km/h (1 Bft) O-NO 300 0 min 0 min 0,000 mm 0,0 UV-I 0 W/m 14,8 C 16,4 C 3,5 km/h (1 Bft) 96,30 %
22/07/2018 02:13 16,4 C 90 % 1015,5 hPa 0,0 mm 2,1 km/h (1 Bft) O-NO 302 0 min 0 min 0,000 mm 0,0 UV-I 0 W/m 14,8 C 16,4 C 3,5 km/h (1 Bft) 95,65 %
22/07/2018 02:12 16,5 C 90 % 1015,5 hPa 0,0 mm 1,6 km/h (1 Bft) N-NO 338 0 min 0 min 0,000 mm 0,0 UV-I 0 W/m 14,9 C 16,5 C 3,5 km/h (1 Bft) 95,83 %
22/07/2018 02:11 16,5 C 90 % 1015,5 hPa 0,0 mm 1,2 km/h (1 Bft) NO 307 0 min 0 min 0,000 mm 0,0 UV-I 0 W/m 14,9 C 16,5 C 3,5 km/h (1 Bft) 100,00 %
22/07/2018 02:10 16,6 C 90 % 1015,5 hPa 0,0 mm 3,6 km/h (1 Bft) NO 309 0 min 0 min 0,000 mm 0,0 UV-I 0 W/m 15,0 C 16,6 C 7,1 km/h (2 Bft) 96,00 %
22/07/2018 02:09 16,6 C 90 % 1015,5 hPa 0,0 mm 1,0 km/h (0 Bft) NO 319 0 min 0 min 0,000 mm 0,0 UV-I 0 W/m 15,0 C 16,6 C 3,5 km/h (1 Bft) 100,00 %
22/07/2018 02:08 16,6 C 90 % 1015,5 hPa 0,0 mm 1,8 km/h (1 Bft) NO 319 0 min 0 min 0,000 mm 0,0 UV-I 0 W/m 15,0 C 16,6 C 5,3 km/h (1 Bft) 95,83 %
22/07/2018 02:07 16,6 C 90 % 1015,5 hPa 0,0 mm 1,5 km/h (1 Bft) NO 316 0 min 0 min 0,000 mm 0,0 UV-I 0 W/m 15,0 C 16,6 C 3,5 km/h (1 Bft) 100,00 %
22/07/2018 02:06 16,6 C 89 % 1015,5 hPa 0,0 mm 0,4 km/h (0 Bft) NO 317 0 min 0 min 0,000 mm 0,0 UV-I 0 W/m 14,8 C 16,6 C 3,5 km/h (1 Bft) 95,83 %
22/07/2018 02:05 16,7 C 89 % 1015,5 hPa 0,0 mm 1,6 km/h (1 Bft) NO 317 0 min 0 min 0,000 mm 0,0 UV-I 0 W/m 14,9 C 16,7 C 5,3 km/h (1 Bft) 100,00 %
22/07/2018 02:04 16,7 C 89 % 1015,5 hPa 0,0 mm 0,0 km/h (0 Bft) NO 317 0 min 0 min 0,000 mm 0,0 UV-I 0 W/m 14,9 C 16,7 C 0,0 km/h (0 Bft) 100,00 %
22/07/2018 02:03 16,7 C 89 % 1015,6 hPa 0,0 mm 0,1 km/h (0 Bft) NO 317 0 min 0 min 0,000 mm 0,0 UV-I 0 W/m 14,9 C 16,7 C 1,8 km/h (1 Bft) 100,00 %
22/07/2018 02:02 16,7 C 89 % 1015,5 hPa 0,0 mm 0,2 km/h (0 Bft) NO 317 0 min 0 min 0,000 mm 0,0 UV-I 0 W/m 14,9 C 16,7 C 1,8 km/h (1 Bft) 100,00 %
22/07/2018 02:01 16,8 C 89 % 1015,5 hPa 0,0 mm 1,6 km/h (1 Bft) NO 317 0 min 0 min 0,000 mm 0,0 UV-I 0 W/m 15,0 C 16,8 C 3,5 km/h (1 Bft) 100,00 %
22/07/2018 02:00 16,8 C 89 % 1015,5 hPa 0,0 mm 2,2 km/h (1 Bft) O-NO 283 0 min 0 min 0,026 mm 0,0 UV-I 0 W/m 15,0 C 16,8 C 5,3 km/h (1 Bft) 100,00 %
22/07/2018 01:59 16,8 C 89 % 1015,5 hPa 0,0 mm 1,4 km/h (1 Bft) O-NO 283 0 min 0 min 0,000 mm 0,0 UV-I 0 W/m 15,0 C 16,8 C 3,5 km/h (1 Bft) 93,33 %
22/07/2018 01:58 16,8 C 89 % 1015,5 hPa 0,0 mm 2,0 km/h (1 Bft) O 281 0 min 0 min 0,000 mm 0,0 UV-I 0 W/m 15,0 C 16,8 C 3,5 km/h (1 Bft) 100,00 %
22/07/2018 01:57 16,8 C 89 % 1015,5 hPa 0,0 mm 1,3 km/h (1 Bft) O-NO 295 0 min 0 min 0,000 mm 0,0 UV-I 0 W/m 15,0 C 16,8 C 3,5 km/h (1 Bft) 100,00 %
22/07/2018 01:56 16,9 C 89 % 1015,5 hPa 0,0 mm 2,5 km/h (1 Bft) NO 315 0 min 0 min 0,000 mm 0,0 UV-I 0 W/m 15,1 C 16,9 C 8,9 km/h (2 Bft) 100,00 %
22/07/2018 01:55 16,9 C 89 % 1015,5 hPa 0,0 mm 1,8 km/h (1 Bft) N-NE 15 0 min 0 min 0,000 mm 0,0 UV-I 0 W/m 15,1 C 16,9 C 3,5 km/h (1 Bft) 100,00 %
22/07/2018 01:54 16,9 C 89 % 1015,5 hPa 0,0 mm 4,5 km/h (1 Bft) N-NO 338 0 min 0 min 0,000 mm 0,0 UV-I 0 W/m 15,1 C 16,9 C 7,1 km/h (2 Bft) 97,92 %
22/07/2018 01:53 17,0 C 88 % 1015,4 hPa 0,0 mm 0,5 km/h (0 Bft) NO 311 0 min 0 min 0,000 mm 0,0 UV-I 0 W/m 15,0 C 17,0 C 1,8 km/h (1 Bft) 98,40 %
22/07/2018 01:52 17,1 C 88 % 1015,5 hPa 0,0 mm 2,1 km/h (1 Bft) NO 311 0 min 0 min 0,000 mm 0,0 UV-I 0 W/m 15,1 C 17,1 C 3,5 km/h (1 Bft) 100,00 %
22/07/2018 01:51 17,1 C 88 % 1015,5 hPa 0,0 mm 1,4 km/h (1 Bft) O 269 0 min 0 min 0,000 mm 0,0 UV-I 0 W/m 15,1 C 17,1 C 3,5 km/h (1 Bft) 100,00 %
22/07/2018 01:50 17,1 C 88 % 1015,5 hPa 0,0 mm 2,5 km/h (1 Bft) N-NE 12 0 min 0 min 0,000 mm 0,0 UV-I 0 W/m 15,1 C 17,1 C 7,1 km/h (2 Bft) 100,00 %
22/07/2018 01:49 17,2 C 88 % 1015,5 hPa 0,0 mm 2,0 km/h (1 Bft) O-NO 301 0 min 0 min 0,000 mm 0,0 UV-I 0 W/m 15,2 C 17,2 C 3,5 km/h (1 Bft) 100,00 %
22/07/2018 01:48 17,2 C 88 % 1015,4 hPa 0,0 mm 2,6 km/h (1 Bft) N 355 0 min 0 min 0,000 mm 0,0 UV-I 0 W/m 15,2 C 17,2 C 5,3 km/h (1 Bft) 97,92 %
22/07/2018 01:46 17,3 C 87 % 1015,5 hPa 0,0 mm 1,6 km/h (1 Bft) NO 315 0 min 0 min 0,000 mm 0,0 UV-I 0 W/m 15,1 C 17,3 C 3,5 km/h (1 Bft) 100,00 %
22/07/2018 01:45 17,3 C 87 % 1015,5 hPa 0,0 mm 0,4 km/h (0 Bft) NO 317 0 min 0 min 0,000 mm 0,0 UV-I 0 W/m 15,1 C 17,3 C 1,8 km/h (1 Bft) 91,30 %
22/07/2018 01:44 17,3 C 87 % 1015,5 hPa 0,0 mm 2,4 km/h (1 Bft) NO 317 0 min 0 min 0,000 mm 0,0 UV-I 0 W/m 15,1 C 17,3 C 5,3 km/h (1 Bft) 100,00 %
22/07/2018 01:43 17,3 C 87 % 1015,5 hPa 0,0 mm 1,5 km/h (1 Bft) NO 313 0 min 0 min 0,000 mm 0,0 UV-I 0 W/m 15,1 C 17,3 C 3,5 km/h (1 Bft) 100,00 %
22/07/2018 01:42 17,4 C 87 % 1015,5 hPa 0,0 mm 1,2 km/h (1 Bft) NO 315 0 min 0 min 0,000 mm 0,0 UV-I 0 W/m 15,2 C 17,4 C 3,5 km/h (1 Bft) 95,65 %
22/07/2018 01:41 17,4 C 87 % 1015,5 hPa 0,0 mm 3,2 km/h (1 Bft) N-NO 328 0 min 0 min 0,000 mm 0,0 UV-I 0 W/m 15,2 C 17,4 C 5,3 km/h (1 Bft) 100,00 %
22/07/2018 01:40 17,4 C 87 % 1015,5 hPa 0,0 mm 3,4 km/h (1 Bft) NO 319 0 min 0 min 0,000 mm 0,0 UV-I 0 W/m 15,2 C 17,4 C 5,3 km/h (1 Bft) 100,00 %
22/07/2018 01:39 17,5 C 87 % 1015,5 hPa 0,0 mm 0,4 km/h (0 Bft) NO 314 0 min 0 min 0,000 mm 0,0 UV-I 0 W/m 15,3 C 17,5 C 1,8 km/h (1 Bft) 96,00 %
22/07/2018 01:38 17,6 C 87 % 1015,5 hPa 0,0 mm 1,0 km/h (0 Bft) NO 317 0 min 0 min 0,000 mm 0,0 UV-I 0 W/m 15,4 C 17,6 C 3,5 km/h (1 Bft) 100,00 %
22/07/2018 01:37 17,6 C 85 % 1015,5 hPa 0,0 mm 1,1 km/h (1 Bft) NO 317 0 min 0 min 0,000 mm 0,0 UV-I 0 W/m 15,0 C 17,6 C 3,5 km/h (1 Bft) 91,67 %
22/07/2018 01:36 17,6 C 85 % 1015,5 hPa 0,0 mm 0,3 km/h (0 Bft) NO 317 0 min 0 min 0,000 mm 0,0 UV-I 0 W/m 15,0 C 17,6 C 1,8 km/h (1 Bft) 100,00 %
22/07/2018 01:35 17,6 C 85 % 1015,5 hPa 0,0 mm 1,6 km/h (1 Bft) NO 317 0 min 0 min 0,000 mm 0,0 UV-I 0 W/m 15,0 C 17,6 C 3,5 km/h (1 Bft) 100,00 %
22/07/2018 01:34 17,6 C 85 % 1015,5 hPa 0,0 mm 3,7 km/h (1 Bft) NO 317 0 min 0 min 0,000 mm 0,0 UV-I 0 W/m 15,0 C 17,6 C 7,1 km/h (2 Bft) 96,43 %
22/07/2018 01:33 17,7 C 85 % 1015,4 hPa 0,0 mm 0,7 km/h (0 Bft) NO 317 0 min 0 min 0,000 mm 0,0 UV-I 0 W/m 15,1 C 17,7 C 1,8 km/h (1 Bft) 100,00 %
22/07/2018 01:32 17,7 C 85 % 1015,4 hPa 0,0 mm 1,6 km/h (1 Bft) NO 317 0 min 0 min 0,000 mm 0,0 UV-I 0 W/m 15,1 C 17,7 C 5,3 km/h (1 Bft) 100,00 %
22/07/2018 01:31 17,7 C 85 % 1015,5 hPa 0,0 mm 2,4 km/h (1 Bft) NO 314 0 min 0 min 0,000 mm 0,0 UV-I 0 W/m 15,1 C 17,7 C 7,1 km/h (2 Bft) 95,83 %
22/07/2018 01:30 17,7 C 85 % 1015,4 hPa 0,0 mm 3,3 km/h (1 Bft) O-NO 294 0 min 0 min 0,000 mm 0,0 UV-I 0 W/m 15,1 C 17,7 C 5,3 km/h (1 Bft) 100,00 %
22/07/2018 01:29 17,8 C 85 % 1015,5 hPa 0,0 mm 2,3 km/h (1 Bft) O-NO 294 0 min 0 min 0,000 mm 0,0 UV-I 0 W/m 15,2 C 17,8 C 7,1 km/h (2 Bft) 100,00 %
22/07/2018 01:28 17,8 C 85 % 1015,4 hPa 0,0 mm 1,9 km/h (1 Bft) O 278 0 min 0 min 0,000 mm 0,0 UV-I 0 W/m 15,2 C 17,8 C 5,3 km/h (1 Bft) 91,67 %
22/07/2018 01:27 17,8 C 85 % 1015,4 hPa 0,0 mm 2,2 km/h (1 Bft) O 279 0 min 0 min 0,000 mm 0,0 UV-I 0 W/m 15,2 C 17,8 C 5,3 km/h (1 Bft) 100,00 %
22/07/2018 01:26 17,8 C 85 % 1015,4 hPa 0,0 mm 2,2 km/h (1 Bft) O-NO 301 0 min 0 min 0,000 mm 0,0 UV-I 0 W/m 15,2 C 17,8 C 5,3 km/h (1 Bft) 100,00 %
22/07/2018 01:25 17,9 C 84 % 1015,4 hPa 0,0 mm 1,3 km/h (1 Bft) O-NO 302 0 min 0 min 0,000 mm 0,0 UV-I 0 W/m 15,2 C 17,9 C 3,5 km/h (1 Bft) 100,00 %
22/07/2018 01:24 17,9 C 84 % 1015,4 hPa 0,0 mm 0,8 km/h (0 Bft) O-NO 301 0 min 0 min 0,000 mm 0,0 UV-I 0 W/m 15,2 C 17,9 C 3,5 km/h (1 Bft) 100,00 %
22/07/2018 01:23 17,9 C 84 % 1015,4 hPa 0,0 mm 2,4 km/h (1 Bft) NO 309 0 min 0 min 0,000 mm 0,0 UV-I 0 W/m 15,2 C 17,9 C 5,3 km/h (1 Bft) 100,00 %
22/07/2018 01:22 18,0 C 84 % 1015,4 hPa 0,0 mm 0,7 km/h (0 Bft) NO 304 0 min 0 min 0,000 mm 0,0 UV-I 0 W/m 15,3 C 18,0 C 5,3 km/h (1 Bft) 100,00 %
22/07/2018 01:21 18,0 C 84 % 1015,4 hPa 0,0 mm 1,8 km/h (1 Bft) N-NO 338 0 min 0 min 0,000 mm 0,0 UV-I 0 W/m 15,3 C 18,0 C 5,3 km/h (1 Bft) 100,00 %
22/07/2018 01:20 18,1 C 84 % 1015,4 hPa 0,0 mm 1,2 km/h (1 Bft) NO 308 0 min 0 min 0,000 mm 0,0 UV-I 0 W/m 15,4 C 18,1 C 3,5 km/h (1 Bft) 100,00 %
22/07/2018 01:19 18,1 C 84 % 1015,4 hPa 0,0 mm 1,4 km/h (1 Bft) NO 313 0 min 0 min 0,000 mm 0,0 UV-I 0 W/m 15,4 C 18,1 C 3,5 km/h (1 Bft) 100,00 %
22/07/2018 01:18 18,1 C 83 % 1015,4 hPa 0,0 mm 0,6 km/h (0 Bft) NO 313 0 min 0 min 0,000 mm 0,0 UV-I 0 W/m 15,2 C 18,1 C 3,5 km/h (1 Bft) 100,00 %
22/07/2018 01:17 18,2 C 84 % 1015,4 hPa 0,0 mm 1,7 km/h (1 Bft) NO 313 0 min 0 min 0,000 mm 0,0 UV-I 0 W/m 15,4 C 18,2 C 3,5 km/h (1 Bft) 100,00 %
22/07/2018 01:16 18,2 C 84 % 1015,4 hPa 0,0 mm 2,4 km/h (1 Bft) NO 313 0 min 0 min 0,000 mm 0,0 UV-I 0 W/m 15,4 C 18,2 C 5,3 km/h (1 Bft) 96,15 %
22/07/2018 01:15 18,2 C 83 % 1015,4 hPa 0,0 mm 3,0 km/h (1 Bft) NO 306 0 min 0 min 0,000 mm 0,0 UV-I 0 W/m 15,3 C 18,2 C 5,3 km/h (1 Bft) 100,00 %
22/07/2018 01:14 18,3 C 83 % 1015,5 hPa 0,0 mm 1,2 km/h (1 Bft) NO 305 0 min 0 min 0,000 mm 0,0 UV-I 0 W/m 15,4 C 18,3 C 5,3 km/h (1 Bft) 100,00 %
22/07/2018 01:13 18,3 C 83 % 1015,4 hPa 0,0 mm 0,6 km/h (0 Bft) O-NO 292 0 min 0 min 0,000 mm 0,0 UV-I 0 W/m 15,4 C 18,3 C 1,8 km/h (1 Bft) 96,15 %
22/07/2018 01:12 18,3 C 83 % 1015,4 hPa 0,0 mm 1,4 km/h (1 Bft) O-NO 292 0 min 0 min 0,000 mm 0,0 UV-I 0 W/m 15,4 C 18,3 C 3,5 km/h (1 Bft) 100,00 %
22/07/2018 01:11 18,4 C 83 % 1015,4 hPa 0,0 mm 1,4 km/h (1 Bft) O-NO 289 0 min 0 min 0,000 mm 0,0 UV-I 0 W/m 15,5 C 18,4 C 3,5 km/h (1 Bft) 100,00 %
22/07/2018 01:10 18,4 C 83 % 1015,4 hPa 0,0 mm 1,0 km/h (0 Bft) NO 312 0 min 0 min 0,000 mm 0,0 UV-I 0 W/m 15,5 C 18,4 C 3,5 km/h (1 Bft) 100,00 %
22/07/2018 01:09 18,4 C 83 % 1015,4 hPa 0,0 mm 1,2 km/h (1 Bft) NO 312 0 min 0 min 0,000 mm 0,0 UV-I 0 W/m 15,5 C 18,4 C 3,5 km/h (1 Bft) 100,00 %
22/07/2018 01:08 18,4 C 83 % 1015,4 hPa 0,0 mm 2,3 km/h (1 Bft) NO 311 0 min 0 min 0,000 mm 0,0 UV-I 0 W/m 15,5 C 18,4 C 7,1 km/h (2 Bft) 96,30 %
22/07/2018 01:07 18,5 C 83 % 1015,4 hPa 0,0 mm 0,1 km/h (0 Bft) O-NO 287 0 min 0 min 0,000 mm 0,0 UV-I 0 W/m 15,6 C 18,5 C 1,8 km/h (1 Bft) 100,00 %
22/07/2018 01:06 18,6 C 83 % 1015,4 hPa 0,0 mm 1,3 km/h (1 Bft) O-NO 287 0 min 0 min 0,000 mm 0,0 UV-I 0 W/m 15,7 C 18,6 C 5,3 km/h (1 Bft) 100,00 %
22/07/2018 01:05 18,6 C 82 % 1015,4 hPa 0,0 mm 1,8 km/h (1 Bft) N-NO 330 0 min 0 min 0,000 mm 0,0 UV-I 0 W/m 15,5 C 18,6 C 5,3 km/h (1 Bft) 100,00 %
22/07/2018 01:04 18,6 C 82 % 1015,4 hPa 0,0 mm 1,1 km/h (1 Bft) O-NO 288 0 min 0 min 0,000 mm 0,0 UV-I 0 W/m 15,5 C 18,6 C 1,8 km/h (1 Bft) 100,00 %
22/07/2018 01:03 18,6 C 82 % 1015,4 hPa 0,0 mm 1,2 km/h (1 Bft) O-NO 288 0 min 0 min 0,000 mm 0,0 UV-I 0 W/m 15,5 C 18,6 C 3,5 km/h (1 Bft) 100,00 %
22/07/2018 01:02 18,6 C 82 % 1015,4 hPa 0,0 mm 0,4 km/h (0 Bft) O-NO 303 0 min 0 min 0,000 mm 0,0 UV-I 0 W/m 15,5 C 18,6 C 1,8 km/h (1 Bft) 100,00 %
22/07/2018 01:01 18,6 C 82 % 1015,4 hPa 0,0 mm 0,9 km/h (0 Bft) O-NO 302 0 min 0 min 0,000 mm 0,0 UV-I 0 W/m 15,5 C 18,6 C 3,5 km/h (1 Bft) 95,83 %
22/07/2018 01:00 18,7 C 82 % 1015,4 hPa 0,0 mm 0,8 km/h (0 Bft) O-NO 294 0 min 0 min 0,025 mm 0,0 UV-I 0 W/m 15,6 C 18,7 C 3,5 km/h (1 Bft) 100,00 %
22/07/2018 00:59 18,7 C 82 % 1015,4 hPa 0,0 mm 2,2 km/h (1 Bft) O-NO 294 0 min 0 min 0,000 mm 0,0 UV-I 0 W/m 15,6 C 18,7 C 3,5 km/h (1 Bft) 100,00 %
22/07/2018 00:58 18,7 C 82 % 1015,4 hPa 0,0 mm 2,2 km/h (1 Bft) O-NO 284 0 min 0 min 0,000 mm 0,0 UV-I 0 W/m 15,6 C 18,7 C 5,3 km/h (1 Bft) 96,30 %
22/07/2018 00:57 18,7 C 82 % 1015,4 hPa 0,0 mm 2,3 km/h (1 Bft) NO 305 0 min 0 min 0,000 mm 0,0 UV-I 0 W/m 15,6 C 18,7 C 5,3 km/h (1 Bft) 100,00 %
22/07/2018 00:56 18,7 C 82 % 1015,4 hPa 0,0 mm 3,4 km/h (1 Bft) NO 312 0 min 0 min 0,000 mm 0,0 UV-I 0 W/m 15,6 C 18,7 C 5,3 km/h (1 Bft) 96,30 %
22/07/2018 00:55 18,7 C 82 % 1015,4 hPa 0,0 mm 3,6 km/h (1 Bft) O-NO 296 0 min 0 min 0,000 mm 0,0 UV-I 0 W/m 15,6 C 18,7 C 5,3 km/h (1 Bft) 100,00 %
22/07/2018 00:54 18,7 C 82 % 1015,4 hPa 0,0 mm 1,2 km/h (1 Bft) O 281 0 min 0 min 0,000 mm 0,0 UV-I 0 W/m 15,6 C 18,7 C 5,3 km/h (1 Bft) 100,00 %
22/07/2018 00:53 18,7 C 82 % 1015,4 hPa 0,0 mm 1,6 km/h (1 Bft) N-NO 330 0 min 0 min 0,000 mm 0,0 UV-I 0 W/m 15,6 C 18,7 C 5,3 km/h (1 Bft) 100,00 %
22/07/2018 00:52 18,7 C 82 % 1015,4 hPa 0,0 mm 2,2 km/h (1 Bft) N-NE 24 0 min 0 min 0,000 mm 0,0 UV-I 0 W/m 15,6 C 18,7 C 7,1 km/h (2 Bft) 100,00 %
22/07/2018 00:51 18,8 C 82 % 1015,4 hPa 0,0 mm 3,3 km/h (1 Bft) O-NO 298 0 min 0 min 0,000 mm 0,0 UV-I 0 W/m 15,7 C 18,8 C 5,3 km/h (1 Bft) 100,00 %
22/07/2018 00:50 18,8 C 82 % 1015,4 hPa 0,0 mm 1,3 km/h (1 Bft) O-NO 300 0 min 0 min 0,000 mm 0,0 UV-I 0 W/m 15,7 C 18,8 C 5,3 km/h (1 Bft) 100,00 %
22/07/2018 00:49 18,8 C 82 % 1015,4 hPa 0,0 mm 2,7 km/h (1 Bft) O-NO 300 0 min 0 min 0,000 mm 0,0 UV-I 0 W/m 15,7 C 18,8 C 3,5 km/h (1 Bft) 100,00 %
22/07/2018 00:48 18,8 C 82 % 1015,4 hPa 0,0 mm 3,5 km/h (1 Bft) O-NO 300 0 min 0 min 0,000 mm 0,0 UV-I 0 W/m 15,7 C 18,8 C 8,9 km/h (2 Bft) 100,00 %
22/07/2018 00:47 18,8 C 82 % 1015,4 hPa 0,0 mm 3,3 km/h (1 Bft) O-SO 237 0 min 0 min 0,000 mm 0,0 UV-I 0 W/m 15,7 C 18,8 C 5,3 km/h (1 Bft) 100,00 %
22/07/2018 00:46 18,8 C 82 % 1015,4 hPa 0,0 mm 3,0 km/h (1 Bft) NO 313 0 min 0 min 0,000 mm 0,0 UV-I 0 W/m 15,7 C 18,8 C 5,3 km/h (1 Bft) 95,83 %
22/07/2018 00:45 18,8 C 82 % 1015,3 hPa 0,0 mm 3,6 km/h (1 Bft) NO 318 0 min 0 min 0,000 mm 0,0 UV-I 0 W/m 15,7 C 18,8 C 7,1 km/h (2 Bft) 100,00 %
22/07/2018 00:44 18,8 C 83 % 1015,4 hPa 0,0 mm 2,9 km/h (1 Bft) O-NO 294 0 min 0 min 0,000 mm 0,0 UV-I 0 W/m 15,8 C 18,8 C 5,3 km/h (1 Bft) 100,00 %
22/07/2018 00:43 18,8 C 83 % 1015,3 hPa 0,0 mm 3,2 km/h (1 Bft) N 360 0 min 0 min 0,000 mm 0,0 UV-I 0 W/m 15,8 C 18,8 C 5,3 km/h (1 Bft) 95,83 %
22/07/2018 00:42 18,8 C 83 % 1015,3 hPa 0,0 mm 2,7 km/h (1 Bft) NO 310 0 min 0 min 0,000 mm 0,0 UV-I 0 W/m 15,8 C 18,8 C 5,3 km/h (1 Bft) 100,00 %
22/07/2018 00:41 18,8 C 83 % 1015,3 hPa 0,0 mm 2,0 km/h (1 Bft) NO 322 0 min 0 min 0,000 mm 0,0 UV-I 0 W/m 15,8 C 18,8 C 5,3 km/h (1 Bft) 100,00 %
22/07/2018 00:40 18,7 C 83 % 1015,2 hPa 0,0 mm 1,0 km/h (0 Bft) NO 322 0 min 0 min 0,000 mm 0,0 UV-I 0 W/m 15,8 C 18,7 C 3,5 km/h (1 Bft) 100,00 %
22/07/2018 00:39 18,8 C 83 % 1015,3 hPa 0,0 mm 3,1 km/h (1 Bft) O-NO 294 0 min 0 min 0,000 mm 0,0 UV-I 0 W/m 15,8 C 18,8 C 5,3 km/h (1 Bft) 100,00 %
22/07/2018 00:38 18,8 C 83 % 1015,3 hPa 0,0 mm 2,7 km/h (1 Bft) NO 309 0 min 0 min 0,000 mm 0,0 UV-I 0 W/m 15,8 C 18,8 C 8,9 km/h (2 Bft) 96,55 %
22/07/2018 00:37 18,8 C 84 % 1015,2 hPa 0,0 mm 4,2 km/h (1 Bft) N 350 0 min 0 min 0,000 mm 0,0 UV-I 0 W/m 16,0 C 18,8 C 7,1 km/h (2 Bft) 100,00 %
22/07/2018 00:36 18,8 C 84 % 1015,3 hPa 0,0 mm 2,1 km/h (1 Bft) O-NO 294 0 min 0 min 0,000 mm 0,0 UV-I 0 W/m 16,0 C 18,8 C 5,3 km/h (1 Bft) 100,00 %
22/07/2018 00:35 18,8 C 84 % 1015,2 hPa 0,0 mm 2,7 km/h (1 Bft) O-NO 301 0 min 0 min 0,000 mm 0,0 UV-I 0 W/m 16,0 C 18,8 C 5,3 km/h (1 Bft) 93,33 %
22/07/2018 00:34 18,8 C 84 % 1015,2 hPa 0,0 mm 2,8 km/h (1 Bft) O-NO 290 0 min 0 min 0,000 mm 0,0 UV-I 0 W/m 16,0 C 18,8 C 5,3 km/h (1 Bft) 100,00 %
22/07/2018 00:33 18,8 C 84 % 1015,3 hPa 0,0 mm 1,8 km/h (1 Bft) NO 320 0 min 0 min 0,000 mm 0,0 UV-I 0 W/m 16,0 C 18,8 C 5,3 km/h (1 Bft) 100,00 %
22/07/2018 00:32 18,8 C 85 % 1015,2 hPa 0,0 mm 1,9 km/h (1 Bft) NO 312 0 min 0 min 0,000 mm 0,0 UV-I 0 W/m 16,2 C 18,8 C 5,3 km/h (1 Bft) 95,83 %
22/07/2018 00:31 18,8 C 85 % 1015,2 hPa 0,0 mm 2,5 km/h (1 Bft) NO 319 0 min 0 min 0,000 mm 0,0 UV-I 0 W/m 16,2 C 18,8 C 5,3 km/h (1 Bft) 100,00 %
22/07/2018 00:30 18,8 C 85 % 1015,2 hPa 0,0 mm 4,1 km/h (1 Bft) NO 306 0 min 0 min 0,000 mm 0,0 UV-I 0 W/m 16,2 C 18,8 C 7,1 km/h (2 Bft) 100,00 %
22/07/2018 00:29 18,8 C 85 % 1015,2 hPa 0,0 mm 1,9 km/h (1 Bft) O 279 0 min 0 min 0,000 mm 0,0 UV-I 0 W/m 16,2 C 18,8 C 5,3 km/h (1 Bft) 100,00 %
22/07/2018 00:28 18,9 C 84 % 1015,2 hPa 0,0 mm 0,8 km/h (0 Bft) O 279 0 min 0 min 0,000 mm 0,0 UV-I 0 W/m 16,1 C 18,9 C 3,5 km/h (1 Bft) 100,00 %
22/07/2018 00:27 18,9 C 84 % 1015,2 hPa 0,0 mm 1,9 km/h (1 Bft) O 279 0 min 0 min 0,000 mm 0,0 UV-I 0 W/m 16,1 C 18,9 C 3,5 km/h (1 Bft) 100,00 %
22/07/2018 00:26 18,9 C 84 % 1015,2 hPa 0,0 mm 0,4 km/h (0 Bft) O 279 0 min 0 min 0,000 mm 0,0 UV-I 0 W/m 16,1 C 18,9 C 3,5 km/h (1 Bft) 95,65 %
22/07/2018 00:25 18,9 C 84 % 1015,2 hPa 0,0 mm 1,6 km/h (1 Bft) O 279 0 min 0 min 0,000 mm 0,0 UV-I 0 W/m 16,1 C 18,9 C 5,3 km/h (1 Bft) 100,00 %
22/07/2018 00:24 18,9 C 85 % 1015,2 hPa 0,0 mm 0,8 km/h (0 Bft) O 279 0 min 0 min 0,000 mm 0,0 UV-I 0 W/m 16,3 C 18,9 C 3,5 km/h (1 Bft) 95,83 %
22/07/2018 00:23 18,9 C 85 % 1015,2 hPa 0,0 mm 2,5 km/h (1 Bft) O 279 0 min 0 min 0,000 mm 0,0 UV-I 0 W/m 16,3 C 18,9 C 5,3 km/h (1 Bft) 100,00 %
22/07/2018 00:22 18,9 C 85 % 1015,2 hPa 0,0 mm 1,0 km/h (0 Bft) O 279 0 min 0 min 0,000 mm 0,0 UV-I 0 W/m 16,3 C 18,9 C 3,5 km/h (1 Bft) 95,65 %
22/07/2018 00:21 18,9 C 85 % 1015,2 hPa 0,0 mm 2,1 km/h (1 Bft) O 279 0 min 0 min 0,000 mm 0,0 UV-I 0 W/m 16,3 C 18,9 C 5,3 km/h (1 Bft) 95,65 %
22/07/2018 00:20 18,9 C 85 % 1015,1 hPa 0,0 mm 1,5 km/h (1 Bft) O 279 0 min 0 min 0,000 mm 0,0 UV-I 0 W/m 16,3 C 18,9 C 3,5 km/h (1 Bft) 96,30 %
22/07/2018 00:19 18,9 C 85 % 1015,1 hPa 0,0 mm 1,2 km/h (1 Bft) O 279 0 min 0 min 0,000 mm 0,0 UV-I 0 W/m 16,3 C 18,9 C 3,5 km/h (1 Bft) 91,67 %
22/07/2018 00:18 19,0 C 85 % 1015,1 hPa 0,0 mm 2,0 km/h (1 Bft) O 279 0 min 0 min 0,000 mm 0,0 UV-I 0 W/m 16,4 C 19,0 C 5,3 km/h (1 Bft) 95,83 %
22/07/2018 00:17 19,0 C 85 % 1015,1 hPa 0,0 mm 1,8 km/h (1 Bft) O 279 0 min 0 min 0,000 mm 0,0 UV-I 0 W/m 16,4 C 19,0 C 5,3 km/h (1 Bft) 95,83 %
22/07/2018 00:16 19,0 C 85 % 1015,1 hPa 0,0 mm 1,2 km/h (1 Bft) O 279 0 min 0 min 0,000 mm 0,0 UV-I 0 W/m 16,4 C 19,0 C 3,5 km/h (1 Bft) 96,43 %
22/07/2018 00:15 19,0 C 85 % 1015,1 hPa 0,0 mm 0,0 km/h (0 Bft) O 279 0 min 0 min 0,000 mm 0,0 UV-I 0 W/m 16,4 C 19,0 C 0,0 km/h (0 Bft) 100,00 %
22/07/2018 00:14 19,1 C 85 % 1015,1 hPa 0,0 mm 0,3 km/h (0 Bft) O 279 0 min 0 min 0,000 mm 0,0 UV-I 0 W/m 16,5 C 19,1 C 1,8 km/h (1 Bft) 90,91 %
22/07/2018 00:13 19,1 C 85 % 1015,1 hPa 0,0 mm 2,8 km/h (1 Bft) O 279 0 min 0 min 0,000 mm 0,0 UV-I 0 W/m 16,5 C 19,1 C 3,5 km/h (1 Bft) 100,00 %
22/07/2018 00:12 19,1 C 85 % 1015,1 hPa 0,0 mm 1,9 km/h (1 Bft) O 279 0 min 0 min 0,000 mm 0,0 UV-I 0 W/m 16,5 C 19,1 C 3,5 km/h (1 Bft) 95,65 %
22/07/2018 00:11 19,1 C 85 % 1015,1 hPa 0,0 mm 1,6 km/h (1 Bft) O 279 0 min 0 min 0,000 mm 0,0 UV-I 0 W/m 16,5 C 19,1 C 3,5 km/h (1 Bft) 100,00 %
22/07/2018 00:10 19,1 C 85 % 1015,1 hPa 0,0 mm 0,3 km/h (0 Bft) O 279 0 min 0 min 0,000 mm 0,0 UV-I 0 W/m 16,5 C 19,1 C 1,8 km/h (1 Bft) 92,31 %
22/07/2018 00:09 19,2 C 85 % 1015,1 hPa 0,0 mm 1,3 km/h (1 Bft) O 279 0 min 0 min 0,000 mm 0,0 UV-I 0 W/m 16,6 C 19,2 C 3,5 km/h (1 Bft) 96,62 %
22/07/2018 00:07 19,2 C 85 % 1015,1 hPa 0,0 mm 3,5 km/h (1 Bft) O 279 0 min 0 min 0,000 mm 0,0 UV-I 0 W/m 16,6 C 19,2 C 3,5 km/h (1 Bft) 91,30 %
22/07/2018 00:03 19,3 C 85 % 1015,1 hPa 0,0 mm 1,7 km/h (1 Bft) O 279 0 min 0 min 0,000 mm 0,0 UV-I 0 W/m 16,7 C 19,3 C 3,5 km/h (1 Bft) 91,30 %
22/07/2018 00:02 19,3 C 85 % 1015,1 hPa 0,0 mm 2,1 km/h (1 Bft) O 279 0 min 0 min 0,000 mm 0,0 UV-I 0 W/m 16,7 C 19,3 C 3,5 km/h (1 Bft) 100,00 %
22/07/2018 00:01 19,3 C 84 % 1015,1 hPa 0,0 mm 2,4 km/h (1 Bft) O 279 0 min 0 min 0,000 mm 0,0 UV-I 0 W/m 16,5 C 19,3 C 3,5 km/h (1 Bft) 95,83 %
22/07/2018 00:00 19,3 C 84 % 1015,0 hPa 0,0 mm 3,6 km/h (1 Bft) O 279 0 min 0 min 0,000 mm 0,0 UV-I 0 W/m 16,5 C 19,3 C 5,3 km/h (1 Bft) 100,00 %
_ Min-Heure 06:38 16:38 18:48 - 00:15 - - - - - - - 18:58 06:38 00:15 08:22
Minimum _ 15,1 C 38 % 1014,9 hPa - 0,0 km/h (0 Bft) - - - - - - - 12,1 C 15,1 C 0,0 km/h (0 Bft) 86,67 %
_ Max-Heure 17:08 06:21 08:34 00:00 14:16 - - 10:51 00:00 14:00 13:37 13:42 00:02 17:09 16:58 00:00
Maximum _ 28,7 C 95 % 1016,8 hPa 0,0 mm 11,8 km/h
N (2 Bft)
- - 2 min 0 min 0,584 mm 5,3 UV-I 913 W/m 16,7 C 28,7 C 21,2 km/h
NO (4 Bft)
100,00 %
Moyenne _ 21,6 C 68 % 1015,9 hPa #0,0 mm 2,4 km/h (1 Bft) O-NO - #9:52 h #0 min. #4,648 mm 2,9 UV-I 485 W/m 14,6 C 21,6 C 4,6 km/h (1 Bft) 98,32 %
Grandfresnoy - Oise - Picardie